[[{"header":{"parameterUnit":"m.s-1","parameterCategory":1,"la1":30.6,"la2":28.766,"lo1":-90.7593,"lo2":-88.6598,"dy":0.0162,"dx":0.0183,"nx":116,"ny":114,"refTime":"2023-08-09T12:00:00:Z","depth":0,"parameterNumber":2,"parameterNumberName":"U-component_of_WINDS"},"data":[0.0,0.0,0.0,0.0,0.0,0.0,0.0,0.0,0.0,0.0,0.0,0.0,0.0,0.0,0.0,0.0,0.0,0.0,0.0,0.0,0.0,0.0,0.0,0.0,0.0,0.0,0.0,0.0,0.0,0.0,0.0,0.0,0.0,0.0,0.0,0.0,0.0,0.0,0.0,0.0,0.0,0.0,0.0,0.0,0.0,0.0,0.0,0.0,0.0,0.0,0.0,0.0,0.0,0.0,0.0,0.0,0.0,0.0,0.0,0.0,0.0,0.0,0.0,0.0,0.0,0.0,0.0,0.0,0.0,0.0,0.0,0.0,0.0,0.0,0.0,0.0,0.0,0.0,0.0,0.0,0.0,0.0,0.0,0.0,0.0,0.0,0.0,0.0,0.0,0.0,0.0,0.0,0.0,0.0,0.0,0.0,0.0,0.0,0.0,0.0,0.0,0.0,0.0,0.0,0.0,0.0,0.0,0.0,0.0,0.0,0.0,0.0,0.0,0.0,0.0,0.0,0.0,0.0,0.0,0.0,0.0,0.0,0.0,0.0,0.0,0.0,0.0,0.0,0.0,0.0,0.0,0.0,0.0,0.0,0.0,0.0,0.0,0.0,0.0,0.0,0.0,0.0,0.0,0.0,0.0,0.0,0.0,0.0,0.0,0.0,0.0,0.0,0.0,0.0,0.0,0.0,0.0,0.0,0.0,0.0,0.0,0.0,0.0,0.0,0.0,0.0,0.0,0.0,0.0,0.0,0.0,0.0,0.0,0.0,0.0,0.0,0.0,0.0,0.0,0.0,0.0,0.0,0.0,0.0,0.0,0.0,0.0,0.0,0.0,0.0,0.0,0.0,0.0,0.0,0.0,0.0,0.0,0.0,0.0,0.0,0.0,0.0,0.0,0.0,0.0,0.0,0.0,0.0,0.0,0.0,0.0,0.0,0.0,0.0,0.0,0.0,0.0,0.0,0.0,0.0,0.0,0.0,0.0,0.0,0.0,0.0,0.0,0.0,0.0,0.0,0.0,0.0,0.0,0.0,0.0,0.0,0.0,0.0,0.0,0.0,0.0,0.0,0.0,0.0,0.0,0.0,0.0,0.0,0.0,0.0,0.0,0.0,0.0,0.0,0.0,0.0,0.0,0.0,0.0,0.0,0.0,0.0,0.0,0.0,0.0,0.0,0.0,0.0,0.0,0.0,0.0,0.0,0.0,0.0,0.0,0.0,0.0,0.0,0.0,0.0,0.0,0.0,0.0,0.0,0.0,0.0,0.0,0.0,0.0,0.0,0.0,0.0,0.0,0.0,0.0,0.0,0.0,0.0,0.0,0.0,0.0,0.0,0.0,0.0,0.0,0.0,0.0,0.0,0.0,0.0,0.0,0.0,0.0,0.0,0.0,0.0,0.0,0.0,0.0,0.0,0.0,0.0,0.0,0.0,0.0,0.0,0.0,0.0,0.0,0.0,0.0,0.0,0.0,0.0,0.0,0.0,0.0,0.0,0.0,0.0,0.0,0.0,0.0,0.0,0.0,0.0,0.0,0.0,0.0,0.0,0.0,0.0,0.0,0.0,0.0,0.0,0.0,0.0,0.0,0.0,0.0,0.0,0.0,0.0,0.0,0.0,0.0,0.0,0.0,0.0,0.0,0.0,0.0,0.0,0.0,0.0,0.0,0.0,0.0,0.0,0.0,0.0,0.0,0.0,0.0,0.0,0.0,0.0,0.0,0.0,0.0,0.0,0.0,0.0,0.0,0.0,0.0,0.0,0.0,0.0,0.0,0.0,0.0,0.0,0.0,0.0,0.0,0.0,0.0,0.0,0.0,0.0,0.0,0.0,0.0,0.0,0.0,0.0,0.0,0.0,0.0,0.0,0.0,0.0,0.0,0.0,0.0,0.0,0.0,0.0,0.0,0.0,0.0,0.0,0.0,0.0,0.0,0.0,0.0,0.0,0.0,0.0,0.0,0.0,0.0,0.0,0.0,0.0,0.0,0.0,0.0,0.0,0.0,0.0,0.0,0.0,0.0,0.0,0.0,0.0,0.0,0.0,0.0,0.0,0.0,0.0,0.0,0.0,0.0,0.0,0.0,0.0,0.0,0.0,0.0,0.0,0.0,0.0,0.0,0.0,0.0,0.0,0.0,0.0,0.0,0.0,0.0,0.0,0.0,0.0,0.0,0.0,0.0,0.0,0.0,0.0,0.0,0.0,0.0,0.0,0.0,0.0,0.0,0.0,0.0,0.0,0.0,0.0,0.0,0.0,0.0,0.0,0.0,0.0,0.0,0.0,0.0,0.0,0.0,0.0,0.0,0.0,0.0,0.0,0.0,0.0,0.0,0.0,0.0,0.0,0.0,0.0,0.0,0.0,0.0,0.0,0.0,0.0,0.0,0.0,0.0,0.0,0.0,0.0,0.0,0.0,0.0,0.0,0.0,0.0,0.0,0.0,0.0,0.0,0.0,0.0,0.0,0.0,0.0,0.0,0.0,0.0,0.0,0.0,0.0,0.0,0.0,0.0,0.0,0.0,0.0,0.0,0.0,0.0,0.0,0.0,0.0,0.0,0.0,0.0,0.0,0.0,0.0,0.0,0.0,0.0,0.0,0.0,0.0,0.0,0.0,0.0,0.0,0.0,0.0,0.0,0.0,0.0,0.0,0.0,0.0,0.0,0.0,0.0,0.0,0.0,0.0,0.0,0.0,0.0,0.0,0.0,0.0,0.0,0.0,0.0,0.0,0.0,0.0,0.0,0.0,0.0,0.0,0.0,0.0,0.0,0.0,0.0,0.0,0.0,0.0,0.0,0.0,0.0,0.0,0.0,0.0,0.0,0.0,0.0,0.0,0.0,0.0,0.0,0.0,0.0,0.0,0.0,0.0,0.0,0.0,0.0,0.0,0.0,0.0,0.0,0.0,0.0,0.0,0.0,0.0,0.0,0.0,0.0,0.0,0.0,0.0,0.0,0.0,0.0,0.0,0.0,0.0,0.0,0.0,0.0,0.0,0.0,0.0,0.0,0.0,0.0,0.0,0.0,0.0,0.0,0.0,0.0,0.0,0.0,0.0,0.0,0.0,0.0,0.0,0.0,0.0,0.0,0.0,0.0,0.0,0.0,0.0,0.0,0.0,0.0,0.0,0.0,0.0,0.0,0.0,0.0,0.0,0.0,0.0,0.0,0.0,0.0,0.0,0.0,0.0,0.0,0.0,0.0,0.0,0.0,0.0,0.0,0.0,0.0,0.0,0.0,0.0,0.0,0.0,0.0,0.0,0.0,0.0,0.0,0.0,0.0,0.0,0.0,0.0,0.0,0.0,0.0,0.0,0.0,0.0,0.0,0.0,0.0,0.0,0.0,0.0,0.0,0.0,0.0,0.0,0.0,0.0,0.0,0.0,0.0,0.0,0.0,0.0,0.0,0.0,0.0,0.0,0.0,0.0,0.0,0.0,0.0,0.0,0.0,0.0,0.0,0.0,0.0,0.0,0.0,0.0,0.0,0.0,0.0,0.0,0.0,0.0,0.0,0.0,0.0,0.0,0.0,0.0,0.0,0.0,0.0,0.0,0.0,0.0,0.0,0.0,0.0,0.0,0.0,0.0,0.0,0.0,0.0,0.0,0.0,0.0,0.0,0.0,0.0,0.0,0.0,0.0,0.0,0.0,0.0,0.0,0.0,0.0,0.0,0.0,0.0,0.0,0.0,0.0,0.0,0.0,0.0,0.0,0.0,0.0,0.0,0.0,0.0,0.0,0.0,0.0,0.0,0.0,0.0,0.0,0.0,0.0,0.0,0.0,0.0,0.0,0.0,0.0,0.0,0.0,0.0,0.0,0.0,0.0,0.0,0.0,0.0,0.0,0.0,0.0,0.0,0.0,0.0,0.0,0.0,0.0,0.0,0.0,0.0,0.0,0.0,0.0,0.0,0.0,0.0,0.0,0.0,0.0,0.0,0.0,0.0,0.0,0.0,0.0,0.0,0.0,0.0,0.0,0.0,0.0,0.0,0.0,0.0,0.0,0.0,0.0,0.0,0.0,0.0,0.0,0.0,0.0,0.0,0.0,0.0,0.0,0.0,0.0,0.0,0.0,0.0,0.0,0.0,0.0,0.0,0.0,0.0,0.0,0.0,0.0,0.0,0.0,0.0,0.0,0.0,0.0,0.0,0.0,0.0,0.0,0.0,0.0,0.0,0.0,0.0,0.0,0.0,0.0,0.0,0.0,0.0,0.0,0.0,0.0,0.0,0.0,0.0,0.0,0.0,0.0,0.0,0.0,0.0,0.0,0.0,0.0,0.0,0.0,0.0,0.0,0.0,0.0,0.0,0.0,0.0,0.0,0.0,0.0,0.0,0.0,0.0,0.0,0.0,0.0,0.0,0.0,0.0,0.0,0.0,0.0,0.0,0.0,0.0,0.0,0.0,0.0,0.0,0.0,0.0,0.0,0.0,0.0,0.0,0.0,0.0,0.0,0.0,0.0,0.0,0.0,0.0,0.0,0.0,0.0,0.0,0.0,0.0,0.0,0.0,0.0,0.0,0.0,0.0,0.0,0.0,0.0,0.0,0.0,0.0,0.0,0.0,0.0,0.0,0.0,0.0,0.0,0.0,0.0,0.0,0.0,0.0,0.0,0.0,0.0,0.0,0.0,0.0,0.0,0.0,0.0,0.0,0.0,0.0,0.0,0.0,0.0,0.0,0.0,0.0,0.0,0.0,0.0,0.0,0.0,0.0,0.0,0.0,0.0,0.0,0.0,0.0,0.0,0.0,0.0,0.0,0.0,0.0,0.0,0.0,0.0,0.0,0.0,0.0,0.0,0.0,0.0,0.0,0.0,0.0,0.0,0.0,0.0,0.0,0.0,0.0,0.0,0.0,0.0,0.0,0.0,0.0,0.0,0.0,0.0,0.0,0.0,0.0,0.0,0.0,0.0,0.0,0.0,0.0,0.0,0.0,0.0,0.0,0.0,0.0,0.0,0.0,0.0,0.0,0.0,0.0,0.0,0.0,0.0,0.0,0.0,0.0,0.0,0.0,0.0,0.0,0.0,0.0,0.0,0.0,0.0,0.0,0.0,0.0,0.0,0.0,0.0,0.0,0.0,0.0,0.0,0.0,0.0,0.0,0.0,0.0,0.0,0.0,0.0,0.0,0.0,0.0,0.0,0.0,0.0,0.0,0.0,0.0,0.0,0.0,0.0,0.0,0.0,0.0,0.0,0.0,0.0,0.0,0.0,0.0,0.0,0.0,0.0,0.0,0.0,0.0,0.0,0.0,0.0,0.0,0.0,0.0,0.0,0.0,0.0,0.0,0.0,0.0,0.0,0.0,0.0,0.0,0.0,0.0,0.0,0.0,0.0,0.0,0.0,0.0,0.0,0.0,0.0,0.0,0.0,0.0,0.0,0.0,0.0,0.0,0.0,0.0,0.0,0.0,0.0,0.0,0.0,0.0,0.0,0.0,0.0,0.0,0.0,0.0,0.0,0.0,0.0,0.0,0.0,0.0,0.0,0.0,0.0,0.0,0.0,0.0,0.0,0.0,0.0,0.0,0.0,0.0,0.0,0.0,0.0,0.0,0.0,0.0,0.0,0.0,0.0,0.0,0.0,0.0,0.0,0.0,0.0,0.0,0.0,0.0,0.0,0.0,0.0,0.0,0.0,0.0,0.0,0.0,0.0,0.0,0.0,0.0,0.0,0.0,0.0,0.0,0.0,0.0,0.0,0.0,0.0,0.0,0.0,0.0,0.0,0.0,0.0,0.0,0.0,0.0,0.0,0.0,0.0,0.0,0.0,0.0,0.0,0.0,0.0,0.0,0.0,0.0,0.0,0.0,0.0,0.0,0.0,0.0,0.0,0.0,0.0,0.0,0.0,0.0,0.0,0.0,0.0,0.0,0.0,0.0,0.0,0.0,0.0,0.0,0.0,0.0,0.0,0.0,0.0,0.0,0.0,0.0,0.0,0.0,0.0,0.0,0.0,0.0,0.0,0.0,0.0,0.0,0.0,0.0,0.0,0.0,0.0,0.0,0.0,0.0,0.0,0.0,0.0,0.0,0.0,0.0,0.0,0.0,0.0,0.0,0.0,0.0,0.0,0.0,0.0,0.0,0.0,0.0,0.0,0.0,-1.4458,-1.3917,0.0,0.0,0.0,0.0,0.0,0.0,0.0,0.0,0.0,0.0,0.0,0.0,0.0,0.0,0.0,0.0,0.0,0.0,0.0,0.0,0.0,0.0,0.0,0.0,0.0,0.0,0.0,0.0,0.0,0.0,0.0,0.0,0.0,0.0,0.0,0.0,0.0,0.0,0.0,0.0,0.0,0.0,0.0,0.0,0.0,0.0,0.0,0.0,0.0,0.0,0.0,0.0,0.0,0.0,0.0,0.0,0.0,0.0,0.0,0.0,0.0,0.0,0.0,0.0,0.0,0.0,0.0,0.0,0.0,0.0,0.0,0.0,0.0,0.0,0.0,0.0,0.0,0.0,0.0,0.0,0.0,0.0,0.0,0.0,0.0,0.0,0.0,0.0,0.0,0.0,0.0,0.0,0.0,0.0,0.0,0.0,0.0,0.0,0.0,0.0,0.0,0.0,0.0,0.0,0.0,0.0,0.0,0.0,0.0,0.0,0.0,0.0,0.0,0.0,-1.5569,-1.5071,0.0,0.0,0.0,0.0,0.0,0.0,0.0,0.0,0.0,0.0,0.0,0.0,0.0,0.0,0.0,0.0,0.0,0.0,0.0,0.0,0.0,0.0,0.0,0.0,0.0,0.0,0.0,0.0,0.0,0.0,0.0,0.0,0.0,0.0,0.0,0.0,0.0,0.0,0.0,0.0,0.0,0.0,0.0,0.0,0.0,0.0,0.0,0.0,0.0,0.0,0.0,0.0,0.0,0.0,0.0,0.0,0.0,0.0,0.0,0.0,0.0,0.0,0.0,0.0,0.0,0.0,0.0,0.0,0.0,0.0,0.0,0.0,0.0,0.0,0.0,0.0,0.0,0.0,0.0,0.0,0.0,0.0,0.0,0.0,0.0,0.0,0.0,0.0,0.0,0.0,0.0,0.0,0.0,0.0,0.0,0.0,0.0,0.0,0.0,0.0,0.0,0.0,0.0,0.0,0.0,0.0,0.0,0.0,-1.5592,-1.6273,-1.6571,-1.6875,-1.7475,-1.8218,-1.66,-1.6292,-1.6843,-1.5791,0.0,0.0,0.0,0.0,0.0,0.0,0.0,0.0,0.0,0.0,0.0,0.0,0.0,0.0,0.0,0.0,0.0,0.0,0.0,0.0,0.0,0.0,0.0,0.0,0.0,0.0,0.0,0.0,0.0,0.0,0.0,0.0,0.0,0.0,0.0,0.0,0.0,0.0,0.0,0.0,0.0,0.0,0.0,0.0,0.0,0.0,0.0,0.0,0.0,0.0,0.0,0.0,0.0,0.0,0.0,0.0,0.0,0.0,0.0,0.0,0.0,0.0,0.0,0.0,0.0,0.0,0.0,0.0,0.0,0.0,0.0,0.0,0.0,0.0,0.0,0.0,0.0,0.0,0.0,0.0,0.0,0.0,0.0,0.0,0.0,0.0,-1.0904,-1.1057,0.0,0.0,0.0,0.0,0.0,0.0,0.0,0.0,0.0,0.0,0.0,0.0,0.0,-1.4782,-1.5869,-1.6874,-1.7511,-1.7805,-1.846,-1.8411,-1.7734,-1.8541,-1.859,-1.799,-1.8529,0.0,-1.7832,-1.7656,0.0,0.0,0.0,0.0,0.0,0.0,0.0,0.0,0.0,0.0,0.0,0.0,0.0,0.0,0.0,0.0,0.0,0.0,0.0,0.0,0.0,0.0,0.0,0.0,0.0,0.0,0.0,0.0,0.0,0.0,0.0,0.0,0.0,0.0,0.0,0.0,0.0,0.0,0.0,0.0,0.0,0.0,0.0,0.0,0.0,0.0,0.0,0.0,0.0,0.0,0.0,0.0,0.0,0.0,0.0,0.0,0.0,0.0,0.0,0.0,0.0,0.0,0.0,0.0,0.0,0.0,0.0,0.0,0.0,0.0,0.0,0.0,0.0,0.0,0.0,0.0,0.0,0.0,0.0,0.0,0.0,0.0,0.0,0.0,0.0,-1.0997,-1.1294,-1.1514,-1.1514,-1.1412,0.0,0.0,0.0,0.0,0.0,0.0,0.0,0.0,0.0,-1.4239,-1.4628,-1.5057,-1.5506,-1.7088,-1.7971,-1.8117,-1.8935,-1.9221,-1.9023,-1.9443,-1.9541,-1.9459,-1.9849,-1.9795,-1.9394,-1.8662,-1.7876,-1.7197,0.0,0.0,0.0,0.0,-1.7603,-1.7768,0.0,0.0,0.0,0.0,0.0,0.0,0.0,0.0,0.0,0.0,0.0,0.0,0.0,0.0,0.0,-1.2328,0.0,0.0,0.0,0.0,0.0,0.0,0.0,0.0,0.0,0.0,0.0,0.0,0.0,0.0,0.0,0.0,0.0,0.0,0.0,0.0,0.0,0.0,0.0,0.0,0.0,0.0,0.0,0.0,0.0,0.0,0.0,0.0,0.0,0.0,0.0,0.0,0.0,0.0,0.0,0.0,0.0,0.0,0.0,0.0,0.0,0.0,0.0,0.0,0.0,0.0,0.0,0.0,0.0,0.0,0.0,0.0,0.0,0.0,0.0,0.0,0.0,-1.1291,-1.1657,-1.1875,-1.1899,-1.1787,0.0,0.0,0.0,0.0,0.0,0.0,-1.439,-1.3592,-1.3739,-1.5199,-1.5453,-1.5591,-1.5684,-1.764,-1.8638,-1.874,-1.9438,-2.001,-2.042,-2.042,-2.0596,-2.0938,-2.0938,-2.0938,-2.085,-1.9619,-1.8968,-1.8769,-1.8527,-1.8355,-1.8313,-1.8497,-1.87,-1.8858,0.0,0.0,0.0,0.0,0.0,0.0,0.0,0.0,0.0,0.0,0.0,0.0,0.0,0.0,-1.1833,-1.1654,-1.1778,-1.1975,0.0,0.0,0.0,0.0,0.0,0.0,0.0,0.0,0.0,0.0,0.0,0.0,0.0,0.0,0.0,0.0,0.0,0.0,0.0,0.0,0.0,0.0,0.0,0.0,0.0,0.0,0.0,0.0,0.0,0.0,0.0,0.0,0.0,0.0,0.0,0.0,0.0,0.0,0.0,0.0,0.0,0.0,0.0,0.0,0.0,0.0,0.0,0.0,0.0,0.0,0.0,0.0,0.0,0.0,0.0,0.0,0.0,0.0,0.0,0.0,0.0,-1.2158,-1.229,0.0,0.0,0.0,0.0,-1.2551,-1.2885,-1.3594,-1.4803,-1.369,-1.3979,-1.6073,-1.6572,-1.7238,-1.8133,-1.9696,-2.0674,-2.1013,-2.1093,-2.1367,-2.1787,-2.1787,-2.1797,-2.1816,-2.1816,-2.1816,-2.1748,-2.0879,-2.0028,-1.9284,-1.9535,-1.9169,-1.8582,-1.9323,-1.9623,-1.9716,0.0,0.0,0.0,0.0,0.0,0.0,0.0,0.0,0.0,0.0,0.0,0.0,0.0,-1.2351,-1.2035,-1.1459,-1.1663,-1.1892,-1.2081,0.0,0.0,0.0,0.0,0.0,0.0,0.0,0.0,0.0,0.0,0.0,0.0,0.0,0.0,0.0,0.0,0.0,0.0,0.0,0.0,0.0,0.0,0.0,0.0,0.0,0.0,0.0,0.0,0.0,0.0,0.0,0.0,0.0,0.0,0.0,0.0,0.0,0.0,0.0,0.0,0.0,0.0,0.0,0.0,0.0,0.0,0.0,0.0,0.0,0.0,0.0,0.0,0.0,0.0,0.0,0.0,0.0,0.0,0.0,0.0,-1.2632,-1.2643,0.0,-1.2749,-1.3026,-1.3063,-1.2854,-1.3061,-1.3737,-1.5086,-1.4724,-1.5213,-1.685,-1.8017,-1.8789,-1.9119,-2.065,-2.1494,-2.165,-2.165,-2.1738,-2.1885,-2.1885,-2.1885,-2.1885,-2.1885,-2.1885,-2.1865,-2.1543,-2.1074,-2.0537,-2.0615,-2.0318,-1.9873,-2.0179,-2.0287,-2.0299,0.0,0.0,0.0,0.0,0.0,0.0,0.0,0.0,0.0,0.0,0.0,-1.2367,-1.2112,-1.1942,-1.1632,-1.1122,-1.1357,-1.1636,-1.1873,0.0,0.0,0.0,0.0,0.0,0.0,0.0,0.0,0.0,0.0,0.0,0.0,0.0,0.0,0.0,0.0,0.0,0.0,0.0,0.0,0.0,0.0,0.0,-1.4005,0.0,0.0,0.0,0.0,0.0,0.0,0.0,0.0,0.0,0.0,0.0,0.0,0.0,0.0,0.0,0.0,0.0,0.0,0.0,0.0,0.0,0.0,0.0,0.0,0.0,0.0,0.0,0.0,0.0,0.0,0.0,0.0,0.0,0.0,0.0,-1.2728,-1.3431,-1.3169,-1.3271,-1.4173,-1.4087,-1.3927,-1.3786,-1.4266,-1.4849,-1.5524,-1.5996,-1.6683,-1.7647,-1.9061,-1.9815,-1.9815,-2.1215,-2.1953,-2.21,-2.21,-2.2168,-2.2305,-2.2305,-2.2305,-2.2305,-2.2305,-2.2305,-2.2305,-2.2305,-2.2051,-2.1609,-2.1473,-2.1269,-2.1055,-2.1055,-2.1055,-2.1055,0.0,0.0,0.0,0.0,0.0,0.0,0.0,0.0,0.0,0.0,0.0,0.0,0.0,0.0,0.0,0.0,0.0,-1.1216,-1.1683,0.0,0.0,0.0,0.0,0.0,0.0,0.0,0.0,0.0,0.0,0.0,0.0,0.0,0.0,0.0,0.0,0.0,0.0,0.0,0.0,0.0,0.0,0.0,-1.5206,0.0,0.0,0.0,0.0,0.0,0.0,0.0,0.0,0.0,0.0,0.0,0.0,0.0,0.0,0.0,0.0,0.0,0.0,0.0,0.0,0.0,0.0,0.0,0.0,0.0,0.0,0.0,0.0,0.0,0.0,0.0,0.0,0.0,-1.2507,-1.258,-1.3177,-1.4557,-1.3887,-1.4139,-1.6269,-1.5824,-1.5368,-1.5328,-1.6564,-1.6989,-1.6224,-1.7383,-1.8187,-1.845,-1.9664,-2.0265,-2.0265,-2.1396,-2.2148,-2.2549,-2.2568,-2.274,-2.314,-2.314,-2.314,-2.314,-2.314,-2.314,-2.314,-2.314,-2.2896,-2.2529,-2.208,-2.1894,-2.1885,-2.1885,-2.1885,-2.1885,0.0,0.0,0.0,0.0,0.0,0.0,0.0,0.0,0.0,0.0,0.0,0.0,0.0,0.0,0.0,0.0,0.0,-1.1216,-1.1683,0.0,0.0,0.0,0.0,0.0,0.0,0.0,0.0,0.0,0.0,0.0,0.0,0.0,0.0,0.0,0.0,0.0,0.0,0.0,0.0,0.0,0.0,0.0,-1.6217,0.0,0.0,0.0,0.0,0.0,0.0,0.0,0.0,0.0,0.0,0.0,0.0,0.0,0.0,0.0,0.0,0.0,0.0,0.0,0.0,0.0,0.0,0.0,0.0,0.0,0.0,0.0,0.0,0.0,0.0,0.0,0.0,-1.4141,-1.3191,-1.3689,-1.443,-1.5056,-1.5584,-1.5874,-1.5911,-1.674,-1.6921,-1.608,-1.7399,-1.8159,-1.7908,-1.8981,-1.9625,-1.9689,-2.1109,-2.1882,-2.1882,-2.2819,-2.332,-2.3447,-2.375,-2.3955,-2.4017,-2.4017,-2.4017,-2.4017,-2.4017,-2.4017,-2.4017,-2.4017,-2.4004,-2.3789,-2.2744,-2.2158,-2.1885,-2.1885,-2.1885,-2.1885,0.0,0.0,0.0,0.0,0.0,0.0,0.0,0.0,0.0,0.0,0.0,0.0,0.0,0.0,0.0,0.0,0.0,0.0,0.0,0.0,0.0,0.0,0.0,0.0,0.0,0.0,0.0,0.0,0.0,0.0,0.0,0.0,0.0,0.0,0.0,0.0,0.0,0.0,0.0,0.0,0.0,0.0,-1.7141,-1.6804,-1.6518,-1.6259,-1.5588,-1.5558,-1.5709,-1.4781,0.0,0.0,0.0,0.0,0.0,0.0,0.0,0.0,0.0,0.0,0.0,0.0,0.0,0.0,0.0,0.0,0.0,0.0,0.0,0.0,0.0,0.0,0.0,0.0,-1.5077,-1.5707,-1.5047,-1.5397,-1.5787,-1.61,-1.6871,-1.7528,-1.7941,-1.8554,-1.8642,-1.7992,-1.9227,-1.9649,-1.8856,-2.0296,-2.1018,-2.065,-2.2231,-2.3047,-2.3047,-2.3711,-2.4053,-2.4053,-2.4307,-2.4414,-2.4414,-2.4414,-2.4414,-2.4414,-2.4414,-2.4414,-2.4414,-2.4414,-2.4414,-2.4346,0.0,0.0,0.0,0.0,-2.2412,-2.2412,0.0,0.0,0.0,0.0,0.0,0.0,0.0,0.0,0.0,0.0,0.0,0.0,0.0,0.0,0.0,0.0,0.0,0.0,0.0,0.0,0.0,0.0,0.0,0.0,0.0,0.0,0.0,0.0,0.0,0.0,0.0,0.0,0.0,0.0,0.0,0.0,0.0,0.0,0.0,0.0,0.0,0.0,-1.8147,-1.8278,-1.7712,-1.6848,-1.6309,-1.6276,-1.6385,-1.5653,0.0,0.0,0.0,0.0,0.0,0.0,0.0,0.0,0.0,0.0,0.0,0.0,0.0,0.0,0.0,0.0,0.0,0.0,0.0,0.0,0.0,0.0,0.0,0.0,-1.7282,-1.7522,-1.74,-1.7424,-1.7508,-1.757,-1.8094,-1.912,-2.0926,-2.0693,-2.0404,-2.0268,-2.1379,-2.1316,-1.963,0.0,0.0,0.0,0.0,-2.3857,-2.3857,-2.4277,-2.4492,-2.4492,-2.4541,-2.457,-2.457,-2.457,-2.457,-2.457,-2.457,-2.457,-2.457,-2.457,-2.457,-2.4551,-2.4453,-2.4189,-2.3809,-2.3383,-2.3208,-2.3169,0.0,0.0,0.0,0.0,0.0,0.0,0.0,0.0,0.0,0.0,0.0,0.0,0.0,0.0,0.0,0.0,0.0,0.0,0.0,0.0,0.0,0.0,0.0,0.0,0.0,0.0,0.0,0.0,0.0,0.0,0.0,0.0,0.0,0.0,0.0,0.0,0.0,0.0,0.0,0.0,0.0,0.0,-1.9513,-1.9548,-1.902,-1.8216,-1.8088,-1.7889,-1.7509,-1.6518,-1.6313,-1.6299,-1.5358,0.0,0.0,0.0,0.0,0.0,0.0,0.0,0.0,0.0,0.0,0.0,0.0,0.0,0.0,0.0,0.0,0.0,0.0,0.0,0.0,-1.6853,-1.8175,-1.8845,-1.7987,-1.9651,-2.0473,-1.929,-2.0342,-2.0934,-2.0439,-2.1377,-2.1717,-2.0823,-2.2064,-2.2703,-2.2334,-2.3119,-2.3485,-2.3329,-2.3936,-2.4297,-2.4297,-2.4727,-2.4941,-2.4951,-2.5312,0.0,-2.544,-2.544,-2.544,-2.544,-2.544,-2.544,-2.544,-2.544,-2.544,-2.5362,-2.4651,-2.4365,-2.4287,-2.4199,-2.3955,-2.3662,0.0,0.0,0.0,0.0,0.0,0.0,0.0,0.0,0.0,0.0,0.0,0.0,0.0,0.0,0.0,0.0,0.0,0.0,0.0,0.0,0.0,0.0,0.0,0.0,0.0,0.0,0.0,0.0,0.0,0.0,0.0,0.0,0.0,0.0,0.0,0.0,0.0,0.0,0.0,0.0,0.0,0.0,-2.0215,-2.0,-1.9648,-1.9182,-1.8754,-1.8461,-1.8183,-1.7441,-1.7398,-1.7429,-1.654,-1.6259,-1.5991,0.0,0.0,0.0,0.0,0.0,0.0,0.0,0.0,0.0,0.0,0.0,0.0,0.0,0.0,-1.5892,0.0,0.0,-1.7918,-1.8871,-1.9813,-2.0289,-1.9998,-2.1239,-2.1636,-2.0085,-2.1271,-2.1978,-2.1391,-2.2217,-2.2597,-2.2047,-2.2693,-2.3188,-2.3457,-2.3672,-2.3887,-2.4092,-2.4521,-2.4746,-2.4746,-2.5185,-2.54,-2.541,-2.5586,-2.5693,-2.5693,-2.5693,-2.5693,-2.5693,-2.5693,-2.5693,-2.5693,-2.5693,-2.5693,-2.5645,-2.5206,-2.4941,-2.4717,-2.4502,-2.4287,-2.4102,0.0,0.0,0.0,0.0,0.0,0.0,0.0,0.0,0.0,0.0,0.0,0.0,0.0,0.0,0.0,0.0,0.0,0.0,0.0,0.0,0.0,0.0,0.0,0.0,0.0,0.0,0.0,0.0,0.0,0.0,0.0,0.0,0.0,0.0,0.0,0.0,0.0,0.0,0.0,0.0,0.0,0.0,-2.0556,-2.0078,-1.9863,-1.9697,-1.8978,-1.8617,-1.8442,-1.8188,-1.8325,-1.8466,-1.782,-1.7343,-1.6718,-1.5331,-1.4422,0.0,0.0,0.0,0.0,0.0,0.0,0.0,0.0,0.0,-1.5678,-1.6625,-1.6723,-1.7126,-1.8602,-1.8854,-1.9411,-2.1052,-2.1385,-2.1561,-2.1953,-2.2373,-2.214,-2.0911,-2.1883,-2.2637,-2.2637,-2.2896,-2.3091,-2.3091,-2.3169,-2.3418,-2.3769,-2.3945,-2.4189,-2.4531,-2.4971,-2.5195,-2.5195,-2.5557,-2.5693,-2.5693,-2.5693,-2.5693,-2.5693,-2.5693,-2.5693,-2.5693,-2.5693,-2.5693,-2.5693,-2.5693,-2.5693,-2.5693,-2.5693,-2.5518,-2.5156,-2.4805,-2.4619,-2.4541,0.0,0.0,0.0,0.0,0.0,0.0,0.0,0.0,0.0,0.0,0.0,0.0,0.0,0.0,0.0,0.0,0.0,0.0,0.0,0.0,0.0,0.0,0.0,0.0,0.0,0.0,0.0,0.0,0.0,0.0,0.0,0.0,0.0,0.0,0.0,0.0,0.0,0.0,0.0,0.0,0.0,0.0,-2.0556,-2.0078,-1.9678,-1.9346,-1.9248,-1.873,-1.8091,-1.8422,-1.8559,-1.8666,-1.8983,-1.9242,-1.9105,-1.7032,0.0,-1.5549,-1.3583,-1.3542,-1.4428,-1.6058,-1.6147,-1.6358,0.0,0.0,-1.6942,-1.8416,-1.8695,-1.9115,-2.0601,-2.0896,-2.1071,-2.1728,-2.2129,-2.2383,-2.2441,-2.276,-2.296,-2.2824,-2.295,-2.3023,-2.3023,-2.3062,-2.3091,-2.3091,-2.3496,-2.374,-2.3789,-2.4512,-2.4998,-2.5037,-2.543,-2.5615,-2.5615,-2.5664,-2.5693,-2.5693,-2.5693,-2.5693,-2.5693,-2.5693,-2.5693,-2.5693,-2.5693,-2.5693,-2.5693,-2.5693,-2.5693,-2.5693,-2.5693,-2.5664,-2.5615,-2.5557,-2.5342,-2.5047,0.0,0.0,0.0,0.0,0.0,0.0,0.0,0.0,0.0,0.0,0.0,0.0,0.0,0.0,0.0,0.0,0.0,0.0,0.0,0.0,0.0,0.0,0.0,0.0,0.0,0.0,0.0,0.0,0.0,0.0,0.0,0.0,0.0,0.0,0.0,0.0,0.0,0.0,0.0,0.0,0.0,0.0,-2.0166,-1.998,-1.9502,-1.8835,-1.8538,-1.8105,0.0,0.0,-1.8228,-1.8502,-1.9364,-1.9203,-1.8457,-1.7415,-1.6342,0.0,-1.4955,-1.4717,0.0,0.0,-1.7226,-1.7466,-1.8904,-1.8745,-1.865,-2.0003,-2.0301,-2.0554,-2.1452,-2.1611,-2.1758,0.0,-2.2402,-2.2598,-2.2799,-2.2984,-2.3091,-2.3091,-2.3091,-2.3091,-2.3091,-2.3091,-2.3198,-2.3496,-2.3691,-2.4004,-2.4548,-2.492,-2.5233,-2.5449,-2.5586,-2.5693,-2.5693,-2.5693,-2.5693,-2.5693,-2.5693,-2.5693,-2.5693,-2.5693,-2.5693,-2.5693,-2.5693,-2.5693,-2.5693,-2.5693,-2.5693,-2.5693,-2.5693,-2.5693,-2.5693,-2.5693,-2.5567,-2.5459,0.0,0.0,0.0,0.0,0.0,0.0,0.0,0.0,0.0,0.0,0.0,0.0,0.0,0.0,0.0,0.0,0.0,0.0,0.0,0.0,0.0,0.0,0.0,0.0,0.0,0.0,0.0,0.0,0.0,0.0,0.0,0.0,0.0,0.0,0.0,0.0,0.0,0.0,0.0,0.0,0.0,0.0,-1.9727,-1.9609,-1.9025,-1.8244,-1.7906,-1.7627,0.0,0.0,-1.7651,-1.8009,-1.8929,-1.8522,-1.7664,-1.7241,-1.593,-1.4819,-1.5634,0.0,0.0,-1.7599,-1.8395,-1.8948,-1.9706,-1.9995,-2.0332,-2.1199,-2.1375,-2.1543,-2.1982,-2.206,-2.2197,-2.2617,-2.2685,-2.275,-2.3052,-2.3091,-2.3091,-2.3091,-2.3091,-2.314,-2.3257,-2.3276,-2.3447,-2.3769,-2.4014,-2.4414,-2.5086,-2.5233,-2.54,-2.5674,-2.5693,-2.5693,-2.5693,-2.5693,-2.5693,-2.5693,-2.5693,-2.5693,-2.5693,-2.5693,-2.5693,-2.5693,-2.5693,-2.5693,-2.5693,-2.5693,-2.5693,-2.5693,-2.5693,-2.5693,-2.5693,-2.5693,-2.5693,-2.5693,0.0,0.0,0.0,0.0,0.0,0.0,0.0,0.0,0.0,0.0,0.0,0.0,0.0,0.0,0.0,0.0,0.0,0.0,0.0,0.0,0.0,0.0,0.0,0.0,0.0,0.0,0.0,0.0,0.0,0.0,0.0,0.0,0.0,0.0,0.0,0.0,0.0,0.0,0.0,0.0,0.0,0.0,-1.9268,-1.8802,-1.8192,-1.7567,-1.7737,0.0,0.0,0.0,-1.6855,-1.7089,-1.7305,-1.7466,0.0,-1.664,-1.5226,0.0,0.0,0.0,-1.6895,-1.841,-1.9932,-2.1111,-2.1151,-2.1483,-2.1836,-2.1865,-2.1865,-2.1992,-2.2412,-2.249,-2.2627,-2.3013,-2.3081,-2.3081,-2.3091,-2.3091,-2.3091,-2.3091,-2.3091,-2.3257,0.0,-2.3769,-2.3779,-2.3789,-2.4607,-2.5086,-2.5116,-2.5478,-2.5674,-2.5693,-2.5693,-2.5693,-2.5693,-2.5693,-2.5693,-2.5693,-2.5693,-2.5693,-2.5693,-2.5693,-2.5693,-2.5693,-2.5693,-2.5693,-2.5693,-2.5693,-2.5693,-2.5693,-2.5693,-2.5693,-2.5693,-2.5693,-2.5693,-2.5693,0.0,0.0,0.0,0.0,0.0,0.0,0.0,0.0,0.0,0.0,0.0,0.0,0.0,0.0,0.0,0.0,0.0,0.0,0.0,0.0,0.0,0.0,0.0,0.0,0.0,0.0,0.0,0.0,0.0,0.0,0.0,0.0,0.0,0.0,0.0,0.0,0.0,0.0,0.0,0.0,0.0,0.0,-1.8767,-1.8256,-1.7746,-1.7197,0.0,0.0,0.0,0.0,0.0,0.0,-1.7222,0.0,0.0,-1.5819,-1.5494,-1.5605,0.0,0.0,-1.8438,-2.002,-2.0817,-2.1268,-2.1602,-2.1553,-2.1533,-2.1826,-2.1254,-2.0818,-2.136,-2.1358,-2.148,-2.1945,-2.2414,-2.2822,-2.3052,-2.3091,-2.3091,-2.3091,-2.3344,0.0,0.0,0.0,0.0,-2.46,-2.4949,-2.5195,-2.5498,-2.5606,-2.5693,-2.5693,-2.5693,-2.5693,-2.5693,-2.5693,-2.5693,-2.5693,-2.5693,-2.5693,-2.5693,-2.5693,-2.5693,-2.5693,-2.5693,-2.5693,-2.5693,-2.5693,-2.5693,-2.5693,-2.5693,-2.5693,-2.5693,-2.5693,-2.5693,-2.5693,0.0,0.0,0.0,0.0,0.0,0.0,0.0,0.0,0.0,0.0,0.0,0.0,0.0,0.0,0.0,0.0,0.0,0.0,0.0,0.0,0.0,0.0,0.0,0.0,0.0,0.0,0.0,0.0,0.0,0.0,0.0,0.0,0.0,0.0,0.0,0.0,0.0,0.0,0.0,0.0,0.0,0.0,-1.776,-1.7398,-1.6995,0.0,0.0,0.0,0.0,0.0,0.0,0.0,0.0,-1.6145,-1.5724,-1.5652,-1.5814,-1.6328,0.0,-1.8681,-1.9385,-2.0846,-2.1424,-2.1728,-2.1855,-2.1787,-2.1728,-2.1865,-2.106,-2.0426,-2.0847,-2.0818,-2.0808,-2.0891,-2.1669,-2.2308,-2.2481,-2.2688,-2.2916,-2.3091,-2.3525,-2.3848,0.0,0.0,0.0,-2.5077,-2.5215,-2.543,-2.5674,-2.5693,-2.5693,-2.5693,-2.5693,-2.5693,-2.5693,-2.5693,-2.5693,-2.5693,-2.5693,-2.5693,-2.5693,-2.5693,-2.5693,-2.5693,-2.5693,-2.5693,-2.5693,-2.5693,-2.5693,-2.5693,-2.5693,-2.5693,-2.5693,-2.5693,-2.5693,-2.5693,0.0,0.0,0.0,0.0,0.0,0.0,0.0,0.0,0.0,0.0,0.0,0.0,0.0,0.0,0.0,0.0,0.0,0.0,0.0,0.0,0.0,0.0,0.0,0.0,0.0,0.0,0.0,0.0,0.0,0.0,0.0,0.0,0.0,0.0,0.0,0.0,0.0,0.0,0.0,0.0,0.0,0.0,-1.6306,-1.6271,0.0,0.0,0.0,0.0,0.0,0.0,0.0,0.0,0.0,0.0,-1.4977,-1.6049,-1.6196,-1.6431,-1.856,-1.9299,-1.9778,-2.0981,-2.1853,-2.2383,-2.2002,-2.2197,-2.2324,-2.1904,-2.124,-2.0764,0.0,0.0,-2.0555,-1.9976,-2.0924,-2.1736,-2.1583,-2.2017,-2.2589,0.0,0.0,0.0,0.0,0.0,0.0,-2.5145,0.0,-2.5693,-2.5693,-2.5693,-2.5693,-2.5693,-2.5693,-2.5693,-2.5693,-2.5693,-2.5693,-2.5693,-2.5693,-2.5693,-2.5693,-2.5693,-2.5693,-2.5693,-2.5693,-2.5693,-2.5693,-2.5693,-2.5693,-2.5693,-2.5693,-2.5693,-2.5693,-2.5693,-2.5693,-2.5693,0.0,0.0,0.0,0.0,0.0,0.0,0.0,0.0,0.0,0.0,0.0,0.0,0.0,0.0,0.0,0.0,0.0,0.0,0.0,0.0,0.0,0.0,0.0,0.0,0.0,0.0,0.0,0.0,0.0,0.0,0.0,0.0,0.0,0.0,0.0,0.0,0.0,0.0,0.0,0.0,0.0,0.0,-1.6499,0.0,0.0,0.0,0.0,0.0,0.0,0.0,0.0,0.0,0.0,0.0,-1.6739,-1.6263,0.0,-1.8428,-1.9329,-2.0133,-2.0959,-2.1919,-2.2119,-2.21,-2.2305,-2.1943,-2.1314,-2.0619,-1.9722,-1.8879,0.0,0.0,0.0,-1.9401,-2.0516,0.0,-2.2158,-2.2384,0.0,0.0,0.0,-2.4297,-2.4404,-2.5117,0.0,0.0,-2.5625,-2.5693,-2.5693,-2.5693,-2.5693,-2.5693,-2.5693,-2.5693,-2.5693,-2.5693,-2.5693,-2.5693,-2.5693,-2.5693,-2.5693,-2.5693,-2.5693,-2.5693,-2.5693,-2.5693,-2.5693,-2.5693,-2.5693,-2.5693,-2.5693,-2.5693,-2.5693,-2.5693,-2.5693,-2.5693,0.0,0.0,0.0,0.0,0.0,0.0,0.0,0.0,0.0,0.0,0.0,0.0,0.0,0.0,0.0,0.0,0.0,0.0,0.0,0.0,0.0,0.0,0.0,0.0,0.0,0.0,0.0,0.0,0.0,0.0,0.0,0.0,0.0,0.0,0.0,0.0,0.0,0.0,0.0,0.0,0.0,0.0,0.0,0.0,0.0,0.0,0.0,0.0,0.0,0.0,0.0,-1.6096,-1.5675,-1.6013,-1.6696,-1.7325,0.0,-1.867,-2.0016,-2.0901,-2.1631,-2.2119,-2.2197,-2.2035,-2.163,-2.1154,-2.0564,-1.9741,-1.8795,0.0,0.0,0.0,0.0,0.0,0.0,0.0,-2.1709,-2.2011,-2.2409,0.0,-2.3851,0.0,-2.4414,-2.5167,-2.5693,0.0,-2.5693,-2.5693,-2.5693,-2.5693,-2.5693,-2.5693,-2.5693,-2.5693,-2.5693,-2.5693,-2.5693,-2.5693,-2.5693,-2.5693,-2.5693,-2.5693,-2.5693,-2.5693,-2.5693,-2.5693,-2.5693,-2.5693,-2.5693,-2.5693,-2.5693,-2.5693,-2.5693,-2.5693,-2.5693,-2.5693,0.0,0.0,0.0,0.0,0.0,0.0,0.0,0.0,0.0,0.0,0.0,0.0,0.0,0.0,0.0,0.0,0.0,0.0,0.0,0.0,0.0,0.0,0.0,0.0,0.0,0.0,0.0,0.0,0.0,0.0,0.0,0.0,0.0,0.0,0.0,0.0,0.0,0.0,0.0,0.0,0.0,0.0,0.0,0.0,0.0,0.0,0.0,0.0,0.0,0.0,-1.607,-1.6272,-1.6122,-1.5786,-1.6026,-1.8578,-1.8568,-1.8214,-2.0558,-2.1514,-2.1816,-2.1875,-2.2119,-2.1971,-2.0636,-2.0298,-1.9987,-1.9082,0.0,-1.7764,-1.7851,0.0,-1.8416,-1.7893,0.0,-2.0492,-2.0884,-2.1433,-2.2117,-2.2911,-2.3857,-2.4414,-2.4414,-2.5167,-2.5693,-2.5693,-2.5693,-2.5693,-2.5693,-2.5693,-2.5693,-2.5693,-2.5693,-2.5693,-2.5693,-2.5693,-2.5693,-2.5693,-2.5693,-2.5693,-2.5693,-2.5693,-2.5693,-2.5693,-2.5693,-2.5693,-2.5693,-2.5693,-2.5693,-2.5693,-2.5693,-2.5693,-2.5693,-2.5693,-2.5693,-2.5693,0.0,0.0,0.0,0.0,0.0,0.0,0.0,0.0,0.0,0.0,-1.1025,-1.1453,0.0,0.0,0.0,0.0,0.0,0.0,0.0,0.0,0.0,0.0,0.0,0.0,0.0,0.0,0.0,0.0,0.0,0.0,0.0,0.0,0.0,0.0,0.0,0.0,0.0,0.0,0.0,0.0,0.0,0.0,0.0,0.0,0.0,0.0,0.0,0.0,0.0,0.0,-1.5673,-1.6494,-1.7144,-1.7016,-1.6946,-1.8596,-1.8897,-1.9116,-2.0764,-2.1249,-2.1395,-2.1797,-2.167,-2.1254,-2.0685,-2.0261,0.0,0.0,0.0,-1.7777,-1.7138,-1.7489,0.0,-1.8456,0.0,0.0,0.0,0.0,-2.2065,0.0,0.0,0.0,0.0,0.0,0.0,0.0,-2.5693,-2.5693,-2.5693,-2.5693,-2.5693,-2.5693,-2.5693,-2.5693,-2.5693,-2.5693,-2.5693,-2.5693,-2.5693,-2.5693,-2.5693,-2.5693,-2.5693,-2.5693,-2.5693,-2.5693,-2.5693,-2.5693,-2.5693,-2.5693,-2.5693,-2.5693,-2.5693,-2.5693,-2.5693,-2.5693,0.0,0.0,0.0,0.0,0.0,0.0,0.0,0.0,-1.1585,-1.1309,-1.1676,-1.1675,-1.0949,-1.1088,0.0,0.0,0.0,0.0,0.0,0.0,0.0,0.0,0.0,0.0,0.0,0.0,0.0,0.0,0.0,0.0,0.0,0.0,0.0,0.0,0.0,0.0,0.0,0.0,0.0,0.0,0.0,0.0,0.0,0.0,0.0,0.0,0.0,0.0,0.0,0.0,-1.5008,-1.5353,-1.6558,-1.6733,-1.6746,-1.7809,-1.8559,-1.9207,-2.0111,-2.0769,-2.1239,-2.1494,-2.1387,-2.0931,-1.9842,0.0,0.0,0.0,0.0,-1.7389,-1.6896,0.0,0.0,0.0,0.0,0.0,0.0,0.0,0.0,0.0,0.0,0.0,0.0,0.0,0.0,0.0,-2.5693,-2.5693,-2.5693,-2.5693,-2.5693,-2.5693,-2.5693,-2.5693,-2.5693,-2.5693,-2.5693,-2.5693,-2.5693,-2.5693,-2.5693,-2.5693,-2.5693,-2.5693,-2.5693,-2.5693,-2.5693,-2.5693,-2.5693,-2.5693,-2.5693,-2.5693,-2.5693,-2.5693,-2.5693,-2.5693,0.0,0.0,0.0,0.0,0.0,0.0,0.0,-1.2098,-1.2318,-1.1982,-1.2012,-1.1676,-1.063,-1.0824,-1.1089,0.0,0.0,0.0,0.0,0.0,0.0,0.0,0.0,0.0,0.0,0.0,0.0,0.0,0.0,0.0,0.0,0.0,0.0,0.0,0.0,0.0,0.0,0.0,0.0,0.0,0.0,0.0,0.0,0.0,0.0,0.0,0.0,0.0,0.0,0.0,-1.4474,-1.4185,-1.5437,-1.5734,-1.5803,-1.7004,-1.7989,-1.8793,-1.9349,-2.0254,-2.1094,-2.1094,-2.1094,-2.0678,-1.9136,-1.8745,0.0,0.0,-1.7056,-1.7131,-1.6964,0.0,0.0,0.0,0.0,0.0,0.0,0.0,0.0,0.0,0.0,0.0,0.0,0.0,0.0,0.0,-2.5693,-2.5693,-2.5693,-2.5693,-2.5693,-2.5693,-2.5693,-2.5693,-2.5693,-2.5693,-2.5693,-2.5693,-2.5693,-2.5693,-2.5693,-2.5693,-2.5693,-2.5693,-2.5693,-2.5693,-2.5693,-2.5693,-2.5693,-2.5693,-2.5693,-2.5693,-2.5693,-2.5693,-2.5693,-2.5693,0.0,0.0,0.0,0.0,0.0,0.0,0.0,-1.1554,-1.1741,-1.1413,-1.1806,-1.1942,-1.1511,-1.1502,-1.1547,0.0,0.0,0.0,0.0,0.0,0.0,0.0,0.0,0.0,0.0,0.0,0.0,0.0,0.0,0.0,0.0,0.0,0.0,0.0,0.0,0.0,0.0,0.0,0.0,0.0,0.0,0.0,0.0,0.0,0.0,0.0,0.0,0.0,0.0,0.0,0.0,-1.3923,-1.4484,-1.414,-1.4075,-1.671,0.0,0.0,-1.8784,-1.9861,-2.0664,-2.0664,-2.0664,-2.0342,-1.924,0.0,0.0,0.0,-1.7367,-1.7383,-1.735,-1.7237,0.0,0.0,0.0,0.0,0.0,0.0,0.0,0.0,0.0,0.0,0.0,0.0,0.0,0.0,-2.5693,-2.5693,-2.5693,-2.5693,-2.5693,-2.5693,-2.5693,-2.5693,-2.5693,-2.5693,-2.5693,-2.5693,-2.5693,-2.5693,-2.5693,-2.5693,-2.5693,-2.5693,-2.5693,-2.5693,-2.5693,-2.5693,-2.5693,-2.5693,-2.5693,-2.5693,-2.5693,-2.5693,-2.5693,-2.5693,0.0,0.0,0.0,0.0,0.0,0.0,-1.069,-1.1007,-1.1162,-1.0894,-1.0982,-1.1012,-1.0774,-1.0744,-1.1023,0.0,0.0,0.0,0.0,0.0,0.0,0.0,0.0,0.0,0.0,0.0,0.0,-1.1404,-1.1529,0.0,0.0,0.0,0.0,0.0,0.0,0.0,0.0,0.0,0.0,0.0,0.0,0.0,0.0,0.0,0.0,0.0,0.0,0.0,0.0,0.0,0.0,0.0,-1.3664,-1.3441,0.0,0.0,-1.6632,-1.7414,-1.8642,-1.9313,-1.9795,-2.044,-2.014,-1.9552,-1.893,0.0,0.0,-1.6982,-1.7162,-1.7326,-1.7095,-1.7154,-1.7383,0.0,0.0,0.0,0.0,0.0,0.0,0.0,0.0,0.0,0.0,0.0,0.0,0.0,-2.5693,-2.5693,-2.5693,-2.5693,-2.5693,-2.5693,-2.5693,-2.5693,-2.5693,-2.5693,-2.5693,-2.5693,-2.5693,-2.5693,-2.5693,-2.5693,-2.5693,-2.5693,-2.5693,-2.5693,-2.5693,-2.5693,-2.5693,-2.5693,-2.5693,-2.5693,-2.5693,-2.5693,-2.5693,-2.5654,0.0,0.0,0.0,0.0,0.0,-1.018,-1.0207,-1.0492,-1.0617,-1.042,-1.0386,-1.0344,-1.02,-1.02,-1.0493,-1.1261,0.0,0.0,0.0,0.0,0.0,0.0,0.0,0.0,0.0,0.0,-1.0937,-1.131,-1.131,-1.1379,0.0,0.0,0.0,0.0,0.0,0.0,0.0,0.0,0.0,0.0,0.0,0.0,0.0,0.0,0.0,0.0,0.0,0.0,0.0,0.0,0.0,0.0,0.0,0.0,0.0,0.0,-1.5615,-1.6707,-1.7754,-1.851,-1.9195,-1.9923,-1.962,-1.9056,0.0,0.0,0.0,-1.6828,-1.7097,-1.735,-1.7116,-1.725,-1.7473,0.0,0.0,0.0,0.0,0.0,0.0,0.0,0.0,0.0,0.0,0.0,0.0,-2.5635,-2.5693,-2.5693,-2.5693,-2.5693,-2.5693,-2.5693,-2.5693,-2.5693,-2.5693,-2.5693,-2.5693,-2.5693,-2.5693,-2.5693,-2.5693,-2.5693,-2.5693,-2.5693,-2.5693,-2.5693,-2.5693,-2.5693,-2.5693,-2.5693,-2.5693,-2.5606,-2.5537,-2.5537,-2.5411,-2.5255,0.0,0.0,0.0,0.0,0.0,0.0,0.0,-1.0021,-1.0146,-0.992,-1.02,-1.0344,-1.02,-1.02,-1.0207,-1.0207,0.0,0.0,0.0,0.0,0.0,0.0,0.0,0.0,0.0,0.0,-1.0151,-1.0624,-1.0673,-1.0918,-1.1303,-1.1498,-1.1498,0.0,0.0,0.0,0.0,0.0,0.0,0.0,0.0,0.0,0.0,0.0,0.0,0.0,0.0,0.0,0.0,0.0,0.0,0.0,0.0,0.0,0.0,0.0,-1.4615,-1.5475,-1.5771,-1.7389,-1.8997,-1.8997,-1.9077,-1.9094,0.0,0.0,0.0,-1.735,-1.7392,-1.7473,-1.7651,-1.7546,-1.7473,-1.7659,0.0,0.0,0.0,0.0,0.0,0.0,0.0,0.0,0.0,0.0,0.0,-2.5654,-2.5693,0.0,-2.5693,-2.5693,-2.5693,-2.5693,-2.5693,-2.5693,-2.5693,-2.5693,-2.5693,-2.5693,-2.5693,-2.5693,-2.5693,-2.5693,-2.5693,-2.5693,-2.5693,-2.5693,-2.5693,-2.5693,-2.5693,-2.5693,-2.5693,-2.5469,-2.5125,-2.5125,-2.4805,-2.4424,0.0,0.0,0.0,0.0,0.0,0.0,0.0,-0.9724,-0.959,-0.9438,-0.9342,-0.9296,-0.9241,-0.9248,-0.916,-0.899,0.0,0.0,0.0,0.0,0.0,0.0,0.0,0.0,0.0,0.0,-0.9879,-1.0118,-1.0454,-1.0812,-1.1153,-1.1216,-1.1341,-1.1498,-1.1622,0.0,0.0,0.0,0.0,0.0,0.0,0.0,0.0,0.0,0.0,0.0,0.0,0.0,0.0,0.0,0.0,0.0,0.0,0.0,0.0,0.0,0.0,0.0,-1.6097,-1.6671,-1.6965,-1.782,-1.7537,-1.7197,-1.7648,0.0,-1.6563,-1.7268,-1.7392,-1.7514,-1.7829,-1.7505,-1.7343,-1.7829,-1.7635,0.0,0.0,0.0,0.0,0.0,0.0,0.0,0.0,0.0,0.0,-2.5654,-2.5693,-2.5693,-2.5693,-2.5693,-2.5693,-2.5693,-2.5693,-2.5693,-2.5693,-2.5693,-2.6159,-2.6993,-2.611,-2.661,-2.8215,-2.7352,-2.7447,-2.8215,-2.8215,-2.7757,-2.6962,-2.6654,-2.6013,-2.5254,-2.4951,-2.4746,-2.4619,-2.4619,-2.4531,-2.4375,0.0,0.0,0.0,0.0,0.0,0.0,0.0,-0.9603,-0.9361,-0.9211,-0.8962,-0.8804,-0.8804,-0.8752,-0.8666,-0.8501,0.0,0.0,0.0,0.0,0.0,0.0,0.0,0.0,0.0,-0.9346,-0.9512,-0.9736,-1.0061,-1.041,-1.0807,-1.076,-1.0978,-1.1397,-1.1374,0.0,0.0,0.0,0.0,0.0,0.0,0.0,-1.2298,0.0,0.0,0.0,0.0,0.0,0.0,0.0,0.0,0.0,0.0,0.0,0.0,0.0,-1.2803,0.0,0.0,-1.5753,-1.5904,-1.6771,-1.6536,0.0,0.0,0.0,-1.6244,-1.715,-1.7414,-1.7627,-1.7959,-1.7587,-1.7424,-1.8031,0.0,0.0,0.0,0.0,0.0,0.0,0.0,0.0,0.0,0.0,-2.501,-2.5449,-2.5596,-2.5693,-2.5693,-2.5693,-2.5693,-2.5693,-2.5693,-2.5693,-2.5693,-2.5693,-2.611,-2.6849,-2.6062,-2.6754,-2.868,-2.7955,-2.7896,-2.8453,-2.8453,-2.7665,0.0,-2.6069,-2.5494,-2.4795,-2.4521,-2.4316,-2.418,-2.418,-2.4072,-2.3851,0.0,0.0,0.0,0.0,0.0,0.0,0.0,0.0,-0.9361,-0.9211,-0.8962,-0.8804,-0.8804,-0.8685,-0.86,-0.8573,0.0,0.0,0.0,0.0,0.0,0.0,0.0,0.0,0.0,-0.8839,-0.9013,-0.937,-0.9482,-0.9747,-1.0236,-1.0159,-1.0448,-1.1013,-1.0929,-1.123,-1.1833,-1.212,-1.2274,-1.2336,-1.2498,-1.2467,0.0,0.0,0.0,0.0,0.0,0.0,0.0,0.0,0.0,0.0,0.0,0.0,0.0,0.0,0.0,0.0,0.0,0.0,0.0,0.0,0.0,0.0,0.0,0.0,0.0,-1.6983,-1.7439,-1.7732,-1.7917,-1.7619,-1.7554,-1.8282,0.0,0.0,0.0,0.0,0.0,0.0,0.0,0.0,0.0,-2.3761,-2.4551,-2.5037,-2.541,-2.5596,-2.5596,-2.5596,-2.5596,-2.5596,-2.5596,-2.5625,-2.5693,-2.5693,-2.5732,-2.583,-2.5732,-2.6418,-2.7678,-2.7584,-2.7331,-2.6971,-2.6971,-2.6054,-2.4542,-2.4513,-2.4411,-2.4365,-2.4336,-2.4082,-2.374,-2.374,-2.3486,-2.3091,0.0,0.0,0.0,0.0,0.0,0.0,0.0,0.0,0.0,0.0,-0.8962,-0.8804,-0.8804,-0.8685,-0.8547,0.0,0.0,0.0,0.0,0.0,0.0,0.0,0.0,0.0,-0.7982,-0.8069,-0.8184,-0.8265,-0.8587,-0.9009,-0.9451,-0.9446,-0.9689,-1.0116,-1.0557,-1.1138,-1.1809,-1.1864,-1.2081,-1.2305,-1.2336,-1.2436,0.0,0.0,0.0,0.0,-1.2089,-1.223,0.0,0.0,0.0,0.0,0.0,0.0,0.0,0.0,-1.2562,-1.2987,-1.3286,0.0,-1.455,0.0,0.0,0.0,0.0,0.0,0.0,0.0,0.0,0.0,0.0,0.0,0.0,0.0,0.0,0.0,0.0,0.0,0.0,0.0,0.0,0.0,0.0,-2.3489,-2.4111,-2.4531,-2.4668,-2.4727,-2.4727,-2.4727,-2.4727,-2.4727,-2.4727,-2.5011,-2.5684,-2.5693,-2.6207,-2.7125,-2.6149,-2.6713,-2.8463,-2.7505,-2.734,-2.7811,-2.7811,-2.7082,-2.5837,-2.5485,-2.4784,-2.3906,-2.3574,-2.3335,-2.3247,-2.3247,-2.3179,-2.3091,0.0,0.0,0.0,0.0,0.0,0.0,0.0,0.0,0.0,0.0,0.0,0.0,0.0,0.0,0.0,0.0,0.0,0.0,0.0,0.0,0.0,0.0,0.0,-0.8086,-0.8061,-0.8257,-0.8293,-0.8184,-0.8556,-0.8769,-0.8886,-0.9107,-0.947,-1.0005,-1.0765,-1.1338,-1.1709,-1.1771,-1.1965,-1.2212,-1.2274,0.0,0.0,0.0,0.0,0.0,-1.2296,-1.2345,0.0,-1.2201,-1.2243,-1.2338,0.0,0.0,0.0,0.0,-1.2497,-1.2936,-1.3163,-1.3557,-1.4029,-1.4425,-1.4497,-1.4588,0.0,0.0,0.0,0.0,0.0,0.0,0.0,0.0,0.0,0.0,0.0,0.0,0.0,0.0,0.0,0.0,0.0,0.0,0.0,-2.3914,-2.4609,-2.4851,-2.553,-2.5688,-2.5219,-2.5174,-2.5174,-2.5174,-2.5174,-2.5149,-2.5079,-2.5079,-2.5449,-2.6123,-2.5449,-2.6001,-2.7632,-2.6958,-2.6747,-2.6944,-2.6944,-2.6127,-2.4795,-2.455,-2.4075,-2.3467,-2.3188,-2.3091,-2.3091,-2.3091,-2.3091,-2.3178,0.0,0.0,0.0,0.0,0.0,0.0,0.0,0.0,0.0,0.0,0.0,0.0,0.0,0.0,0.0,0.0,0.0,0.0,0.0,0.0,0.0,0.0,0.0,-0.8308,-0.8413,-0.8634,-0.8613,-0.8393,-0.8677,-0.8724,-0.851,-0.8935,-0.9522,-1.0231,-1.1031,-1.1454,-1.1529,-1.1685,-1.184,-1.2027,-1.2182,0.0,0.0,0.0,0.0,0.0,0.0,0.0,0.0,-1.235,-1.2205,-1.1949,-1.1854,0.0,0.0,0.0,0.0,0.0,-1.3046,-1.3528,-1.4,-1.4325,-1.4389,-1.4425,0.0,0.0,0.0,0.0,0.0,0.0,0.0,0.0,0.0,0.0,0.0,0.0,0.0,0.0,0.0,0.0,0.0,0.0,-2.3371,-2.4571,-2.5396,-2.5569,-2.678,-2.714,-2.6205,-2.6161,-2.6161,-2.6161,-2.6161,-2.5682,-2.4746,-2.483,-2.49,-2.49,-2.49,-2.5431,-2.6423,-2.6423,-2.6158,-2.5754,-2.5754,-2.4949,-2.3637,-2.3637,-2.3637,-2.3637,-2.3637,-2.3637,-2.3637,-2.3637,-2.3637,-2.3767,0.0,0.0,0.0,0.0,0.0,0.0,0.0,0.0,0.0,0.0,0.0,0.0,0.0,0.0,0.0,0.0,0.0,0.0,0.0,0.0,0.0,0.0,-0.8205,-0.815,-0.7988,-0.8024,-0.7988,-0.7814,-0.7988,-0.8245,-0.8605,-0.8767,-0.9333,-1.0218,-1.0356,-1.0698,-1.1185,-1.131,-1.149,-1.1685,-1.1809,0.0,0.0,0.0,0.0,0.0,0.0,0.0,0.0,-1.1982,-1.1885,-1.171,-1.1605,0.0,0.0,0.0,0.0,0.0,-1.2673,-1.3571,-1.4474,-1.4425,-1.4389,-1.4425,0.0,0.0,0.0,0.0,0.0,0.0,0.0,0.0,0.0,0.0,0.0,0.0,0.0,0.0,0.0,0.0,0.0,-2.3561,-2.4976,-2.4987,-2.5285,-2.6252,-2.6526,-2.6613,-2.6457,-2.6457,-2.6457,-2.6457,-2.6457,-2.6373,-2.6195,-2.6856,-2.7206,-2.7206,-2.7206,-2.714,-2.696,-2.696,-2.6747,-2.6376,-2.6376,-2.6207,-2.5975,-2.5975,-2.5975,-2.5975,-2.5975,-2.5975,-2.5975,-2.5975,-2.5975,-2.6016,0.0,0.0,0.0,0.0,0.0,0.0,0.0,0.0,0.0,0.0,0.0,0.0,0.0,0.0,0.0,0.0,0.0,0.0,0.0,0.0,0.0,-0.8195,-0.8195,-0.8195,-0.8162,-0.8162,-0.8102,-0.7913,-0.8166,-0.8333,-0.8455,-0.9088,-0.9768,-1.0423,-1.0609,-1.0777,-1.0965,-1.1122,-1.1247,-1.1341,0.0,0.0,0.0,0.0,0.0,0.0,0.0,0.0,0.0,0.0,-1.1732,-1.1462,-1.1296,0.0,0.0,0.0,0.0,0.0,-1.2511,-1.3345,-1.4238,-1.4597,-1.5165,-1.5674,0.0,0.0,0.0,0.0,0.0,0.0,0.0,0.0,0.0,0.0,0.0,0.0,0.0,0.0,0.0,0.0,0.0,-2.456,-2.5913,-2.6345,-2.6819,-2.7331,-2.7959,-2.7999,-2.7412,-2.736,-2.736,-2.736,-2.736,-2.7666,-2.8303,-2.8636,-2.8232,-2.7048,-2.7048,-2.6937,-2.6766,-2.6766,-2.6685,-2.6524,-2.6524,-2.6524,-2.6524,-2.6524,-2.6524,-2.6524,-2.6524,-2.6524,-2.6524,-2.6524,-2.6671,-2.6835,0.0,0.0,0.0,0.0,0.0,0.0,0.0,0.0,0.0,0.0,0.0,0.0,0.0,0.0,0.0,0.0,0.0,0.0,0.0,0.0,-0.8008,-0.8115,-0.8109,-0.8162,-0.8348,-0.8385,-0.8306,-0.8157,-0.8464,-0.8605,-0.8616,-0.9541,-1.0161,-1.0466,-1.0776,-1.0807,-1.0618,-1.0839,-1.0902,-1.0933,0.0,0.0,0.0,0.0,0.0,0.0,0.0,0.0,0.0,0.0,0.0,0.0,0.0,0.0,0.0,-1.0739,-1.1413,-1.2226,-1.2339,-1.3207,-1.4245,-1.4724,0.0,-1.6297,0.0,0.0,0.0,0.0,0.0,0.0,0.0,0.0,0.0,0.0,0.0,0.0,0.0,0.0,-2.237,-2.3652,-2.4465,-2.5491,-2.6933,-2.7599,-2.8084,-2.8466,-2.9326,-2.9417,-2.8557,-2.8518,-2.8518,-2.8518,-2.8518,-2.8937,-2.9792,-2.9792,-2.8961,-2.7261,-2.7261,-2.7261,-2.7261,-2.7261,-2.7261,-2.7261,-2.7261,-2.7261,-2.7261,-2.7261,-2.7261,-2.7261,-2.7261,-2.7192,-2.7065,-2.691,-2.7125,-2.7375,0.0,0.0,0.0,0.0,0.0,0.0,0.0,0.0,0.0,0.0,0.0,0.0,0.0,0.0,0.0,0.0,0.0,0.0,0.0,0.0,-0.8115,-0.7928,-0.7809,-0.7889,-0.8221,-0.8279,-0.8295,-0.8291,-0.856,-0.8967,-0.9523,-1.0019,-1.0193,-1.0047,-1.0269,-1.0244,-1.0079,-1.0269,-1.0371,-1.0364,-1.0561,0.0,0.0,0.0,0.0,0.0,0.0,0.0,0.0,0.0,0.0,0.0,0.0,0.0,-1.0414,-1.0628,-1.1404,-1.2155,-1.1977,-1.347,-1.5018,-1.4716,0.0,0.0,0.0,0.0,0.0,0.0,0.0,0.0,0.0,0.0,0.0,0.0,0.0,0.0,0.0,0.0,-2.3926,-2.5424,-2.558,-2.639,-2.8524,-2.7898,-2.7987,-2.9574,-2.9753,-2.9753,-2.9663,-2.9663,-2.9663,-2.9663,-2.9663,-2.9702,-2.9792,-2.9792,-2.9714,-2.9546,-2.9546,-2.9546,-2.9546,-2.9546,-2.9546,-2.9546,-2.9546,-2.9546,-2.9546,-2.9546,-2.9546,-2.9546,-2.9546,-2.9222,-2.8687,-2.8176,-2.8001,-2.805,0.0,0.0,0.0,0.0,0.0,0.0,0.0,0.0,0.0,0.0,0.0,0.0,0.0,0.0,0.0,0.0,0.0,0.0,0.0,0.0,-0.7949,-0.7783,-0.7815,-0.7842,-0.7889,-0.7904,-0.8034,-0.8248,-0.8659,-0.9064,-0.9417,-0.9812,-0.983,-0.9594,-0.9951,-1.0021,-0.9894,-0.9964,-0.9989,-0.9989,-1.0053,-1.0085,0.0,0.0,0.0,0.0,0.0,0.0,0.0,0.0,-1.089,-1.0956,0.0,0.0,-1.0368,-1.0474,-1.1051,-1.1703,-1.2067,-1.3485,-1.4881,-1.4811,0.0,0.0,0.0,0.0,0.0,0.0,0.0,0.0,0.0,0.0,0.0,0.0,0.0,0.0,0.0,-2.3818,-2.4775,-2.5682,-2.6323,-2.7125,-2.8311,-2.8027,-2.8064,-2.8687,-2.875,-2.875,-2.875,-2.875,-2.875,-2.875,-2.9076,-2.9252,-2.9252,-2.9252,-2.9252,-2.9252,-2.9616,-2.9792,-2.9792,-2.9792,-2.9792,-2.9792,-2.9792,-2.9792,-2.9767,-2.9402,-2.9252,-2.9227,-2.8875,-2.8612,-2.8398,-2.8185,-2.7896,-2.751,0.0,0.0,0.0,0.0,0.0,0.0,0.0,0.0,0.0,0.0,0.0,0.0,0.0,0.0,0.0,0.0,0.0,0.0,-0.7901,-0.7869,-0.7815,-0.7756,-0.7735,-0.7708,-0.7696,-0.7622,-0.7809,-0.8335,-0.8805,-0.9119,-0.9346,-0.9532,-0.9504,-0.9306,-0.9626,-0.9696,-0.9542,-0.9542,-0.9542,-0.9542,-0.9606,-0.9589,0.0,0.0,0.0,0.0,0.0,0.0,0.0,0.0,0.0,0.0,0.0,0.0,0.0,0.0,-1.1016,-1.1994,-1.2378,-1.3671,-1.4987,0.0,0.0,0.0,0.0,0.0,0.0,0.0,0.0,0.0,0.0,0.0,0.0,0.0,0.0,0.0,-2.3818,-2.4564,-2.5242,-2.5948,-2.6639,-2.7278,-2.7795,-2.7846,-2.7921,-2.8097,-2.8109,-2.8109,-2.8109,-2.8109,-2.8109,-2.8109,-2.8473,-2.8662,-2.8662,-2.8662,-2.8662,-2.8637,-2.9076,-2.9264,-2.9264,-2.9264,-2.9264,-2.9264,-2.9264,-2.9264,-2.9227,-2.8837,-2.8662,-2.8574,-2.8059,-2.7846,-2.7821,-2.7657,-2.7344,-2.6947,0.0,0.0,0.0,0.0,0.0,0.0,0.0,0.0,0.0,0.0,0.0,0.0,0.0,0.0,0.0,0.0,0.0,0.0,-0.7901,-0.7783,-0.7756,-0.7901,-0.7526,-0.7419,-0.7696,-0.7446,-0.7734,-0.8599,-0.8932,-0.9199,-0.9377,-0.932,-0.9306,-0.9306,-0.9306,-0.9177,-0.8985,-0.8985,-0.8985,-0.9011,-0.9204,-0.9147,-0.8946,0.0,0.0,0.0,0.0,0.0,0.0,0.0,0.0,0.0,0.0,0.0,0.0,0.0,-1.1477,-1.3145,-1.2945,-1.4172,0.0,0.0,0.0,0.0,0.0,0.0,0.0,0.0,0.0,0.0,0.0,0.0,0.0,0.0,-2.3368,-2.3854,-2.4862,-2.5004,-2.537,-2.6383,-2.6499,-2.6713,-2.7218,-2.7268,-2.7507,-2.8047,-2.8084,-2.8084,-2.8084,-2.8084,-2.8084,-2.8084,-2.8097,-2.8097,-2.8097,-2.8097,-2.8097,-2.8097,-2.8097,-2.8097,-2.8109,-2.8109,-2.8109,-2.8109,-2.8109,-2.8109,-2.8109,-2.8097,-2.8097,-2.8034,-2.7494,-2.7268,-2.7241,-2.67,-2.6499,-2.6499,0.0,0.0,0.0,0.0,0.0,0.0,0.0,0.0,0.0,0.0,0.0,0.0,0.0,0.0,0.0,0.0,0.0,0.0,-0.7901,-0.7869,-0.7815,-0.7756,-0.7735,-0.7708,-0.7696,-0.7911,-0.8134,-0.8375,-0.8637,-0.883,-0.8983,-0.9052,-0.9055,-0.8958,-0.9049,-0.9049,-0.8985,-0.8985,-0.8983,-0.8916,-0.8885,-0.8765,-0.8681,0.0,0.0,0.0,0.0,0.0,0.0,0.0,0.0,0.0,0.0,0.0,0.0,-1.04,-1.1123,-1.1946,-1.2239,0.0,0.0,0.0,0.0,0.0,0.0,0.0,0.0,0.0,0.0,0.0,0.0,0.0,0.0,-2.3851,-2.4236,-2.4898,-2.5908,-2.606,-2.6176,-2.6452,-2.6499,-2.6562,-2.6725,-2.6738,-2.6801,-2.6964,-2.6977,-2.6977,-2.6977,-2.6977,-2.6977,-2.6977,-2.7318,-2.7532,-2.7532,-2.7532,-2.7532,-2.7519,-2.7165,-2.7356,-2.8109,-2.8109,-2.8109,-2.8109,-2.8109,-2.8109,-2.8072,-2.7682,-2.7293,-2.6964,-2.6801,-2.6738,-2.6713,-2.6549,-2.6499,-2.6499,0.0,0.0,0.0,0.0,0.0,0.0,0.0,0.0,0.0,0.0,0.0,0.0,0.0,0.0,0.0,0.0,0.0,0.0,0.0,-0.7788,-0.7735,-0.7696,-0.7622,-0.762,-0.7691,-0.7985,-0.8218,-0.8344,-0.8516,-0.8725,-0.8906,-0.8849,-0.8802,-0.8802,-0.8802,-0.8861,-0.892,-0.8755,-0.8688,-0.8671,-0.8512,-0.8531,-0.8658,0.0,0.0,0.0,0.0,0.0,0.0,0.0,0.0,0.0,0.0,0.0,0.0,-1.1008,-1.1553,-1.2206,-1.3355,0.0,0.0,0.0,0.0,0.0,0.0,0.0,0.0,0.0,0.0,0.0,0.0,0.0,0.0,-2.5109,-2.5375,-2.5804,-2.6418,-2.6499,-2.6499,-2.6499,-2.6499,-2.6499,-2.6499,-2.6499,-2.6499,-2.6499,-2.6499,-2.6499,-2.6499,-2.6499,-2.6499,-2.6499,-2.6813,-2.6989,-2.6989,-2.6989,-2.6989,-2.6989,-2.665,-2.6839,-2.7457,-2.7457,-2.7457,-2.7457,-2.7457,-2.7457,-2.7419,-2.7128,-2.6788,-2.6499,-2.6499,-2.6499,-2.6499,-2.6499,-2.6499,-2.6499,0.0,0.0,0.0,0.0,0.0,0.0,0.0,0.0,0.0,0.0,0.0,0.0,0.0,0.0,0.0,0.0,0.0,0.0,0.0,0.0,-0.7595,-0.7696,-0.7321,-0.7307,-0.7723,-0.783,-0.8073,-0.844,-0.8559,-0.875,-0.9051,-0.8665,-0.8608,-0.8802,-0.8608,-0.8641,-0.8786,-0.841,-0.8337,-0.8449,-0.8252,-0.8445,-0.8887,-0.9301,0.0,0.0,0.0,0.0,0.0,0.0,0.0,0.0,0.0,0.0,0.0,-1.1514,-1.2317,-1.3316,0.0,0.0,0.0,0.0,0.0,0.0,0.0,0.0,0.0,0.0,0.0,0.0,0.0,0.0,-2.6499,-2.6499,-2.6499,-2.6499,-2.6499,-2.6499,-2.6499,-2.6499,-2.6499,-2.6499,-2.6499,-2.6499,-2.6499,-2.6499,-2.6499,-2.6499,-2.6499,-2.6499,-2.6499,-2.6499,-2.6499,-2.6499,-2.6499,-2.6499,-2.6499,-2.6499,-2.6499,-2.6499,-2.6499,-2.6499,-2.6499,-2.6499,-2.6499,-2.6499,-2.6499,-2.6499,-2.6499,-2.6499,-2.6499,-2.6499,-2.6499,-2.6499,-2.6499,-2.6499,0.0,0.0,0.0,0.0,0.0,0.0,0.0,0.0,0.0,0.0,0.0,0.0,0.0,0.0,0.0,0.0,0.0,0.0,0.0,0.0,-0.7788,-0.7696,-0.7321,-0.7389,-0.8016,-0.7797,-0.8034,-0.88,-0.8676,-0.8623,-0.8628,-0.8554,-0.8608,-0.8802,-0.8738,-0.8829,-0.8941,-0.8692,-0.8738,-0.8924,-0.8729,-0.8857,-0.9269,-0.9807,-1.01,0.0,0.0,0.0,0.0,0.0,0.0,0.0,-0.9964,-1.0174,-1.0409,-1.0876,-1.1936,0.0,0.0,0.0,0.0,0.0,0.0,0.0,0.0,0.0,0.0,0.0,0.0,0.0,0.0,-2.6499,-2.6499,-2.6499,-2.6499,-2.6499,-2.6499,-2.6499,-2.6499,-2.6499,-2.6499,-2.6499,-2.6499,-2.6499,-2.6499,-2.6499,-2.6499,-2.6499,-2.6499,-2.6499,-2.6499,-2.6499,-2.6499,-2.6499,-2.6499,-2.6499,-2.6499,-2.6499,-2.6499,-2.6499,-2.6499,-2.6499,-2.6499,-2.6499,-2.6499,-2.6499,-2.6499,-2.6499,-2.6499,-2.6499,-2.6499,-2.6499,-2.6499,-2.6499,-2.6499,-2.6499,0.0,0.0,0.0,0.0,0.0,0.0,0.0,0.0,0.0,0.0,0.0,0.0,0.0,0.0,0.0,0.0,0.0,0.0,0.0,0.0,-0.7574,-0.7241,-0.7085,-0.7279,-0.7838,-0.776,-0.8089,-0.886,-0.8677,-0.862,0.0,0.0,-0.8544,-0.8641,-0.8641,-0.8703,-0.8802,-0.8739,-0.8821,-0.9046,-0.8977,-0.9284,-0.9857,-1.0094,-1.0279,-1.0416,-1.0693,0.0,0.0,0.0,0.0,0.0,0.0,0.0,-1.0708,-1.1577,-1.2065,-1.2798,0.0,0.0,0.0,0.0,0.0,0.0,0.0,0.0,0.0,0.0,0.0,0.0,0.0,-2.6499,-2.6499,-2.6499,-2.6499,-2.6499,-2.6499,-2.6499,-2.6499,-2.6499,-2.6499,-2.6499,-2.6499,-2.6499,-2.6499,-2.6499,-2.6499,-2.6499,-2.6499,-2.6499,-2.6499,-2.6499,-2.6499,-2.6499,-2.6499,-2.6499,-2.6499,-2.6499,-2.6499,-2.6499,-2.6499,-2.6499,-2.6499,-2.6499,-2.6499,-2.6499,-2.6499,-2.6499,-2.6499,-2.6499,-2.6499,-2.6499,-2.6499,-2.6499,-2.6499,-2.6499,0.0,0.0,0.0,0.0,0.0,0.0,0.0,0.0,0.0,0.0,0.0,0.0,0.0,0.0,0.0,0.0,0.0,0.0,0.0,0.0,0.0,-0.6788,-0.6793,-0.706,-0.7631,-0.7634,-0.8003,-0.8773,-0.8592,0.0,0.0,0.0,0.0,-0.8544,-0.8457,-0.8544,-0.8765,-0.8715,-0.8938,-0.9288,-0.9296,-0.9824,-1.0562,-1.0478,-1.0616,-1.086,-1.1,-1.0562,-0.9979,-1.0403,0.0,0.0,0.0,0.0,-1.1038,-1.2251,-1.2334,-1.279,0.0,0.0,0.0,0.0,0.0,0.0,0.0,0.0,0.0,0.0,0.0,0.0,-2.6223,-2.6348,-2.6386,-2.6474,-2.6499,-2.6499,-2.6499,-2.6499,-2.6499,-2.6499,-2.6499,-2.6499,-2.6499,-2.6499,-2.6499,-2.6499,-2.6499,-2.6499,-2.6499,-2.6499,-2.6499,-2.6499,-2.6499,-2.6499,-2.6499,-2.6499,-2.6499,-2.6499,-2.6499,-2.6499,-2.6499,-2.6499,-2.6499,-2.6499,-2.6499,-2.6499,-2.6499,-2.6499,-2.6499,-2.6499,-2.6499,-2.6499,-2.6499,-2.6499,-2.6499,-2.6499,0.0,0.0,0.0,0.0,0.0,0.0,0.0,0.0,0.0,0.0,0.0,0.0,0.0,0.0,0.0,0.0,0.0,0.0,-0.7901,0.0,0.0,-0.7058,-0.668,-0.6865,-0.776,-0.7215,-0.7485,-0.8635,0.0,0.0,0.0,0.0,0.0,-0.8753,0.0,0.0,0.0,0.0,-0.9405,-1.039,-1.0262,-1.0611,-1.1207,-1.1339,-1.1565,-1.175,-1.1329,-1.1389,-1.1546,-1.0896,-1.0765,0.0,0.0,0.0,-1.0877,-1.1234,-1.2216,0.0,0.0,0.0,0.0,0.0,0.0,0.0,0.0,0.0,0.0,0.0,0.0,0.0,-2.5523,-2.5711,-2.5908,-2.6411,-2.6499,-2.6499,-2.6499,-2.6499,-2.6499,-2.6499,-2.6499,-2.6499,-2.6499,-2.6499,-2.6499,-2.6499,-2.6499,-2.6499,-2.6499,-2.6499,-2.6499,-2.6499,-2.6499,-2.6499,-2.6499,-2.6499,-2.6499,-2.6499,-2.6499,-2.6499,-2.6499,-2.6499,-2.6499,-2.6499,-2.6499,-2.6499,-2.6499,-2.6499,-2.6499,-2.6499,-2.6499,-2.6499,-2.6499,-2.6499,-2.6499,-2.6499,0.0,0.0,0.0,0.0,0.0,0.0,0.0,0.0,0.0,0.0,0.0,0.0,0.0,0.0,0.0,-0.7889,-0.7632,-0.7451,-0.7456,-0.7279,-0.7004,-0.662,-0.6463,-0.6643,-0.7128,-0.7065,-0.7428,-0.8253,0.0,0.0,0.0,-0.7806,-0.7912,0.0,0.0,0.0,0.0,0.0,0.0,-1.066,-1.0773,-1.1719,-1.2969,-1.1987,-1.234,-1.3234,-1.2277,-1.1898,-1.1853,-1.1751,-1.1472,-1.1172,-1.1134,0.0,0.0,0.0,-1.2056,0.0,0.0,0.0,0.0,0.0,0.0,0.0,0.0,0.0,0.0,0.0,0.0,-2.3822,-2.4958,-2.5159,-2.5247,-2.5498,-2.5787,-2.6009,-2.6009,-2.6285,-2.6499,-2.6499,-2.6499,-2.6499,-2.6499,-2.6499,-2.6499,-2.6499,-2.6499,-2.6499,-2.6499,-2.6499,-2.6499,-2.6499,-2.6499,-2.6499,-2.6499,-2.6499,-2.6499,-2.6499,-2.6499,-2.6499,-2.6499,-2.6499,-2.6499,-2.6499,-2.6499,-2.6499,-2.6499,-2.6499,-2.6499,-2.6499,-2.6499,-2.6499,-2.6499,-2.6499,-2.6499,-2.6499,0.0,0.0,0.0,0.0,0.0,0.0,0.0,0.0,0.0,0.0,0.0,0.0,0.0,0.0,0.0,0.0,-0.7263,-0.7002,-0.6951,-0.6865,-0.6651,-0.6263,-0.6354,-0.6511,-0.6758,-0.6987,-0.741,0.0,0.0,0.0,-0.7867,-0.7795,-0.779,0.0,-0.8317,0.0,0.0,0.0,0.0,0.0,0.0,-1.2953,-1.44,-1.3453,-1.3998,-1.5062,-1.3681,-1.3033,-1.2822,-1.26,-1.2137,-1.1657,-1.1504,-1.1231,0.0,0.0,0.0,0.0,0.0,0.0,0.0,0.0,0.0,0.0,0.0,0.0,0.0,0.0,0.0,-2.3358,-2.4211,-2.4474,-2.4625,-2.4763,-2.5146,-2.5398,-2.5398,-2.5774,-2.6084,-2.6084,-2.6084,-2.6084,-2.6084,-2.6084,-2.6084,-2.6084,-2.6084,-2.6084,-2.6084,-2.6197,-2.6273,-2.6273,-2.6411,-2.6499,-2.6499,-2.6499,-2.6499,-2.6499,-2.6499,-2.6499,-2.6499,-2.6499,-2.6499,-2.6499,-2.6499,-2.6499,-2.6499,-2.6499,-2.6499,-2.6499,-2.6499,-2.6499,-2.6499,-2.6499,-2.6499,-2.6499,0.0,0.0,0.0,0.0,0.0,0.0,0.0,0.0,0.0,0.0,0.0,0.0,-0.7451,-0.741,-0.7253,-0.6897,-0.6838,-0.6734,-0.6545,-0.6535,-0.6477,-0.6399,-0.6381,0.0,-0.7146,-0.7005,0.0,0.0,0.0,0.0,-0.7539,-0.8166,-0.83,-0.7999,-0.8017,-0.8741,-0.9926,0.0,0.0,0.0,0.0,0.0,0.0,0.0,-1.7325,-1.7399,-1.5595,-1.5274,-1.5357,-1.3208,-1.26,-1.2542,-1.161,-1.1376,-1.143,0.0,0.0,0.0,0.0,0.0,0.0,0.0,0.0,0.0,0.0,0.0,0.0,0.0,0.0,-2.312,-2.3183,-2.3665,-2.4217,-2.4713,-2.4813,-2.4825,-2.4825,-2.4863,-2.4876,-2.4876,-2.4876,-2.4876,-2.4876,-2.4876,-2.4876,-2.4876,-2.4876,-2.4876,-2.4876,-2.5372,-2.5636,-2.5636,-2.621,-2.6499,-2.6499,-2.6499,-2.6499,-2.6499,-2.6499,-2.6499,-2.6499,-2.6499,-2.6499,-2.6499,-2.6499,-2.6499,-2.6499,-2.6499,-2.6499,-2.6499,-2.6499,-2.6499,-2.6499,-2.6499,-2.6499,-2.6499,0.0,0.0,0.0,0.0,0.0,0.0,0.0,0.0,0.0,0.0,0.0,0.0,0.0,-0.6852,-0.6942,-0.7394,-0.7607,-0.7572,-0.7287,-0.7029,-0.6887,-0.6837,-0.6842,-0.6933,-0.7126,-0.7242,0.0,0.0,0.0,-0.7692,-0.7954,-0.8198,-0.8584,-0.9085,-0.9085,-0.9397,-0.9959,-1.0323,0.0,0.0,0.0,0.0,0.0,0.0,0.0,0.0,0.0,0.0,-1.5783,-1.494,-1.3894,-1.2866,-1.2489,-1.2211,-1.2106,-1.2476,-1.3147,0.0,0.0,0.0,0.0,0.0,0.0,0.0,0.0,0.0,0.0,0.0,-2.3108,-2.3108,-2.3108,-2.3283,-2.3484,-2.3684,-2.4023,-2.4293,-2.4293,-2.4562,-2.4788,-2.4788,-2.4788,-2.4788,-2.4788,-2.4788,-2.4788,-2.4788,-2.4788,-2.4788,-2.4788,-2.4996,-2.5096,-2.5096,-2.531,-2.5573,-2.5933,-2.6311,-2.6499,-2.6499,-2.6499,-2.6499,-2.6499,-2.6499,-2.6499,-2.6499,-2.6499,-2.6499,-2.6499,-2.6499,-2.6499,-2.6499,-2.6499,-2.6499,-2.6499,-2.6499,-2.6499,-2.6499,0.0,0.0,0.0,0.0,0.0,0.0,0.0,0.0,0.0,-0.7442,0.0,0.0,0.0,0.0,-0.7122,-0.7561,-0.7727,-0.7662,-0.7378,-0.7067,-0.6945,-0.7079,-0.7112,-0.7279,-0.7629,-0.7749,0.0,0.0,0.0,0.0,0.0,-0.8765,-0.9258,-0.9949,-1.0146,-1.0217,0.0,0.0,0.0,-1.1987,0.0,0.0,-1.7071,0.0,0.0,0.0,0.0,0.0,0.0,-1.675,-1.5842,-1.4676,-1.4014,-1.3178,-1.2585,-1.3183,-1.364,0.0,0.0,0.0,0.0,0.0,0.0,0.0,0.0,0.0,0.0,0.0,-2.3108,-2.3108,-2.3108,-2.3108,-2.3108,-2.3108,-2.3421,-2.3703,-2.3703,-2.3998,-2.4224,-2.4224,-2.4224,-2.4224,-2.4224,-2.4224,-2.4224,-2.4224,-2.4224,-2.4224,-2.4224,-2.4412,-2.46,-2.4775,-2.4788,-2.4983,-2.5335,-2.5724,-2.6034,-2.6197,-2.6197,-2.6298,-2.6499,-2.6499,-2.6499,-2.6499,-2.6499,-2.6499,-2.6499,-2.6499,-2.6499,-2.6499,-2.6499,-2.6499,-2.6499,-2.6499,-2.6499,-2.6499,0.0,0.0,0.0,0.0,0.0,0.0,0.0,0.0,-0.7782,-0.8311,0.0,0.0,0.0,0.0,0.0,-0.7285,-0.711,-0.6985,-0.6791,-0.6669,-0.677,-0.7171,-0.7187,-0.7673,-0.8726,-0.8531,0.0,0.0,0.0,0.0,0.0,0.0,-1.0295,-1.0476,-1.1067,-1.1146,-1.087,0.0,-1.1685,-1.2158,0.0,-1.6886,-1.6154,0.0,0.0,0.0,-1.8746,-1.8657,0.0,-1.8428,0.0,0.0,0.0,-1.4221,-1.2956,-1.339,-1.367,0.0,0.0,0.0,0.0,0.0,0.0,0.0,0.0,0.0,0.0,0.0,-2.3065,-2.3108,-2.3108,-2.3108,-2.3108,-2.3108,-2.3108,-2.3108,-2.3108,-2.3108,-2.3108,-2.3108,-2.3108,-2.3108,-2.3108,-2.3108,-2.3108,-2.3108,-2.3108,-2.3108,-2.3108,-2.3665,-2.4217,-2.4725,-2.4763,-2.4763,-2.4763,-2.4775,-2.5071,-2.5573,-2.5573,-2.5862,-2.6449,-2.6461,-2.6461,-2.6461,-2.6487,-2.6499,-2.6499,-2.6499,-2.6499,-2.6499,-2.6499,-2.6499,-2.6499,-2.6499,-2.6499,-2.6499,0.0,0.0,0.0,0.0,0.0,0.0,0.0,0.0,-0.7662,0.0,0.0,0.0,-0.7389,-0.7735,-0.7973,-0.7921,-0.8152,-0.8469,-0.883,-0.8756,-0.888,-0.9399,-0.9412,-0.9452,-0.9511,-0.9532,0.0,0.0,0.0,0.0,0.0,0.0,0.0,0.0,-1.1734,-1.1872,-1.1864,-1.1771,0.0,0.0,-1.6242,-1.7574,0.0,0.0,0.0,0.0,0.0,-1.9457,-1.8746,0.0,-1.7952,-1.5299,0.0,0.0,0.0,0.0,0.0,0.0,-1.4909,0.0,0.0,0.0,0.0,0.0,0.0,0.0,0.0,0.0,-2.2448,-2.3108,-2.3108,-2.3108,-2.3108,-2.3108,-2.3108,-2.3108,-2.3108,-2.3108,-2.3108,-2.3108,-2.3108,-2.3108,-2.3108,-2.3108,-2.3108,-2.3108,-2.3108,-2.3108,-2.3108,-2.3258,-2.3409,-2.3572,-2.4004,-2.423,-2.423,-2.4619,-2.4863,-2.5034,-2.5034,-2.5121,-2.5285,-2.5661,-2.5837,-2.585,-2.6311,-2.6499,-2.6499,-2.6499,-2.6499,-2.6499,-2.6499,-2.6499,-2.6499,-2.6499,-2.6499,-2.6499,0.0,0.0,0.0,0.0,0.0,0.0,0.0,-0.7882,-0.791,0.0,0.0,0.0,-0.796,-0.8441,-0.8796,-0.8822,-0.926,-0.9646,-0.9932,-0.9883,-0.9989,-1.0286,-1.0265,-1.03,-1.0383,-1.0324,0.0,0.0,0.0,0.0,0.0,0.0,0.0,0.0,0.0,0.0,0.0,0.0,0.0,0.0,-1.6617,0.0,0.0,-1.993,-2.1049,0.0,0.0,0.0,-1.9814,-2.1249,-1.9232,0.0,0.0,0.0,0.0,0.0,0.0,0.0,0.0,0.0,0.0,0.0,0.0,0.0,-1.7892,-1.9306,-2.064,0.0,-2.257,-2.3108,-2.3108,-2.3108,-2.3108,-2.3108,-2.3108,-2.3108,-2.3108,-2.3108,-2.3108,-2.3108,-2.3108,-2.3108,-2.3108,-2.3108,-2.3108,-2.3108,-2.3108,-2.3108,-2.3108,-2.3108,-2.3108,-2.3108,-2.3434,-2.364,-2.364,-2.3923,-2.4211,-2.4481,-2.4481,-2.4562,-2.48,-2.5134,-2.5272,-2.5297,-2.5636,-2.5774,-2.5774,-2.5774,-2.6084,-2.6499,-2.6499,-2.6499,-2.6499,-2.6499,-2.6499,-2.6499,0.0,0.0,0.0,0.0,0.0,0.0,0.0,-0.839,-0.8485,0.0,-0.9117,-0.9217,-0.9217,-0.9663,-0.9943,-0.9812,-1.025,-1.0537,-1.0487,-1.0516,-1.0567,-1.0603,-1.0509,-1.0733,-1.1286,-1.1023,0.0,0.0,0.0,0.0,0.0,0.0,0.0,0.0,0.0,0.0,0.0,0.0,0.0,-1.3445,-1.6972,-1.7554,0.0,0.0,-2.0339,-1.9544,-2.0796,-2.1135,-2.1155,-2.2262,-2.1026,0.0,0.0,0.0,0.0,0.0,-1.4808,0.0,0.0,0.0,0.0,0.0,0.0,0.0,-1.8162,-1.884,-1.9639,-2.203,-2.263,-2.274,-2.2758,-2.2728,-2.274,-2.2758,-2.2837,-2.2972,-2.3065,-2.3108,-2.3108,-2.3108,-2.3108,-2.3108,-2.3108,-2.3108,-2.3108,-2.3108,-2.3108,-2.3108,-2.3108,-2.3108,-2.3108,-2.3108,-2.3108,-2.3108,-2.3108,-2.3108,-2.3358,-2.3904,-2.3904,-2.4155,-2.46,-2.4675,-2.47,-2.47,-2.4763,-2.4788,-2.4788,-2.4788,-2.5398,-2.6311,-2.6311,-2.6311,-2.6323,-2.6373,-2.6399,-2.6411,-0.9094,0.0,0.0,0.0,0.0,0.0,0.0,0.0,-0.9356,-0.9872,-1.0278,-1.0516,-1.0516,-1.0533,-1.0541,-1.0507,-1.07,-1.105,-1.1557,-1.1778,-1.2081,-1.245,-1.2254,-1.2081,-1.1935,-1.1966,0.0,0.0,0.0,0.0,0.0,0.0,0.0,0.0,0.0,0.0,0.0,0.0,0.0,-1.5477,-1.668,0.0,-1.8333,-2.0446,-2.1682,-2.2335,-2.2592,-2.1961,-2.0877,-2.001,-2.0114,-2.0171,0.0,0.0,0.0,-1.5527,0.0,0.0,0.0,0.0,0.0,0.0,-1.543,0.0,-1.6242,-1.7233,-1.8189,0.0,-1.9678,-2.0482,-2.0588,-2.0511,-2.0482,-2.0588,-2.1229,-2.2053,-2.2972,-2.3108,-2.3108,-2.3108,-2.3108,-2.3108,-2.3108,-2.3108,-2.3108,-2.3108,-2.3108,-2.3108,-2.3108,-2.3108,-2.3108,-2.3108,-2.3108,-2.3108,-2.3108,-2.3108,-2.3158,-2.3283,-2.3283,-2.3333,-2.3446,-2.3941,-2.4167,-2.4192,-2.46,-2.4788,-2.4788,-2.4788,-2.4913,-2.5146,-2.5146,-2.5146,-2.5197,-2.5611,-2.5774,-2.5871,-0.9468,0.0,0.0,0.0,0.0,0.0,0.0,0.0,-1.0087,-1.0622,-1.0895,-1.0994,-1.0908,-1.1195,-1.1382,-1.131,-1.169,-1.2107,-1.244,-1.2658,-1.286,-1.2972,-1.2981,-1.2828,-1.2552,-1.2597,-1.2544,0.0,0.0,0.0,0.0,0.0,0.0,0.0,0.0,0.0,0.0,0.0,-1.5072,-1.5716,-1.7246,0.0,-1.9745,-2.1523,-2.2573,-2.3108,-2.3108,-2.2634,-2.1925,-2.1221,-2.0556,0.0,-1.9198,-1.8436,-1.7633,0.0,-1.6626,-1.6823,0.0,0.0,0.0,-1.5321,-1.5438,0.0,0.0,-1.726,-1.7952,-1.8522,-1.926,-1.9807,-1.9843,-1.9825,-1.9866,-2.0059,-2.0824,-2.1438,-2.1552,-2.2446,-2.3108,-2.3108,-2.3108,-2.3108,-2.3108,-2.3108,-2.3108,-2.3108,-2.3108,-2.3108,-2.3108,-2.3108,-2.3108,-2.3108,-2.3108,-2.3108,-2.3108,-2.3108,-2.3108,-2.3108,-2.3108,-2.3108,-2.3108,-2.3409,-2.3534,-2.359,-2.3835,-2.3948,-2.3948,-2.3948,-2.3948,-2.401,-2.4575,-2.4788,-2.4825,-2.5109,-2.5209,-2.5285,-0.9877,0.0,0.0,0.0,0.0,0.0,0.0,0.0,-1.0879,-1.1339,-1.174,-1.1857,-1.16,-1.2489,-1.3055,-1.291,-1.3579,-1.3939,-1.3731,-1.3921,-1.3965,-1.3747,-1.3626,-1.3553,-1.3553,-1.3294,-1.3086,0.0,0.0,0.0,0.0,0.0,0.0,0.0,0.0,0.0,0.0,0.0,0.0,-1.6446,0.0,-1.9563,-2.0188,-2.1817,-2.2616,-2.2841,-2.3035,-2.3108,-2.3078,-2.2914,-2.1428,-1.9738,-2.0306,-1.9269,0.0,0.0,0.0,0.0,0.0,0.0,0.0,0.0,0.0,-1.5761,0.0,0.0,0.0,-1.8654,-1.896,0.0,0.0,0.0,0.0,0.0,0.0,0.0,0.0,-2.1342,0.0,-2.2513,-2.285,-2.3027,-2.2837,-2.2825,-2.2905,-2.3095,-2.2917,-2.2855,-2.2945,-2.2945,-2.2895,-2.2794,-2.2782,-2.2844,-2.2945,-2.2945,-2.2995,-2.3108,-2.3108,-2.3108,-2.3108,-2.3108,-2.3108,-2.3108,-2.3108,-2.3108,-2.3108,-2.3108,-2.3108,-2.3195,-2.4111,-2.4462,-2.4474,-2.4587,-2.4637,-2.4713,-1.0243,-0.9947,0.0,0.0,0.0,0.0,0.0,0.0,-1.1978,-1.2157,-1.3631,-1.4501,-1.4042,-1.5667,0.0,0.0,-1.7248,-1.7296,-1.6333,-1.6579,-1.6646,-1.6371,-1.5144,-1.4798,-1.5546,-1.4363,-1.361,-1.342,0.0,0.0,0.0,0.0,0.0,0.0,-1.7119,0.0,0.0,0.0,-1.9018,0.0,-2.0475,-1.9609,0.0,-1.9598,-2.081,-2.1892,-2.2781,-2.3108,-2.2975,0.0,-2.1825,-2.1225,0.0,-1.9797,-2.0688,-1.7389,0.0,0.0,0.0,0.0,0.0,0.0,-1.5439,-1.5711,-1.5877,0.0,-1.6197,-1.642,0.0,0.0,0.0,0.0,0.0,0.0,0.0,0.0,-1.8685,-1.9755,-2.0481,-2.0381,-2.1979,-2.2758,-2.193,-2.1851,-2.2196,-2.304,-2.233,-2.1999,-2.238,-2.2397,-2.2184,-2.1694,-2.1681,-2.1907,-2.2397,-2.2397,-2.2619,-2.3108,-2.3108,-2.3108,-2.3108,-2.3108,-2.3108,-2.3108,-2.3108,-2.3108,-2.3108,-2.3108,-2.3108,-2.312,-2.3246,-2.3296,-2.3358,-2.3904,-2.4092,-2.4167,-1.1339,-1.122,0.0,0.0,0.0,0.0,0.0,0.0,-1.3225,-1.3025,-1.3847,-1.4444,0.0,0.0,0.0,0.0,0.0,-1.7933,0.0,0.0,-1.7262,-1.6145,-1.5581,-1.5425,-1.5723,-1.5244,-1.4932,-1.4728,-1.5002,0.0,0.0,0.0,0.0,0.0,-1.8221,0.0,-1.945,0.0,-1.9838,0.0,0.0,0.0,0.0,-2.2,-2.3348,-2.3852,-2.4268,-2.4439,-2.4368,-2.4024,-2.2858,-2.1668,0.0,0.0,0.0,-1.9574,0.0,0.0,0.0,0.0,0.0,0.0,-1.6143,-1.6605,-1.5877,-1.5875,-1.6009,-1.599,0.0,0.0,0.0,0.0,0.0,0.0,-1.7855,-1.8294,0.0,0.0,-2.0088,-2.0117,0.0,-2.1496,-2.1682,-2.1901,-2.2205,-2.2606,-2.1973,-2.1661,-2.1832,-2.1832,-2.1732,-2.1493,-2.1493,-2.1789,-2.2356,-2.2356,-2.2851,-2.3851,-2.3851,-2.4065,-2.4439,-2.4439,-2.4439,-2.4439,-2.4439,-2.4439,-2.4439,-2.4439,-2.4439,-2.4439,-2.4439,-2.3901,-2.3133,-2.3384,-2.3471,-2.3547,-1.2876,0.0,0.0,0.0,0.0,0.0,0.0,0.0,0.0,-1.3982,0.0,0.0,-1.5122,-1.599,0.0,0.0,-1.9649,-1.9925,0.0,0.0,-1.8759,-1.7883,0.0,0.0,0.0,-1.6339,-1.5874,-1.5671,0.0,0.0,0.0,0.0,0.0,0.0,0.0,-1.9851,-2.1451,0.0,0.0,-2.0989,-2.1855,-2.214,-2.2236,-2.4209,-2.5134,-2.5398,-2.5398,-2.5398,-2.537,-2.5134,-2.3714,-2.2372,-2.4056,-2.2655,-2.0606,0.0,0.0,0.0,-1.795,-1.7745,-1.755,-1.611,-1.6446,-1.6882,-1.5916,-1.5865,-1.6009,-1.5914,-1.6116,0.0,0.0,0.0,-1.6751,-1.705,0.0,-1.7816,0.0,-1.8111,0.0,0.0,0.0,-1.9989,-2.0991,-2.1229,-2.1436,-2.17,-2.1331,-2.1144,-2.1255,-2.1447,-2.1453,-2.1328,-2.1464,-2.177,-2.218,-2.2353,-2.2911,-2.3851,-2.4051,-2.4488,-2.5135,-2.5135,-2.5232,-2.5398,-2.5398,-2.5398,-2.5398,-2.5398,-2.5398,-2.5398,-2.5398,-2.4724,-2.3725,-2.3725,-2.3725,-2.3789,-1.4903,-1.3799,0.0,0.0,0.0,0.0,0.0,0.0,0.0,0.0,0.0,0.0,0.0,0.0,0.0,0.0,0.0,-2.4901,-2.3783,0.0,-2.2103,0.0,0.0,-1.8148,0.0,0.0,-1.6028,0.0,0.0,0.0,0.0,0.0,0.0,0.0,0.0,-1.9977,-2.0186,-2.1975,-2.3615,-2.5011,-2.5053,-2.5993,-2.7119,0.0,-2.4491,-2.5398,-2.5398,-2.5398,-2.5273,-2.442,-2.4081,-2.3819,-2.2822,-2.3171,-2.3723,-2.2683,-2.2782,-2.2652,-1.9936,-1.8942,-1.8233,-1.636,-1.5924,-1.5905,-1.574,-1.5827,-1.5914,-1.5885,-1.6009,-1.6257,-1.6694,-1.679,-1.6902,-1.725,-1.7155,0.0,0.0,0.0,0.0,0.0,0.0,0.0,-1.9463,-1.9103,-1.9223,-2.0186,-2.0125,-2.0259,-2.069,-2.1263,-2.1352,-2.085,-2.1396,-2.1667,-2.1641,-2.2253,-2.2551,-2.247,-2.3121,-2.3788,-2.4433,-2.4433,-2.4791,-2.5398,-2.5398,-2.5398,-2.5398,-2.5398,-2.5398,-2.5398,-2.5398,-2.537,-2.5315,-2.5315,-2.5315,-2.5315,0.0,0.0,0.0,0.0,0.0,0.0,0.0,-1.5639,0.0,0.0,-1.7645,0.0,0.0,-2.1084,-2.2392,0.0,0.0,-2.5026,-2.4764,-2.3471,0.0,0.0,0.0,-1.864,0.0,0.0,0.0,0.0,0.0,0.0,0.0,0.0,0.0,0.0,0.0,-2.1014,0.0,0.0,0.0,0.0,0.0,-2.5614,-2.6222,-2.6287,-2.6556,-2.6864,-2.6864,-2.6864,-2.6797,-2.6529,-2.5792,-2.5122,-2.5657,-2.4736,-2.3566,-2.4256,-2.3635,-2.256,-2.176,-2.1756,-2.136,-1.8566,-1.8453,-1.8458,-1.6304,-1.5933,-1.6038,-1.6038,-1.6163,-1.6363,-1.6609,-1.6751,-1.6864,-1.7078,-1.7039,-1.7067,0.0,-1.6965,-1.6623,0.0,0.0,0.0,0.0,-1.8942,-1.9455,-1.9773,-1.9853,-1.993,-2.0087,-2.0719,-2.1007,-2.0809,-2.139,-2.1916,-2.2319,-2.2555,-2.307,-2.3851,-2.4081,-2.4549,-2.5199,-2.5646,-2.5991,-2.6225,-2.6648,-2.6864,-2.6864,-2.6864,-2.6864,-2.6864,-2.6864,-2.6864,-2.6733,-2.5755,-2.5398,-2.5315,-1.6028,0.0,0.0,0.0,0.0,0.0,0.0,0.0,0.0,0.0,-1.8969,0.0,-2.1852,0.0,-2.34,0.0,-2.5599,-2.5721,-2.541,-2.4447,0.0,-2.3723,-2.1227,-2.0402,0.0,0.0,0.0,0.0,0.0,-1.7689,0.0,0.0,0.0,0.0,0.0,0.0,-2.2942,0.0,-2.4774,0.0,0.0,-2.6114,0.0,-2.7236,-2.7302,-2.6923,-2.7418,-2.76,-2.76,-2.76,-2.7016,-2.6395,-2.7302,-2.6266,-2.491,-2.5934,-2.5307,-2.4113,-2.3595,-2.3757,-2.342,-2.0695,-2.0551,-2.0365,-1.7584,-1.7091,-1.7166,-1.7109,-1.675,-1.6921,-1.8344,-1.7617,-1.7076,-1.7857,-1.7406,-1.6994,0.0,-1.6927,-1.6511,-1.6033,0.0,0.0,0.0,-1.8041,-1.8647,-1.9171,-1.9543,-1.9876,-2.0144,-2.1004,-2.1489,-2.1489,-2.2077,-2.2469,-2.2694,-2.292,-2.3318,-2.3939,-2.4142,-2.459,-2.5247,-2.5689,-2.6153,-2.6617,-2.7061,-2.7375,-2.76,-2.76,-2.76,-2.76,-2.76,-2.76,-2.7484,-2.6534,-2.6188,-2.6081,0.0,0.0,0.0,0.0,-1.6482,0.0,0.0,0.0,-1.7532,0.0,-1.9992,-2.0689,-2.2808,-2.4384,-2.5314,-2.5314,-2.6724,-2.7093,-2.5859,-2.5309,0.0,0.0,-2.3649,-2.3257,-2.4968,0.0,0.0,0.0,0.0,0.0,0.0,0.0,0.0,0.0,-1.8504,0.0,-2.3103,-2.3115,-2.4873,-2.76,-2.76,-2.756,-2.7509,-2.756,-2.6727,-2.567,-2.7093,-2.76,-2.76,-2.76,-2.76,-2.76,-2.76,-2.76,-2.76,-2.76,-2.76,-2.7219,-2.5426,-2.493,-2.4474,-2.2618,-2.2151,-2.1618,-1.9511,-1.9195,-1.9278,-1.9099,-1.7879,-1.7919,-2.1423,-1.925,-1.7528,-1.9364,-1.8075,-1.6825,-1.68,-1.6425,-1.6247,-1.6461,-1.6093,0.0,0.0,-1.651,-1.6957,-1.8344,-1.9193,-1.9991,0.0,-2.1941,-2.2626,-2.2694,-2.329,-2.3334,-2.274,-2.3312,-2.3312,-2.274,-2.3334,-2.3939,-2.456,-2.459,-2.5292,-2.6497,-2.6557,-2.6971,-2.754,-2.7585,-2.76,-2.76,-2.76,-2.76,-2.76,-2.76,-2.76,-2.7484,-1.6825,-1.7106,-1.7357,0.0,-1.7642,-1.7767,0.0,0.0,0.0,0.0,-2.3177,-2.4419,-2.6165,-2.6739,-2.6975,-2.6975,-2.7352,0.0,0.0,0.0,0.0,-2.7067,-2.4568,-2.373,-2.4982,-2.1983,-2.0417,-2.0479,0.0,0.0,-1.8634,0.0,0.0,0.0,0.0,0.0,-2.3249,-2.3405,-2.5067,-2.76,-2.76,-2.6975,-2.6169,-2.721,-2.6727,-2.567,-2.7093,-2.76,-2.76,-2.76,-2.76,-2.76,-2.76,-2.76,-2.76,-2.76,-2.76,-2.7489,-2.7003,-2.6882,-2.6422,-2.4555,-2.4073,-2.3578,-2.1645,-2.1232,-2.1259,-2.1192,-2.0886,-2.0531,-2.0311,-1.9436,-1.8573,-1.803,-1.7601,-1.7153,-1.6711,0.0,0.0,-1.6379,0.0,0.0,-1.6208,-1.681,-1.7413,-1.7813,-1.8531,-1.949,-2.0721,-2.1021,-2.1631,-2.2672,-2.329,-2.353,-2.3377,-2.3508,-2.3508,-2.3377,-2.353,-2.3684,-2.3879,-2.4365,-2.4784,-2.5173,-2.6168,-2.6692,-2.6911,-2.739,-2.76,-2.76,-2.76,-2.76,-2.76,-2.76,-2.76,-2.7484,-1.7082,0.0,0.0,-1.84,0.0,0.0,-1.9216,-1.9504,0.0,-2.3136,-2.4154,0.0,-2.6727,-2.7302,-2.76,-2.76,-2.76,0.0,-2.6805,0.0,0.0,-2.6765,-2.5788,-2.5524,-2.6112,-2.3785,0.0,-2.1809,0.0,0.0,-1.9124,0.0,0.0,0.0,0.0,-2.0557,0.0,-2.3964,-2.5317,-2.6695,-2.7339,-2.7133,0.0,-2.7302,-2.7108,-2.6515,-2.7302,-2.76,-2.76,-2.76,-2.76,-2.76,-2.76,-2.76,-2.76,-2.76,-2.76,-2.76,-2.76,-2.76,-2.7354,-2.6287,-2.6031,-2.5521,-2.3659,-2.3218,-2.3218,-2.3218,-2.2631,-2.2285,-2.2977,-2.1172,-1.9081,-1.7556,-1.7351,-1.7352,-1.7276,0.0,0.0,0.0,-1.7399,-1.7241,-1.6389,-1.7593,-1.8324,-1.8054,-1.8799,-1.9544,-2.0206,-2.0848,-2.158,-2.2363,-2.3172,-2.3595,-2.3595,-2.3595,-2.3595,-2.3595,-2.3595,-2.3595,-2.361,-2.3999,-2.4321,-2.4649,-2.5397,-2.6063,-2.6641,-2.7016,-2.7345,-2.76,-2.76,-2.76,-2.76,-2.76,-2.76,-2.7534,-1.7666,0.0,0.0,0.0,0.0,0.0,0.0,-2.0356,-2.0925,-2.3741,0.0,-2.4857,-2.6076,-2.7041,-2.76,-2.76,-2.76,-2.7119,-2.6007,-2.6975,-2.7119,-2.6007,-2.7001,-2.76,-2.76,-2.605,-2.4656,0.0,0.0,0.0,0.0,0.0,0.0,0.0,0.0,0.0,0.0,-2.4602,-2.5622,-2.5814,-2.7079,-2.76,-2.76,-2.76,-2.76,-2.76,-2.76,-2.76,-2.76,-2.76,-2.76,-2.76,-2.76,-2.76,-2.76,-2.76,-2.76,-2.76,-2.76,-2.76,-2.76,-2.76,-2.76,-2.7179,-2.5535,-2.5185,-2.5185,-2.5185,-2.3964,-2.3763,-2.6615,-2.3146,-1.9369,-1.7773,-1.7584,-1.782,-1.8402,0.0,0.0,0.0,0.0,0.0,-1.6931,-1.8304,-1.9004,-1.8483,-1.9209,-1.9661,-1.971,-2.1005,-2.1876,-2.2192,-2.3113,-2.3595,-2.3595,-2.3595,-2.3595,-2.3595,-2.3595,-2.3595,-2.3595,-2.3595,-2.3924,-2.447,-2.4575,-2.5247,-2.6348,-2.6512,-2.7001,-2.76,-2.76,-2.76,-2.76,-2.76,-2.76,-2.76,0.0,0.0,0.0,0.0,0.0,-2.197,-2.3132,-2.3928,-2.4569,-2.5136,-2.6222,-2.7041,-2.7276,-2.7484,-2.76,-2.76,-2.76,0.0,0.0,0.0,0.0,-2.7276,-2.7484,-2.76,-2.76,-2.6127,-2.4904,0.0,0.0,0.0,0.0,0.0,0.0,0.0,0.0,0.0,-2.3538,-2.4864,0.0,-2.7229,-2.7489,-2.76,-2.76,-2.76,-2.76,-2.76,-2.76,-2.76,-2.76,-2.76,-2.76,-2.76,-2.76,-2.76,-2.76,-2.76,-2.76,-2.76,-2.76,-2.76,-2.76,-2.76,-2.76,-2.7504,-2.7179,-2.7098,-2.7098,-2.7098,-2.6868,-2.6232,-2.4869,-2.2289,-1.9978,-1.8811,-1.9338,-2.0029,-2.0343,0.0,0.0,0.0,0.0,-1.9221,-1.7396,-1.7545,-1.7731,-1.7628,-1.777,-1.8723,-2.0715,-2.0526,-2.1264,-2.326,-2.3493,-2.3595,-2.3595,-2.3595,-2.3595,-2.3595,-2.3595,-2.3595,-2.3595,-2.3595,-2.367,-2.3819,-2.435,-2.4739,-2.5038,-2.6138,-2.7001,-2.76,-2.76,-2.76,-2.76,-2.76,-2.76,-2.76,0.0,0.0,0.0,0.0,0.0,0.0,-2.4791,-2.5904,-2.6395,-2.5833,-2.6357,-2.6768,-2.6768,-2.7276,-2.76,-2.76,-2.76,-2.76,-2.76,-2.76,-2.76,-2.76,-2.76,-2.76,-2.76,-2.6899,-2.5737,-2.4094,-2.3443,-2.223,-2.0561,0.0,0.0,0.0,0.0,-2.1574,0.0,0.0,-2.5879,-2.652,-2.7284,-2.76,-2.76,-2.76,-2.76,-2.76,-2.76,-2.76,-2.76,-2.76,-2.76,-2.76,-2.76,-2.76,-2.76,-2.76,-2.76,-2.76,-2.76,-2.76,-2.76,-2.76,-2.76,-2.76,-2.76,-2.76,-2.76,-2.76,-2.76,-2.6961,-2.4902,-2.2526,-2.0729,-2.0265,-1.9952,-2.0129,-2.1169,-2.1078,-2.0824,0.0,0.0,0.0,0.0,-1.765,-1.7584,-1.8151,0.0,-1.8946,-2.0701,-2.044,-2.1027,-2.2712,-2.3304,-2.3595,-2.3595,-2.3595,-2.3595,-2.3595,-2.3595,-2.3595,-2.3595,-2.3595,-2.3595,-2.3625,-2.3954,-2.4276,-2.4709,-2.6048,-2.7001,-2.76,-2.76,-2.76,-2.76,-2.76,-2.76,-2.76,0.0,-2.1724,0.0,0.0,-2.4407,-2.5437,-2.6297,-2.7303,-2.7575,-2.6488,-2.633,-2.633,-2.633,-2.7108,-2.7635,-2.7785,-2.766,-2.7635,-2.7785,-2.7675,-2.76,-2.76,-2.76,-2.766,-2.7785,-2.7785,-2.6761,-2.4691,-2.4649,-2.3453,-2.1187,0.0,0.0,0.0,0.0,0.0,-2.2632,-2.4815,-2.595,-2.6347,-2.7514,-2.7993,-2.7993,-2.7993,-2.7993,-2.7993,-2.7993,-2.7993,-2.7993,-2.7993,-2.781,-2.76,-2.76,-2.76,-2.76,-2.76,-2.76,-2.76,-2.76,-2.76,-2.76,-2.76,-2.76,-2.76,-2.76,-2.76,-2.765,-2.776,-2.7658,-2.6974,-2.5133,-2.3283,-2.1983,-2.1778,-2.0968,-2.0839,-2.2096,-2.2089,-2.1988,0.0,0.0,0.0,-1.9429,-1.8519,-1.834,-1.9179,-1.9022,-1.9375,-2.0441,-2.0466,-2.0933,-2.1983,-2.278,-2.3223,-2.326,-2.3486,-2.3595,-2.3595,-2.3595,-2.3595,-2.3595,-2.3595,-2.3595,-2.3595,-2.3595,-2.4073,-2.4889,-2.5959,-2.6881,-2.76,-2.76,-2.76,-2.76,-2.76,-2.76,-2.76,0.0,0.0,0.0,0.0,-2.7255,-2.7683,-2.781,-2.8615,-2.8795,-2.762,-2.7444,-2.7444,-2.7444,-2.7534,-2.781,-2.8383,-2.7934,-2.7835,-2.8367,-2.791,-2.76,-2.76,-2.76,-2.786,-2.8391,-2.8415,-2.7838,-2.6645,-2.5811,-2.451,-2.276,-2.1584,-2.1372,-2.1953,-2.1746,-2.3294,-2.6029,-2.6173,-2.7306,-2.9046,-2.9171,-2.9225,-2.9225,-2.9225,-2.9225,-2.9225,-2.9225,-2.9225,-2.9225,-2.9225,-2.8504,-2.76,-2.76,-2.76,-2.76,-2.76,-2.76,-2.76,-2.76,-2.76,-2.76,-2.76,-2.76,-2.76,-2.76,-2.76,-2.776,-2.8295,-2.7846,-2.6653,-2.4477,-2.4499,-2.4388,-2.3075,-2.3849,-2.4534,-2.42,-2.4132,-2.3947,-2.3492,0.0,0.0,-2.1033,-2.0511,-2.0242,-2.0342,-1.9441,-1.9375,-2.0441,-2.0329,-2.076,-2.1946,-2.1978,-2.2025,-2.2145,-2.3113,-2.3595,-2.3595,-2.3595,-2.3595,-2.3595,-2.3595,-2.3595,-2.3595,-2.3595,-2.4328,-2.5525,-2.5644,-2.6437,-2.76,-2.76,-2.76,-2.76,-2.76,-2.76,-2.76,-2.6454,-2.6413,-2.6579,-2.7521,-2.7852,-2.8185,-2.8762,-2.9162,-2.9225,-2.874,-2.867,-2.867,-2.867,-2.867,-2.8764,-2.9035,-2.881,-2.8787,-2.9019,-2.8487,-2.8295,-2.867,-2.7993,-2.8052,-2.9035,-2.8701,-2.8154,-2.7444,-2.6338,-2.5176,-2.3945,-2.3234,-2.3299,-2.4063,-2.4757,-2.5785,-2.6964,-2.7806,-2.8635,-2.9406,-2.9406,-2.9406,-2.9406,-2.9406,-2.9406,-2.9406,-2.9406,-2.9406,-2.9406,-2.9406,-2.9088,-2.867,-2.867,-2.867,-2.867,-2.867,-2.867,-2.867,-2.867,-2.867,-2.867,-2.867,-2.867,-2.867,-2.867,-2.867,-2.8631,-2.8415,-2.7434,-2.6457,-2.5835,-2.497,-2.446,-2.4748,-2.4555,-2.4591,-2.5262,-2.507,-2.4918,-2.5035,0.0,-2.2871,-2.2666,-2.1597,-2.0919,-2.0919,-2.0265,-1.999,-2.0304,-2.1237,-2.1802,-2.1885,-2.2841,-2.3396,-2.3432,-2.3876,-2.4225,-2.4572,-2.4572,-2.4572,-2.4572,-2.4572,-2.4389,-2.4053,-2.3745,-2.4133,-2.5023,-2.5427,-2.6153,-2.7046,-2.7435,-2.76,-2.76,-2.76,-2.76,-2.76,-2.8082,-2.8137,-2.8407,-2.9421,-2.9584,-2.9815,-3.0471,-3.057,-3.057,-3.057,-3.0391,-3.0032,-2.9445,-2.9406,-2.9473,-2.9651,-2.9496,-2.9473,-2.9651,-2.9088,-2.895,-2.9384,-2.8575,-2.8599,-2.9651,-2.9248,-2.8871,-2.8552,-2.7399,-2.6421,-2.5577,-2.496,-2.5143,-2.5956,-2.6947,-2.7659,-2.818,-2.9223,-2.9761,-2.993,-2.993,-2.993,-2.993,-2.993,-2.993,-2.993,-2.993,-2.993,-2.993,-2.993,-2.993,-2.987,-2.9518,-2.9406,-2.9406,-2.9406,-2.9406,-2.9406,-2.9406,-2.9406,-2.9406,-2.9406,-2.9406,-2.9406,-2.9406,-2.9406,-2.9134,-2.8201,-2.7292,-2.6661,-2.6639,-2.5545,-2.4952,-2.5837,-2.5244,-2.4968,-2.5872,-2.567,-2.5505,-2.5677,-2.4237,-2.3358,-2.3743,-2.2411,-2.1631,-2.1886,-2.1884,-2.1615,-2.0997,-2.2082,-2.2614,-2.2351,-2.3492,-2.4117,-2.4153,-2.448,-2.4831,-2.5202,-2.5202,-2.5202,-2.5202,-2.5202,-2.4992,-2.4612,-2.4225,-2.445,-2.5131,-2.5825,-2.6482,-2.7169,-2.7865,-2.8125,-2.8125,-2.8125,-2.8125,-2.8125,-3.0062,-3.0367,-3.092,-3.2975,-3.333,-3.333,-3.3351,-3.3351,-3.3351,-3.3351,-3.273,-3.1525,-2.9621,-2.9406,-2.9651,-3.023,-2.9739,-2.9651,-3.0251,-2.9717,-2.9384,-2.9406,-2.9384,-2.9651,-3.0272,-3.0272,-3.0272,-3.0272,-2.9337,-2.855,-2.7933,-2.6675,-2.6539,-2.7384,-2.7399,-2.8481,-3.0255,-3.0272,-3.0638,-3.1171,-3.1171,-3.1171,-3.1171,-3.1171,-3.1171,-3.1171,-3.1171,-3.1171,-3.1171,-3.1171,-3.1171,-3.0975,-2.9783,-2.9406,-2.9406,-2.9406,-2.9406,-2.9406,-2.9406,-2.9406,-2.9406,-2.9406,-2.9406,-2.9406,-2.9406,-2.9406,-2.9006,-2.7598,-2.7561,-2.743,-2.6234,-2.6367,-2.6522,-2.6068,-2.6367,-2.6505,-2.605,-2.5979,-2.5748,-2.5099,-2.3416,-2.2821,-2.406,-2.303,-2.2646,-2.3516,-2.4551,-2.4443,-2.2849,-2.2666,-2.29,-2.3546,-2.3474,-2.3495,-2.3603,-2.4646,-2.5202,-2.5202,-2.5202,-2.5202,-2.5202,-2.5202,-2.5202,-2.5202,-2.5182,-2.5559,-2.6254,-2.6965,-2.7668,-2.8349,-2.909,-2.9384,-2.9384,-2.9384,-2.9384,-2.9384,-3.2335,-3.2429,-3.2615,-3.3275,-3.3406,-3.3406,-3.3406,-3.3406,-3.3406,-3.3406,-3.3203,-3.2807,-3.2179,-3.122,-3.0699,-3.0898,-3.074,-3.0699,-3.0898,-3.0351,-3.0187,-3.0617,-2.9827,-2.987,-3.0878,-3.0497,-3.0497,-3.0918,-2.9691,-2.9016,-2.8797,-2.8591,-2.9032,-2.9984,-2.9984,-3.0335,-3.0918,-3.0918,-3.1015,-3.119,-3.119,-3.119,-3.119,-3.119,-3.119,-3.119,-3.119,-3.119,-3.119,-3.119,-3.119,-3.1131,-3.074,-3.0638,-3.0638,-3.0638,-3.0638,-3.0638,-3.0638,-3.0638,-3.0638,-3.0638,-3.0638,-3.0638,-3.0638,-2.9852,-2.8838,-2.7838,-2.7325,-2.6928,-2.6555,-2.6607,-2.6657,-2.6487,-2.6607,-2.6657,-2.6504,-2.647,-2.6402,-2.6179,-2.5648,-2.5473,-2.5863,-2.5248,-2.427,-2.2955,-2.2838,-2.261,-2.2144,-2.3892,-2.4473,-2.3479,-2.4591,-2.5188,-2.5239,-2.5566,-2.5924,-2.6211,-2.6211,-2.6211,-2.6211,-2.589,-2.576,-2.5742,-2.5354,-2.531,-2.5563,-2.6262,-2.6986,-2.7694,-2.8377,-2.8952,-2.9406,-2.9406,-2.9406,-2.9406,-3.3761,-3.3812,-3.3897,-3.4163,-3.4213,-3.4213,-3.4213,-3.4213,-3.4213,-3.4213,-3.3998,-3.3812,-3.3812,-3.2493,-3.1596,-3.1596,-3.136,-3.119,-3.119,-3.0858,-3.0818,-3.119,-3.0477,-3.0435,-3.119,-3.0838,-3.0818,-3.119,-3.0357,-2.9955,-2.9955,-3.0114,-3.0551,-3.119,-3.119,-3.119,-3.119,-3.119,-3.119,-3.119,-3.119,-3.119,-3.119,-3.119,-3.119,-3.119,-3.119,-3.119,-3.119,-3.119,-3.119,-3.119,-3.119,-3.119,-3.119,-3.119,-3.119,-3.119,-3.119,-3.119,-3.119,-3.119,-3.119,-3.1123,-3.0852,-2.9634,-2.8416,-2.7908,-2.7198,-2.6691,-2.6691,-2.6691,-2.6691,-2.6691,-2.6691,-2.6691,-2.6691,-2.6691,-2.6539,-2.6109,-2.5791,-2.5725,-2.6023,-2.5525,-2.4871,-2.4127,-2.377,-2.3584,-2.3646,-2.4314,-2.4684,-2.4629,-2.5701,-2.6262,-2.6262,-2.6262,-2.6401,-2.6691,-2.6691,-2.6691,-2.6691,-2.6401,-2.6262,-2.6228,-2.5908,-2.5764,-2.583,-2.651,-2.7065,-2.7591,-2.8588,-2.9258,-2.9699,-2.9982,-3.0081,-3.0081,-3.4438,-3.4573,-3.4793,-3.5481,-3.56,-3.56,-3.56,-3.56,-3.56,-3.56,-3.5013,-3.4573,-3.4573,-3.3326,-3.2429,-3.2378,-3.1667,-3.119,-3.119,-3.119,-3.119,-3.119,-3.119,-3.119,-3.119,-3.119,-3.119,-3.119,-3.119,-3.119,-3.119,-3.119,-3.119,-3.119,-3.119,-3.119,-3.119,-3.119,-3.119,-3.119,-3.119,-3.119,-3.119,-3.119,-3.119,-3.119,-3.119,-3.119,-3.119,-3.119,-3.119,-3.119,-3.119,-3.119,-3.119,-3.119,-3.119,-3.119,-3.119,-3.119,-3.119,-3.119,-3.1157,-3.092,-3.0125,-2.8821,-2.779,-2.7739,-2.7182,-2.6691,-2.6691,-2.6691,-2.6691,-2.6691,-2.6691,-2.6691,-2.6691,-2.6691,-2.6317,-2.525,-2.4457,-2.4312,-2.5056,-2.4441,-2.4689,-2.6337,-2.6472,-2.6472,-2.6472,-2.3973,-2.3831,-2.6624,-2.6691,-2.6691,-2.6691,-2.6691,-2.6691,-2.6691,-2.6691,-2.6691,-2.6691,-2.6691,-2.6691,-2.6691,-2.6691,-2.6691,-2.6742,-2.7435,-2.7756,-2.7942,-2.9379,-2.9971,-3.0125,-3.0852,-3.1123,-3.1123,-3.5295,-3.5329,-3.538,-3.5566,-3.56,-3.56,-3.56,-3.56,-3.56,-3.56,-3.5447,-3.5329,-3.5329,-3.4523,-3.3744,-3.3186,-3.1952,-3.119,-3.119,-3.119,-3.119,-3.119,-3.119,-3.119,-3.119,-3.119,-3.119,-3.119,-3.119,-3.119,-3.119,-3.119,-3.119,-3.119,-3.119,-3.119,-3.119,-3.119,-3.119,-3.119,-3.119,-3.119,-3.119,-3.119,-3.119,-3.119,-3.119,-3.119,-3.119,-3.119,-3.119,-3.119,-3.119,-3.119,-3.119,-3.119,-3.119,-3.119,-3.119,-3.119,-3.119,-3.119,-3.0784,-3.0023,-2.8652,-2.806,-2.7638,-2.708,-2.6826,-2.6691,-2.6691,-2.6691,-2.6691,-2.6691,-2.6691,-2.6691,-2.6691,-2.6691,-2.6607,-2.6334,-2.6115,-2.6082,-2.6266,-2.6115,-2.5473,-2.4209,-2.4088,-2.4088,-2.4088,-2.3459,-2.4218,-2.6624,-2.6691,-2.6691,-2.6691,-2.6691,-2.6691,-2.6691,-2.6691,-2.6691,-2.6691,-2.6691,-2.6691,-2.6691,-2.6691,-2.6691,-2.6708,-2.6894,-2.7283,-2.7841,-2.8196,-2.8721,-2.9365,-3.0091,-3.0362,-3.0446,-3.56,-3.56,-3.56,-3.56,-3.56,-3.56,-3.56,-3.56,-3.56,-3.56,-3.56,-3.56,-3.56,-3.4945,-3.4336,-3.3931,-3.2544,-3.1546,-3.1207,-3.119,-3.119,-3.119,-3.119,-3.119,-3.119,-3.119,-3.119,-3.119,-3.119,-3.119,-3.119,-3.119,-3.119,-3.119,-3.119,-3.119,-3.119,-3.119,-3.119,-3.119,-3.119,-3.119,-3.119,-3.119,-3.119,-3.119,-3.119,-3.119,-3.119,-3.119,-3.119,-3.119,-3.119,-3.119,-3.119,-3.119,-3.119,-3.119,-3.119,-3.119,-3.1123,-3.0784,-3.0142,-2.9279,-2.8077,-2.7536,-2.7182,-2.6776,-2.6691,-2.6691,-2.6691,-2.6691,-2.6691,-2.6691,-2.6016,-2.5745,-2.6573,-2.5982,-2.5779,-2.6607,-2.6691,-2.6691,-2.6691,-2.6691,-2.6184,-2.4944,-2.4842,-2.4842,-2.4842,-2.4842,-2.5421,-2.6657,-2.6691,-2.6691,-2.6691,-2.6691,-2.6691,-2.6691,-2.6691,-2.6691,-2.6691,-2.6691,-2.6691,-2.6691,-2.6691,-2.6691,-2.6691,-2.6691,-2.6945,-2.7317,-2.7672,-2.806,-2.8535,-2.9313,-2.96,-2.9702,-3.56,-3.56,-3.56,-3.56,-3.56,-3.56,-3.56,-3.56,-3.56,-3.56,-3.56,-3.56,-3.56,-3.5047,-3.4624,-3.4506,-3.3258,-3.2158,-3.141,-3.1258,-3.119,-3.119,-3.119,-3.119,-3.119,-3.119,-3.119,-3.119,-3.119,-3.119,-3.119,-3.119,-3.119,-3.119,-3.119,-3.119,-3.119,-3.119,-3.119,-3.119,-3.119,-3.119,-3.119,-3.119,-3.119,-3.119,-3.119,-3.119,-3.119,-3.119,-3.119,-3.119,-3.119,-3.119,-3.119,-3.119,-3.119,-3.119,-3.119,-3.1123,-3.0852,-3.0125,-2.9364,-2.8602,-2.7807,-2.7165,-2.6691,-2.6691,-2.6691,-2.6691,-2.6691,-2.6691,-2.6641,-2.6471,-2.5302,-2.4879,-2.6251,-2.5268,-2.4981,-2.6522,-2.6691,-2.6691,-2.6691,-2.6691,-2.6691,-2.6691,-2.6691,-2.6691,-2.6691,-2.6691,-2.6691,-2.6691,-2.6691,-2.6691,-2.6691,-2.6691,-2.6691,-2.6691,-2.6691,-2.6691,-2.6691,-2.6691,-2.6691,-2.6691,-2.6691,-2.6691,-2.6691,-2.6691,-2.6691,-2.6759,-2.7384,-2.7621,-2.7722,-2.8518,-2.8824,-2.8942,-3.56,-3.56,-3.56,-3.56,-3.56,-3.56,-3.56,-3.56,-3.56,-3.56,-3.56,-3.56,-3.56,-3.5498,-3.5182,-3.4539,-3.3728,-3.2916,-3.2192,-3.1565,-3.119,-3.119,-3.119,-3.119,-3.119,-3.119,-3.119,-3.119,-3.119,-3.119,-3.119,-3.119,-3.119,-3.119,-3.119,-3.119,-3.119,-3.119,-3.119,-3.119,-3.119,-3.119,-3.119,-3.119,-3.119,-3.119,-3.119,-3.119,-3.119,-3.119,-3.119,-3.119,-3.119,-3.119,-3.119,-3.119,-3.119,-3.119,-3.119,-3.0751,-3.0091,-2.9365,-2.8569,-2.779,-2.7046,-2.6776,-2.6691,-2.6691,-2.6691,-2.6691,-2.6691,-2.6691,-2.6386,-2.5415,-2.5852,-2.6045,-2.5362,-2.5852,-2.6387,-2.6674,-2.6691,-2.6691,-2.6691,-2.6691,-2.6691,-2.6691,-2.6691,-2.6691,-2.6691,-2.6691,-2.6691,-2.6691,-2.6691,-2.6691,-2.6691,-2.6691,-2.6691,-2.6691,-2.6691,-2.6691,-2.6691,-2.6691,-2.6691,-2.6691,-2.6691,-2.6691,-2.6691,-2.6691,-2.6691,-2.6708,-2.6826,-2.686,-2.6962,-2.7705,-2.7993,-2.8094,-3.56,-3.56,-3.56,-3.56,-3.56,-3.56,-3.56,-3.56,-3.56,-3.56,-3.56,-3.56,-3.56,-3.56,-3.5447,-3.5131,-3.4421,-3.3677,-3.2933,-3.1816,-3.119,-3.119,-3.119,-3.119,-3.119,-3.119,-3.119,-3.119,-3.119,-3.119,-3.119,-3.119,-3.119,-3.119,-3.119,-3.119,-3.119,-3.119,-3.119,-3.119,-3.119,-3.119,-3.119,-3.119,-3.1332,-3.1526,-3.1526,-3.1677,-3.1914,-3.1914,-3.1914,-3.1914,-3.1914,-3.1914,-3.1914,-3.1914,-3.1714,-3.1384,-3.0777,-3.0519,-3.0102,-2.8708,-2.8253,-2.7928,-2.7174,-2.7194,-2.735,-2.735,-2.735,-2.735,-2.735,-2.7178,-2.6919,-2.6604,-2.6,-2.5799,-2.647,-2.613,-2.6207,-2.7217,-2.735,-2.735,-2.735,-2.735,-2.735,-2.735,-2.735,-2.735,-2.735,-2.7147,-2.7115,-2.7332,-2.6923,-2.6691,-2.6691,-2.6691,-2.6691,-2.6691,-2.6691,-2.6691,-2.6691,-2.6691,-2.6691,-2.6691,-2.6691,-2.6691,-2.6691,-2.6691,-2.6691,-2.6691,-2.6691,-2.6691,-2.6742,-2.708,-2.7215,-2.7334,-3.56,-3.56,-3.56,-3.56,-3.56,-3.56,-3.56,-3.56,-3.56,-3.56,-3.56,-3.56,-3.56,-3.56,-3.56,-3.56,-3.4928,-3.4184,-3.3457,-3.2171,-3.1376,-3.1207,-3.119,-3.119,-3.119,-3.119,-3.119,-3.119,-3.119,-3.119,-3.119,-3.119,-3.119,-3.121,-3.131,-3.1291,-3.121,-3.131,-3.1291,-3.119,-3.119,-3.1269,-3.1332,-3.1332,-3.1603,-3.1951,-3.1951,-3.2179,-3.2501,-3.2501,-3.2501,-3.2501,-3.2501,-3.2501,-3.2501,-3.2501,-3.2192,-3.162,-3.0657,-3.0334,-2.9952,-2.8459,-2.8178,-2.8141,-2.7563,-2.7678,-2.7897,-2.7897,-2.7897,-2.7897,-2.7897,-2.7648,-2.7452,-2.7481,-2.6294,-2.5852,-2.7267,-2.6469,-2.6298,-2.7734,-2.7897,-2.7897,-2.7897,-2.7897,-2.7897,-2.7897,-2.7897,-2.7897,-2.7897,-2.7622,-2.7574,-2.7897,-2.7303,-2.6988,-2.6988,-2.6988,-2.6988,-2.6988,-2.689,-2.6841,-2.6841,-2.6741,-2.6691,-2.6691,-2.6691,-2.6691,-2.6691,-2.6691,-2.6691,-2.6691,-2.6691,-2.6691,-2.6691,-2.6691,-2.6691,-2.6776,-3.56,-3.56,-3.56,-3.56,-3.56,-3.56,-3.56,-3.56,-3.56,-3.56,-3.56,-3.56,-3.56,-3.56,-3.56,-3.56,-3.4928,-3.4184,-3.3457,-3.2666,-3.1921,-3.1224,-3.119,-3.119,-3.119,-3.119,-3.119,-3.119,-3.119,-3.119,-3.119,-3.119,-3.119,-3.121,-3.1584,-3.1564,-3.123,-3.1603,-3.1545,-3.119,-3.119,-3.143,-3.1752,-3.1752,-3.2039,-3.2451,-3.2451,-3.2467,-3.2501,-3.2501,-3.2501,-3.2501,-3.2501,-3.2501,-3.2501,-3.2501,-3.2262,-3.1873,-3.1351,-3.0178,-2.9097,-2.8961,-2.8426,-2.7925,-2.7872,-2.7883,-2.7897,-2.7897,-2.7897,-2.7897,-2.7897,-2.7883,-2.7496,-2.641,-2.7018,-2.7317,-2.6377,-2.7081,-2.7752,-2.788,-2.7897,-2.7897,-2.7897,-2.7897,-2.7897,-2.7897,-2.7897,-2.7897,-2.7897,-2.7869,-2.7869,-2.7897,-2.784,-2.7811,-2.7811,-2.7811,-2.7811,-2.7811,-2.7424,-2.7257,-2.7239,-2.6873,-2.6691,-2.6691,-2.6691,-2.6691,-2.6691,-2.6691,-2.6691,-2.6691,-2.6691,-2.6691,-2.6691,-2.6691,-2.6691,-2.6725,-3.56,-3.56,-3.56,-3.56,-3.56,-3.56,-3.56,-3.56,-3.56,-3.56,-3.56,-3.56,-3.56,-3.5898,-3.6097,-3.6097,-3.5839,-3.5173,-3.3974,-3.3325,-3.2442,-3.1241,-3.119,-3.119,-3.119,-3.119,-3.119,-3.119,-3.119,-3.119,-3.121,-3.1468,-3.1565,-3.1584,-3.2039,-3.1986,-3.1603,-3.2057,-3.1986,-3.1603,-3.1878,-3.2109,-3.223,-3.223,-3.2534,-3.2937,-3.2937,-3.309,-3.3299,-3.3299,-3.3299,-3.3299,-3.3299,-3.3299,-3.3208,-3.2705,-3.2128,-3.1482,-3.0794,-3.0007,-2.9207,-2.8486,-2.8261,-2.821,-2.821,-2.8399,-2.8589,-2.8589,-2.8589,-2.8589,-2.8589,-2.8373,-2.8143,-2.7937,-2.8058,-2.8143,-2.7937,-2.8291,-2.8589,-2.8589,-2.8589,-2.8589,-2.8589,-2.8589,-2.8589,-2.8589,-2.8589,-2.8589,-2.8589,-2.8589,-2.8469,-2.8224,-2.8438,-2.8347,-2.7911,-2.7897,-2.7897,-2.7897,-2.7485,-2.7303,-2.7288,-2.689,-2.6691,-2.6691,-2.6691,-2.6691,-2.6691,-2.6691,-2.6691,-2.6691,-2.6691,-2.6691,-2.6691,-2.6691,-2.6691,-2.6691,-3.56,-3.5739,-3.5854,-3.5854,-3.5989,-3.6101,-3.6101,-3.6101,-3.6101,-3.6101,-3.6101,-3.6101,-3.6101,-3.6437,-3.6583,-3.6416,-3.6187,-3.5472,-3.4034,-3.3282,-3.2383,-3.1261,-3.119,-3.119,-3.119,-3.119,-3.1252,-3.1389,-3.1389,-3.1468,-3.1601,-3.1879,-3.2022,-3.2039,-3.2517,-3.245,-3.2039,-3.2534,-3.245,-3.2039,-3.2384,-3.2583,-3.2713,-3.2713,-3.2999,-3.3375,-3.3375,-3.3564,-3.3807,-3.3807,-3.3807,-3.3807,-3.3807,-3.3623,-3.3311,-3.2748,-3.1861,-3.0889,-3.0356,-2.9813,-2.921,-2.8434,-2.8412,-2.859,-2.859,-2.8797,-2.9005,-2.9005,-2.9005,-2.9005,-2.9005,-2.8773,-2.8682,-2.897,-2.8773,-2.8682,-2.8952,-2.9005,-2.9005,-2.9005,-2.9005,-2.9005,-2.9005,-2.9005,-2.9005,-2.9005,-2.9005,-2.9005,-2.9005,-2.9005,-2.8863,-2.8608,-2.8851,-2.8767,-2.8242,-2.8259,-2.8259,-2.8242,-2.7833,-2.7646,-2.7631,-2.7255,-2.7067,-2.7067,-2.7067,-2.7067,-2.7067,-2.7067,-2.7067,-2.7067,-2.7067,-2.7067,-2.7067,-2.7067,-2.7067,-2.7067,-3.5622,-3.6032,-3.6412,-3.6412,-3.6843,-3.7209,-3.7209,-3.7209,-3.7209,-3.7209,-3.7209,-3.7209,-3.7209,-3.7192,-3.6981,-3.644,-3.5726,-3.478,-3.3482,-3.2406,-3.164,-3.123,-3.121,-3.121,-3.121,-3.121,-3.1411,-3.1807,-3.1807,-3.2039,-3.2501,-3.2501,-3.2501,-3.2534,-3.2999,-3.2952,-3.2534,-3.2999,-3.2937,-3.2501,-3.2517,-3.2777,-3.3199,-3.3199,-3.3447,-3.3807,-3.3807,-3.3807,-3.3807,-3.3807,-3.3807,-3.3807,-3.3807,-3.3256,-3.2601,-3.2583,-3.1445,-3.021,-3.0191,-2.961,-2.9005,-2.9005,-2.9005,-2.9005,-2.9005,-2.9005,-2.9005,-2.9005,-2.9005,-2.9005,-2.9005,-2.9005,-2.9005,-2.9005,-2.9005,-2.9005,-2.9005,-2.9005,-2.9005,-2.9005,-2.9005,-2.9005,-2.9005,-2.9005,-2.9005,-2.9005,-2.9005,-2.9005,-2.9005,-2.9005,-2.9005,-2.9005,-2.9005,-2.9005,-2.9005,-2.9005,-2.9005,-2.8994,-2.859,-2.8407,-2.8394,-2.8047,-2.7897,-2.7897,-2.7897,-2.7897,-2.7897,-2.7897,-2.7897,-2.7897,-2.7897,-2.7897,-2.7897,-2.7897,-2.7897,-2.7897,-3.6726,-3.6845,-3.696,-3.696,-3.7078,-3.7209,-3.7209,-3.7209,-3.7209,-3.7209,-3.7209,-3.7209,-3.7209,-3.7488,-3.7399,-3.6684,-3.6417,-3.551,-3.3664,-3.2757,-3.2248,-3.2127,-3.2109,-3.2109,-3.2109,-3.2109,-3.2161,-3.2299,-3.2299,-3.2349,-3.2517,-3.2842,-3.2999,-3.3014,-3.3419,-3.339,-3.3014,-3.3433,-3.3375,-3.3014,-3.3299,-3.3508,-3.3606,-3.3606,-3.3694,-3.3807,-3.3807,-3.3807,-3.3807,-3.3807,-3.3807,-3.3807,-3.3807,-3.3256,-3.2491,-3.1916,-3.1017,-3.0081,-2.95,-2.9189,-2.9005,-2.9005,-2.9005,-2.9005,-2.9005,-2.9005,-2.9005,-2.9005,-2.9005,-2.9005,-2.9005,-2.9005,-2.9005,-2.9005,-2.9005,-2.9005,-2.9005,-2.9005,-2.9005,-2.9005,-2.9005,-2.9005,-2.9005,-2.9005,-2.9005,-2.9005,-2.9005,-2.9005,-2.9005,-2.9005,-2.9005,-2.9005,-2.9005,-2.9005,-2.9005,-2.9005,-2.9005,-2.8994,-2.859,-2.8407,-2.8394,-2.8047,-2.7897,-2.7897,-2.7897,-2.7897,-2.7897,-2.7897,-2.7897,-2.7897,-2.7897,-2.7897,-2.7897,-2.7897,-2.7897,-2.7897,-3.7209,-3.7341,-3.747,-3.747,-3.7649,-3.7791,-3.7791,-3.7791,-3.7791,-3.7791,-3.7791,-3.7791,-3.7791,-3.776,-3.7462,-3.6758,-3.5961,-3.4829,-3.3279,-3.2913,-3.2777,-3.2777,-3.2934,-3.2856,-3.2517,-3.2501,-3.2583,-3.2777,-3.2777,-3.2856,-3.3011,-3.3299,-3.3451,-3.3451,-3.3694,-3.3666,-3.3447,-3.3694,-3.3666,-3.3465,-3.3707,-3.3807,-3.3807,-3.3807,-3.3807,-3.3807,-3.3807,-3.3807,-3.3807,-3.3807,-3.3807,-3.3733,-3.344,-3.2779,-3.1971,-3.1164,-3.0356,-2.961,-2.9133,-2.9005,-2.9005,-2.9005,-2.9005,-2.9005,-2.9005,-2.9005,-2.9005,-2.9005,-2.9005,-2.9005,-2.9005,-2.9005,-2.9005,-2.9005,-2.9005,-2.9005,-2.9005,-2.9005,-2.9005,-2.9005,-2.9005,-2.9005,-2.9005,-2.9005,-2.9005,-2.9005,-2.9005,-2.9005,-2.9005,-2.9005,-2.9005,-2.9005,-2.9005,-2.9005,-2.9005,-2.9005,-2.9005,-2.8994,-2.8761,-2.8645,-2.8633,-2.8443,-2.8339,-2.8339,-2.8339,-2.8339,-2.8339,-2.8339,-2.8339,-2.8339,-2.8339,-2.8339,-2.8339,-2.8339,-2.8339,-2.8339,-3.7323,-3.7685,-3.7963,-3.7963,-3.8382,-3.8707,-3.8707,-3.8707,-3.8707,-3.8707,-3.8707,-3.8707,-3.8707,-3.7988,-3.7272,-3.6714,-3.479,-3.3327,-3.2651,-3.3014,-3.3258,-3.3258,-3.3592,-3.3433,-3.2632,-3.2616,-3.2825,-3.3258,-3.3258,-3.3451,-3.3807,-3.3807,-3.3807,-3.3807,-3.3807,-3.3807,-3.3807,-3.3807,-3.3807,-3.3807,-3.3807,-3.3807,-3.3807,-3.3807,-3.3807,-3.3807,-3.3807,-3.3807,-3.3807,-3.3807,-3.3807,-3.366,-3.2839,-3.2045,-3.125,-3.0448,-2.9629,-2.9005,-2.9005,-2.9005,-2.9005,-2.9005,-2.9005,-2.9005,-2.9005,-2.9005,-2.9005,-2.9005,-2.9005,-2.9005,-2.9005,-2.9005,-2.9005,-2.9005,-2.9005,-2.9005,-2.9005,-2.9005,-2.9005,-2.9005,-2.9005,-2.9005,-2.9005,-2.9005,-2.9005,-2.9005,-2.9005,-2.9005,-2.9005,-2.9005,-2.9005,-2.9005,-2.9005,-2.9005,-2.9005,-2.9005,-2.9005,-2.9005,-2.9005,-2.9005,-2.9005,-2.9005,-2.9005,-2.9005,-2.9005,-2.9005,-2.9005,-2.9005,-2.9005,-2.9005,-2.9005,-2.9005,-2.9005,-2.9005,-2.9005,-2.9005,-3.8366,-3.8449,-3.853,-3.853,-3.8627,-3.8707,-3.8707,-3.8707,-3.8707,-3.8707,-3.8707,-3.8707,-3.8707,-3.7988,-3.7191,-3.6461,-3.4768,-3.3686,-3.3536,-3.3606,-3.368,-3.368,-3.3748,-3.3707,-3.3518,-3.3518,-3.3578,-3.368,-3.368,-3.3707,-3.3807,-3.3807,-3.3807,-3.3807,-3.3807,-3.3807,-3.3807,-3.3807,-3.3807,-3.3807,-3.3807,-3.3807,-3.3807,-3.3807,-3.3807,-3.3807,-3.3807,-3.3807,-3.3807,-3.3807,-3.3807,-3.366,-3.2839,-3.2045,-3.125,-3.0448,-2.9629,-2.9005,-2.9005,-2.9005,-2.9005,-2.9005,-2.9005,-2.9005,-2.9005,-2.9005,-2.9005,-2.9005,-2.9005,-2.9005,-2.9005,-2.9005,-2.9005,-2.9005,-2.9005,-2.9005,-2.9005,-2.9005,-2.9005,-2.9005,-2.9005,-2.9005,-2.9005,-2.9005,-2.9005,-2.9005,-2.9005,-2.9005,-2.9005,-2.9005,-2.9005,-2.9005,-2.9005,-2.9005,-2.9005,-2.9005,-2.9005,-2.9005,-2.9005,-2.9005,-2.9005,-2.9005,-2.9005,-2.9005,-2.9005,-2.9005,-2.9005,-2.9005,-2.9005,-2.9005,-2.9005,-2.9005,-2.9005,-2.9005,-2.9005,-2.9005,-3.8707,-3.8707,-3.8707,-3.8707,-3.8707,-3.8707,-3.8707,-3.8707,-3.8707,-3.8707,-3.8707,-3.856,-3.8175,-3.7419,-3.6446,-3.5202,-3.4302,-3.3807,-3.3807,-3.3807,-3.3807,-3.3807,-3.3807,-3.3807,-3.3807,-3.3807,-3.3807,-3.3807,-3.3807,-3.3807,-3.3807,-3.3807,-3.3807,-3.3807,-3.3807,-3.3807,-3.3807,-3.3807,-3.3807,-3.3807,-3.3807,-3.3807,-3.3807,-3.3807,-3.3807,-3.3807,-3.3807,-3.3807,-3.3815,-3.3948,-3.3999,-3.3802,-3.2741,-3.2128,-3.1544,-3.0312,-2.9661,-2.9326,-2.9326,-2.9326,-2.9326,-2.9326,-2.9326,-2.9272,-2.9055,-2.91,-2.9156,-2.904,-2.9174,-2.9304,-2.9203,-2.9181,-2.9181,-2.9181,-2.9078,-2.9005,-2.9005,-2.9005,-2.9005,-2.9005,-2.9005,-2.9005,-2.9005,-2.9005,-2.9005,-2.9005,-2.9005,-2.9005,-2.9005,-2.9005,-2.9005,-2.9005,-2.9123,-2.9134,-2.9005,-2.9134,-2.9134,-2.9005,-2.9005,-2.9005,-2.9005,-2.9005,-2.9005,-2.9005,-2.9005,-2.9005,-2.9005,-2.9005,-2.9005,-2.9005,-2.9005,-2.9005,-2.9005,-2.9005,-2.9005,-2.9005,-3.8707,-3.8707,-3.8707,-3.8707,-3.8707,-3.8707,-3.8707,-3.8707,-3.8707,-3.8707,-3.8579,-3.823,-3.7566,-3.6652,-3.5459,-3.3935,-3.3807,-3.3807,-3.3807,-3.3807,-3.3807,-3.3807,-3.3807,-3.3807,-3.3807,-3.3807,-3.3807,-3.3807,-3.3807,-3.3807,-3.3807,-3.3807,-3.3807,-3.3807,-3.3807,-3.3807,-3.3807,-3.3807,-3.3807,-3.3807,-3.3807,-3.3807,-3.3807,-3.3807,-3.3807,-3.382,-3.3855,-3.3921,-3.3992,-3.4206,-3.4195,-3.3837,-3.2589,-3.2091,-3.1675,-3.0157,-2.9705,-2.9705,-2.9705,-2.9705,-2.9705,-2.9705,-2.9705,-2.9598,-2.9217,-2.9291,-2.9394,-2.9171,-2.9436,-2.9643,-2.9474,-2.9454,-2.9454,-2.9454,-2.9259,-2.9115,-2.9115,-2.9115,-2.9115,-2.9115,-2.9115,-2.9115,-2.9115,-2.9115,-2.9115,-2.9115,-2.9115,-2.9115,-2.9115,-2.9115,-2.9115,-2.9115,-2.9332,-2.9343,-2.9127,-2.9343,-2.9343,-2.9115,-2.9115,-2.9089,-2.9005,-2.9005,-2.9005,-2.9005,-2.9005,-2.9005,-2.9005,-2.9044,-2.9067,-2.9067,-2.9067,-2.9067,-2.9055,-2.9017,-2.9005,-2.9005,-3.8707,-3.8707,-3.8707,-3.8707,-3.8707,-3.8707,-3.8707,-3.8707,-3.8707,-3.8707,-3.8083,-3.7621,-3.7511,-3.6119,-3.4802,-3.388,-3.3807,-3.3807,-3.3807,-3.3807,-3.3807,-3.3807,-3.3807,-3.3807,-3.3807,-3.3807,-3.3807,-3.3807,-3.3807,-3.3807,-3.3807,-3.3807,-3.3807,-3.3807,-3.3807,-3.3807,-3.3807,-3.3807,-3.3807,-3.3807,-3.3807,-3.3807,-3.3807,-3.3807,-3.3807,-3.3829,-3.4068,-3.4323,-3.4591,-3.4622,-3.4133,-3.3351,-3.2477,-3.1685,-3.0894,-2.996,-2.9705,-2.9705,-2.9705,-2.9705,-2.9705,-2.9705,-2.9705,-2.9687,-2.9625,-2.9634,-2.9643,-2.9616,-2.9661,-2.9696,-2.9661,-2.9652,-2.9652,-2.9652,-2.9625,-2.9607,-2.9607,-2.9607,-2.9607,-2.9607,-2.9607,-2.9607,-2.9607,-2.9607,-2.9607,-2.9607,-2.9607,-2.9607,-2.9607,-2.9607,-2.9607,-2.9607,-2.9643,-2.9643,-2.9607,-2.9643,-2.9643,-2.9607,-2.9607,-2.9397,-2.9005,-2.9005,-2.9005,-2.9005,-2.9005,-2.9005,-2.9028,-2.9246,-2.9351,-2.9351,-2.9351,-2.9351,-2.932,-2.9078,-2.9005,-2.9005,-3.8707,-3.8707,-3.8707,-3.8707,-3.8707,-3.8707,-3.8707,-3.8707,-3.8707,-3.8707,-3.7991,-3.7327,-3.6886,-3.533,-3.4192,-3.3825,-3.3807,-3.3807,-3.3807,-3.3807,-3.3807,-3.3807,-3.3807,-3.3807,-3.3807,-3.3807,-3.3807,-3.3807,-3.3807,-3.3807,-3.3807,-3.3807,-3.3807,-3.3807,-3.3807,-3.3807,-3.3807,-3.3807,-3.3807,-3.3807,-3.3807,-3.3889,-3.4018,-3.4018,-3.4141,-3.4325,-3.4442,-3.4572,-3.4714,-3.486,-3.4329,-3.3492,-3.2816,-3.2027,-3.118,-3.0348,-3.0099,-3.0099,-3.0099,-3.0099,-3.0099,-3.0099,-3.0099,-3.0099,-3.0099,-3.0099,-3.0015,-2.9756,-2.9904,-3.0044,-2.9893,-2.9869,-2.9869,-2.9869,-2.9763,-2.9705,-2.9705,-2.9705,-2.9705,-2.9705,-2.9705,-2.9705,-2.9705,-2.9705,-2.9705,-2.9705,-2.9705,-2.9705,-2.9705,-2.9705,-2.9705,-2.9705,-2.9804,-2.9813,-2.9705,-2.9813,-2.9813,-2.9705,-2.9705,-2.9588,-2.9387,-2.9387,-2.9387,-2.9387,-2.9387,-2.9387,-2.9397,-2.9514,-2.9561,-2.957,-2.9444,-2.931,-2.9167,-2.9033,-2.9005,-2.9005]},{"header":{"parameterUnit":"m.s-1","parameterCategory":1,"la1":30.6,"la2":28.766,"lo1":-90.7593,"lo2":-88.6598,"dy":0.0162,"dx":0.0183,"nx":116,"ny":114,"refTime":"2023-08-09T12:00:00:Z","depth":0,"parameterNumber":3,"parameterNumberName":"V-component_of_WINDS"},"data":[0.0,0.0,0.0,0.0,0.0,0.0,0.0,0.0,0.0,0.0,0.0,0.0,0.0,0.0,0.0,0.0,0.0,0.0,0.0,0.0,0.0,0.0,0.0,0.0,0.0,0.0,0.0,0.0,0.0,0.0,0.0,0.0,0.0,0.0,0.0,0.0,0.0,0.0,0.0,0.0,0.0,0.0,0.0,0.0,0.0,0.0,0.0,0.0,0.0,0.0,0.0,0.0,0.0,0.0,0.0,0.0,0.0,0.0,0.0,0.0,0.0,0.0,0.0,0.0,0.0,0.0,0.0,0.0,0.0,0.0,0.0,0.0,0.0,0.0,0.0,0.0,0.0,0.0,0.0,0.0,0.0,0.0,0.0,0.0,0.0,0.0,0.0,0.0,0.0,0.0,0.0,0.0,0.0,0.0,0.0,0.0,0.0,0.0,0.0,0.0,0.0,0.0,0.0,0.0,0.0,0.0,0.0,0.0,0.0,0.0,0.0,0.0,0.0,0.0,0.0,0.0,0.0,0.0,0.0,0.0,0.0,0.0,0.0,0.0,0.0,0.0,0.0,0.0,0.0,0.0,0.0,0.0,0.0,0.0,0.0,0.0,0.0,0.0,0.0,0.0,0.0,0.0,0.0,0.0,0.0,0.0,0.0,0.0,0.0,0.0,0.0,0.0,0.0,0.0,0.0,0.0,0.0,0.0,0.0,0.0,0.0,0.0,0.0,0.0,0.0,0.0,0.0,0.0,0.0,0.0,0.0,0.0,0.0,0.0,0.0,0.0,0.0,0.0,0.0,0.0,0.0,0.0,0.0,0.0,0.0,0.0,0.0,0.0,0.0,0.0,0.0,0.0,0.0,0.0,0.0,0.0,0.0,0.0,0.0,0.0,0.0,0.0,0.0,0.0,0.0,0.0,0.0,0.0,0.0,0.0,0.0,0.0,0.0,0.0,0.0,0.0,0.0,0.0,0.0,0.0,0.0,0.0,0.0,0.0,0.0,0.0,0.0,0.0,0.0,0.0,0.0,0.0,0.0,0.0,0.0,0.0,0.0,0.0,0.0,0.0,0.0,0.0,0.0,0.0,0.0,0.0,0.0,0.0,0.0,0.0,0.0,0.0,0.0,0.0,0.0,0.0,0.0,0.0,0.0,0.0,0.0,0.0,0.0,0.0,0.0,0.0,0.0,0.0,0.0,0.0,0.0,0.0,0.0,0.0,0.0,0.0,0.0,0.0,0.0,0.0,0.0,0.0,0.0,0.0,0.0,0.0,0.0,0.0,0.0,0.0,0.0,0.0,0.0,0.0,0.0,0.0,0.0,0.0,0.0,0.0,0.0,0.0,0.0,0.0,0.0,0.0,0.0,0.0,0.0,0.0,0.0,0.0,0.0,0.0,0.0,0.0,0.0,0.0,0.0,0.0,0.0,0.0,0.0,0.0,0.0,0.0,0.0,0.0,0.0,0.0,0.0,0.0,0.0,0.0,0.0,0.0,0.0,0.0,0.0,0.0,0.0,0.0,0.0,0.0,0.0,0.0,0.0,0.0,0.0,0.0,0.0,0.0,0.0,0.0,0.0,0.0,0.0,0.0,0.0,0.0,0.0,0.0,0.0,0.0,0.0,0.0,0.0,0.0,0.0,0.0,0.0,0.0,0.0,0.0,0.0,0.0,0.0,0.0,0.0,0.0,0.0,0.0,0.0,0.0,0.0,0.0,0.0,0.0,0.0,0.0,0.0,0.0,0.0,0.0,0.0,0.0,0.0,0.0,0.0,0.0,0.0,0.0,0.0,0.0,0.0,0.0,0.0,0.0,0.0,0.0,0.0,0.0,0.0,0.0,0.0,0.0,0.0,0.0,0.0,0.0,0.0,0.0,0.0,0.0,0.0,0.0,0.0,0.0,0.0,0.0,0.0,0.0,0.0,0.0,0.0,0.0,0.0,0.0,0.0,0.0,0.0,0.0,0.0,0.0,0.0,0.0,0.0,0.0,0.0,0.0,0.0,0.0,0.0,0.0,0.0,0.0,0.0,0.0,0.0,0.0,0.0,0.0,0.0,0.0,0.0,0.0,0.0,0.0,0.0,0.0,0.0,0.0,0.0,0.0,0.0,0.0,0.0,0.0,0.0,0.0,0.0,0.0,0.0,0.0,0.0,0.0,0.0,0.0,0.0,0.0,0.0,0.0,0.0,0.0,0.0,0.0,0.0,0.0,0.0,0.0,0.0,0.0,0.0,0.0,0.0,0.0,0.0,0.0,0.0,0.0,0.0,0.0,0.0,0.0,0.0,0.0,0.0,0.0,0.0,0.0,0.0,0.0,0.0,0.0,0.0,0.0,0.0,0.0,0.0,0.0,0.0,0.0,0.0,0.0,0.0,0.0,0.0,0.0,0.0,0.0,0.0,0.0,0.0,0.0,0.0,0.0,0.0,0.0,0.0,0.0,0.0,0.0,0.0,0.0,0.0,0.0,0.0,0.0,0.0,0.0,0.0,0.0,0.0,0.0,0.0,0.0,0.0,0.0,0.0,0.0,0.0,0.0,0.0,0.0,0.0,0.0,0.0,0.0,0.0,0.0,0.0,0.0,0.0,0.0,0.0,0.0,0.0,0.0,0.0,0.0,0.0,0.0,0.0,0.0,0.0,0.0,0.0,0.0,0.0,0.0,0.0,0.0,0.0,0.0,0.0,0.0,0.0,0.0,0.0,0.0,0.0,0.0,0.0,0.0,0.0,0.0,0.0,0.0,0.0,0.0,0.0,0.0,0.0,0.0,0.0,0.0,0.0,0.0,0.0,0.0,0.0,0.0,0.0,0.0,0.0,0.0,0.0,0.0,0.0,0.0,0.0,0.0,0.0,0.0,0.0,0.0,0.0,0.0,0.0,0.0,0.0,0.0,0.0,0.0,0.0,0.0,0.0,0.0,0.0,0.0,0.0,0.0,0.0,0.0,0.0,0.0,0.0,0.0,0.0,0.0,0.0,0.0,0.0,0.0,0.0,0.0,0.0,0.0,0.0,0.0,0.0,0.0,0.0,0.0,0.0,0.0,0.0,0.0,0.0,0.0,0.0,0.0,0.0,0.0,0.0,0.0,0.0,0.0,0.0,0.0,0.0,0.0,0.0,0.0,0.0,0.0,0.0,0.0,0.0,0.0,0.0,0.0,0.0,0.0,0.0,0.0,0.0,0.0,0.0,0.0,0.0,0.0,0.0,0.0,0.0,0.0,0.0,0.0,0.0,0.0,0.0,0.0,0.0,0.0,0.0,0.0,0.0,0.0,0.0,0.0,0.0,0.0,0.0,0.0,0.0,0.0,0.0,0.0,0.0,0.0,0.0,0.0,0.0,0.0,0.0,0.0,0.0,0.0,0.0,0.0,0.0,0.0,0.0,0.0,0.0,0.0,0.0,0.0,0.0,0.0,0.0,0.0,0.0,0.0,0.0,0.0,0.0,0.0,0.0,0.0,0.0,0.0,0.0,0.0,0.0,0.0,0.0,0.0,0.0,0.0,0.0,0.0,0.0,0.0,0.0,0.0,0.0,0.0,0.0,0.0,0.0,0.0,0.0,0.0,0.0,0.0,0.0,0.0,0.0,0.0,0.0,0.0,0.0,0.0,0.0,0.0,0.0,0.0,0.0,0.0,0.0,0.0,0.0,0.0,0.0,0.0,0.0,0.0,0.0,0.0,0.0,0.0,0.0,0.0,0.0,0.0,0.0,0.0,0.0,0.0,0.0,0.0,0.0,0.0,0.0,0.0,0.0,0.0,0.0,0.0,0.0,0.0,0.0,0.0,0.0,0.0,0.0,0.0,0.0,0.0,0.0,0.0,0.0,0.0,0.0,0.0,0.0,0.0,0.0,0.0,0.0,0.0,0.0,0.0,0.0,0.0,0.0,0.0,0.0,0.0,0.0,0.0,0.0,0.0,0.0,0.0,0.0,0.0,0.0,0.0,0.0,0.0,0.0,0.0,0.0,0.0,0.0,0.0,0.0,0.0,0.0,0.0,0.0,0.0,0.0,0.0,0.0,0.0,0.0,0.0,0.0,0.0,0.0,0.0,0.0,0.0,0.0,0.0,0.0,0.0,0.0,0.0,0.0,0.0,0.0,0.0,0.0,0.0,0.0,0.0,0.0,0.0,0.0,0.0,0.0,0.0,0.0,0.0,0.0,0.0,0.0,0.0,0.0,0.0,0.0,0.0,0.0,0.0,0.0,0.0,0.0,0.0,0.0,0.0,0.0,0.0,0.0,0.0,0.0,0.0,0.0,0.0,0.0,0.0,0.0,0.0,0.0,0.0,0.0,0.0,0.0,0.0,0.0,0.0,0.0,0.0,0.0,0.0,0.0,0.0,0.0,0.0,0.0,0.0,0.0,0.0,0.0,0.0,0.0,0.0,0.0,0.0,0.0,0.0,0.0,0.0,0.0,0.0,0.0,0.0,0.0,0.0,0.0,0.0,0.0,0.0,0.0,0.0,0.0,0.0,0.0,0.0,0.0,0.0,0.0,0.0,0.0,0.0,0.0,0.0,0.0,0.0,0.0,0.0,0.0,0.0,0.0,0.0,0.0,0.0,0.0,0.0,0.0,0.0,0.0,0.0,0.0,0.0,0.0,0.0,0.0,0.0,0.0,0.0,0.0,0.0,0.0,0.0,0.0,0.0,0.0,0.0,0.0,0.0,0.0,0.0,0.0,0.0,0.0,0.0,0.0,0.0,0.0,0.0,0.0,0.0,0.0,0.0,0.0,0.0,0.0,0.0,0.0,0.0,0.0,0.0,0.0,0.0,0.0,0.0,0.0,0.0,0.0,0.0,0.0,0.0,0.0,0.0,0.0,0.0,0.0,0.0,0.0,0.0,0.0,0.0,0.0,0.0,0.0,0.0,0.0,0.0,0.0,0.0,0.0,0.0,0.0,0.0,0.0,0.0,0.0,0.0,0.0,0.0,0.0,0.0,0.0,0.0,0.0,0.0,0.0,0.0,0.0,0.0,0.0,0.0,0.0,0.0,0.0,0.0,0.0,0.0,0.0,0.0,0.0,0.0,0.0,0.0,0.0,0.0,0.0,0.0,0.0,0.0,0.0,0.0,0.0,0.0,0.0,0.0,0.0,0.0,0.0,0.0,0.0,0.0,0.0,0.0,0.0,0.0,0.0,0.0,0.0,0.0,0.0,0.0,0.0,0.0,0.0,0.0,0.0,0.0,0.0,0.0,0.0,0.0,0.0,0.0,0.0,0.0,0.0,0.0,0.0,0.0,0.0,0.0,0.0,0.0,0.0,0.0,0.0,0.0,0.0,0.0,0.0,0.0,0.0,0.0,0.0,0.0,0.0,0.0,0.0,0.0,0.0,0.0,0.0,0.0,0.0,0.0,0.0,0.0,0.0,0.0,0.0,0.0,0.0,0.0,0.0,0.0,0.0,0.0,0.0,0.0,0.0,0.0,0.0,0.0,0.0,0.0,0.0,0.0,0.0,0.0,0.0,0.0,0.0,0.0,0.0,0.0,0.0,0.0,0.0,0.0,0.0,0.0,0.0,0.0,0.0,0.0,0.0,0.0,0.0,0.0,0.0,0.0,0.0,0.0,0.0,0.0,0.0,0.0,0.0,0.0,0.0,0.0,0.0,0.0,0.0,0.0,0.0,0.0,0.0,0.0,0.0,0.0,0.0,0.0,0.0,0.0,0.0,0.0,0.0,0.0,0.0,0.0,0.0,0.0,0.0,0.0,0.0,0.0,0.0,0.0,0.0,0.0,0.0,0.0,0.0,0.0,0.0,0.0,0.0,0.0,0.0,0.0,0.0,0.0,0.0,0.0,0.0,0.0,0.0,0.0,0.0,0.0,0.0,0.0,0.0,0.0,0.0,0.0,0.0,0.0,0.0,0.0,0.0,0.0,0.0,0.0,0.0,0.0,0.0,0.0,0.0,0.0,0.0,0.0,0.0,0.0,0.0,0.0,0.0,0.0,0.0,0.0,0.0,0.0,0.0,0.0,0.0,0.0,0.0,0.0,0.0,0.0,0.0,0.0,0.0,0.0,0.0,0.0,0.0,0.0,0.0,0.0,0.0,0.0,0.0,0.0,0.0,0.0,0.0,0.0,0.0,0.0,0.0,0.0,0.0,0.0,-2.6286,-2.435,0.0,0.0,0.0,0.0,0.0,0.0,0.0,0.0,0.0,0.0,0.0,0.0,0.0,0.0,0.0,0.0,0.0,0.0,0.0,0.0,0.0,0.0,0.0,0.0,0.0,0.0,0.0,0.0,0.0,0.0,0.0,0.0,0.0,0.0,0.0,0.0,0.0,0.0,0.0,0.0,0.0,0.0,0.0,0.0,0.0,0.0,0.0,0.0,0.0,0.0,0.0,0.0,0.0,0.0,0.0,0.0,0.0,0.0,0.0,0.0,0.0,0.0,0.0,0.0,0.0,0.0,0.0,0.0,0.0,0.0,0.0,0.0,0.0,0.0,0.0,0.0,0.0,0.0,0.0,0.0,0.0,0.0,0.0,0.0,0.0,0.0,0.0,0.0,0.0,0.0,0.0,0.0,0.0,0.0,0.0,0.0,0.0,0.0,0.0,0.0,0.0,0.0,0.0,0.0,0.0,0.0,0.0,0.0,0.0,0.0,0.0,0.0,0.0,0.0,-2.8015,-2.6435,0.0,0.0,0.0,0.0,0.0,0.0,0.0,0.0,0.0,0.0,0.0,0.0,0.0,0.0,0.0,0.0,0.0,0.0,0.0,0.0,0.0,0.0,0.0,0.0,0.0,0.0,0.0,0.0,0.0,0.0,0.0,0.0,0.0,0.0,0.0,0.0,0.0,0.0,0.0,0.0,0.0,0.0,0.0,0.0,0.0,0.0,0.0,0.0,0.0,0.0,0.0,0.0,0.0,0.0,0.0,0.0,0.0,0.0,0.0,0.0,0.0,0.0,0.0,0.0,0.0,0.0,0.0,0.0,0.0,0.0,0.0,0.0,0.0,0.0,0.0,0.0,0.0,0.0,0.0,0.0,0.0,0.0,0.0,0.0,0.0,0.0,0.0,0.0,0.0,0.0,0.0,0.0,0.0,0.0,0.0,0.0,0.0,0.0,0.0,0.0,0.0,0.0,0.0,0.0,0.0,0.0,0.0,0.0,-2.9248,-2.9434,-3.005,-2.9903,-3.0887,-3.2531,-2.934,-2.8505,-2.9247,-2.7351,0.0,0.0,0.0,0.0,0.0,0.0,0.0,0.0,0.0,0.0,0.0,0.0,0.0,0.0,0.0,0.0,0.0,0.0,0.0,0.0,0.0,0.0,0.0,0.0,0.0,0.0,0.0,0.0,0.0,0.0,0.0,0.0,0.0,0.0,0.0,0.0,0.0,0.0,0.0,0.0,0.0,0.0,0.0,0.0,0.0,0.0,0.0,0.0,0.0,0.0,0.0,0.0,0.0,0.0,0.0,0.0,0.0,0.0,0.0,0.0,0.0,0.0,0.0,0.0,0.0,0.0,0.0,0.0,0.0,0.0,0.0,0.0,0.0,0.0,0.0,0.0,0.0,0.0,0.0,0.0,0.0,0.0,0.0,0.0,0.0,0.0,-2.8221,-2.8433,0.0,0.0,0.0,0.0,0.0,0.0,0.0,0.0,0.0,0.0,0.0,0.0,0.0,-3.0904,-3.0647,-3.1818,-3.2252,-3.1957,-3.2462,-3.296,-3.344,-3.3022,-3.3196,-3.3835,-3.2917,0.0,-3.0886,-3.0581,0.0,0.0,0.0,0.0,0.0,0.0,0.0,0.0,0.0,0.0,0.0,0.0,0.0,0.0,0.0,0.0,0.0,0.0,0.0,0.0,0.0,0.0,0.0,0.0,0.0,0.0,0.0,0.0,0.0,0.0,0.0,0.0,0.0,0.0,0.0,0.0,0.0,0.0,0.0,0.0,0.0,0.0,0.0,0.0,0.0,0.0,0.0,0.0,0.0,0.0,0.0,0.0,0.0,0.0,0.0,0.0,0.0,0.0,0.0,0.0,0.0,0.0,0.0,0.0,0.0,0.0,0.0,0.0,0.0,0.0,0.0,0.0,0.0,0.0,0.0,0.0,0.0,0.0,0.0,0.0,0.0,0.0,0.0,0.0,0.0,-2.7218,-2.813,-2.8589,-2.8231,-2.7808,0.0,0.0,0.0,0.0,0.0,0.0,0.0,0.0,0.0,-3.1887,-3.2569,-3.3039,-3.3348,-3.3446,-3.3446,-3.3368,-3.3383,-3.3714,-3.4318,-3.4105,-3.4364,-3.4925,-3.4728,-3.4286,-3.3592,-3.2324,-3.1041,-2.9786,0.0,0.0,0.0,0.0,-2.8796,-2.8924,0.0,0.0,0.0,0.0,0.0,0.0,0.0,0.0,0.0,0.0,0.0,0.0,0.0,0.0,0.0,-2.8268,0.0,0.0,0.0,0.0,0.0,0.0,0.0,0.0,0.0,0.0,0.0,0.0,0.0,0.0,0.0,0.0,0.0,0.0,0.0,0.0,0.0,0.0,0.0,0.0,0.0,0.0,0.0,0.0,0.0,0.0,0.0,0.0,0.0,0.0,0.0,0.0,0.0,0.0,0.0,0.0,0.0,0.0,0.0,0.0,0.0,0.0,0.0,0.0,0.0,0.0,0.0,0.0,0.0,0.0,0.0,0.0,0.0,0.0,0.0,0.0,0.0,-2.7857,-2.8763,-2.9117,-2.936,-2.9174,0.0,0.0,0.0,0.0,0.0,0.0,-3.2226,-3.2613,-3.3271,-3.4239,-3.4404,-3.4813,-3.5434,-3.4809,-3.4596,-3.4785,-3.4444,-3.4658,-3.5368,-3.5368,-3.5673,-3.6174,-3.6174,-3.6174,-3.6022,-3.3981,-3.2936,-3.251,-3.1928,-3.1395,-3.1012,-3.1402,-3.151,-3.162,0.0,0.0,0.0,0.0,0.0,0.0,0.0,0.0,0.0,0.0,0.0,0.0,0.0,0.0,-2.8479,-2.8574,-2.8523,-2.8822,0.0,0.0,0.0,0.0,0.0,0.0,0.0,0.0,0.0,0.0,0.0,0.0,0.0,0.0,0.0,0.0,0.0,0.0,0.0,0.0,0.0,0.0,0.0,0.0,0.0,0.0,0.0,0.0,0.0,0.0,0.0,0.0,0.0,0.0,0.0,0.0,0.0,0.0,0.0,0.0,0.0,0.0,0.0,0.0,0.0,0.0,0.0,0.0,0.0,0.0,0.0,0.0,0.0,0.0,0.0,0.0,0.0,0.0,0.0,0.0,0.0,-3.1065,-3.1705,0.0,0.0,0.0,0.0,-3.217,-3.292,-3.3541,-3.3944,-3.4534,-3.4818,-3.4765,-3.5438,-3.564,-3.5303,-3.5442,-3.5898,-3.6672,-3.6626,-3.7009,-3.7736,-3.7736,-3.7753,-3.7787,-3.7787,-3.7787,-3.7669,-3.6073,-3.4602,-3.3318,-3.3081,-3.214,-3.1079,-3.2479,-3.2983,-3.3223,0.0,0.0,0.0,0.0,0.0,0.0,0.0,0.0,0.0,0.0,0.0,0.0,0.0,-2.8237,-2.8352,-2.8632,-2.8507,-2.9068,-3.0571,0.0,0.0,0.0,0.0,0.0,0.0,0.0,0.0,0.0,0.0,0.0,0.0,0.0,0.0,0.0,0.0,0.0,0.0,0.0,0.0,0.0,0.0,0.0,0.0,0.0,0.0,0.0,0.0,0.0,0.0,0.0,0.0,0.0,0.0,0.0,0.0,0.0,0.0,0.0,0.0,0.0,0.0,0.0,0.0,0.0,0.0,0.0,0.0,0.0,0.0,0.0,0.0,0.0,0.0,0.0,0.0,0.0,0.0,0.0,0.0,-3.1865,-3.2616,0.0,-3.2679,-3.3389,-3.3919,-3.404,-3.4818,-3.5439,-3.5756,-3.5991,-3.6169,-3.6342,-3.6738,-3.6876,-3.6728,-3.6967,-3.7229,-3.7499,-3.7499,-3.7652,-3.7905,-3.7905,-3.7905,-3.7905,-3.7905,-3.7905,-3.7872,-3.7313,-3.6502,-3.5571,-3.5526,-3.484,-3.3992,-3.4514,-3.47,-3.4806,0.0,0.0,0.0,0.0,0.0,0.0,0.0,0.0,0.0,0.0,0.0,-2.8273,-2.8362,-2.8391,-2.852,-2.8785,-2.8924,-2.9633,-3.1133,0.0,0.0,0.0,0.0,0.0,0.0,0.0,0.0,0.0,0.0,0.0,0.0,0.0,0.0,0.0,0.0,0.0,0.0,0.0,0.0,0.0,0.0,0.0,-3.0643,0.0,0.0,0.0,0.0,0.0,0.0,0.0,0.0,0.0,0.0,0.0,0.0,0.0,0.0,0.0,0.0,0.0,0.0,0.0,0.0,0.0,0.0,0.0,0.0,0.0,0.0,0.0,0.0,0.0,0.0,0.0,0.0,0.0,0.0,0.0,-3.2729,-3.2426,-3.3647,-3.4237,-3.3492,-3.4648,-3.5469,-3.5566,-3.6217,-3.6868,-3.7478,-3.7343,-3.747,-3.7953,-3.792,-3.7863,-3.7863,-3.7882,-3.8024,-3.8278,-3.8278,-3.8396,-3.8633,-3.8633,-3.8633,-3.8633,-3.8633,-3.8633,-3.8633,-3.8633,-3.8193,-3.7523,-3.7286,-3.684,-3.6377,-3.6377,-3.6377,-3.6377,0.0,0.0,0.0,0.0,0.0,0.0,0.0,0.0,0.0,0.0,0.0,0.0,0.0,0.0,0.0,0.0,0.0,-3.0503,-3.1247,0.0,0.0,0.0,0.0,0.0,0.0,0.0,0.0,0.0,0.0,0.0,0.0,0.0,0.0,0.0,0.0,0.0,0.0,0.0,0.0,0.0,0.0,0.0,-3.109,0.0,0.0,0.0,0.0,0.0,0.0,0.0,0.0,0.0,0.0,0.0,0.0,0.0,0.0,0.0,0.0,0.0,0.0,0.0,0.0,0.0,0.0,0.0,0.0,0.0,0.0,0.0,0.0,0.0,0.0,0.0,0.0,0.0,-3.2689,-3.3205,-3.356,-3.2985,-3.4918,-3.5553,-3.3635,-3.5436,-3.6761,-3.6777,-3.7095,-3.7825,-3.9049,-3.859,-3.8671,-3.9454,-3.8907,-3.8619,-3.8619,-3.8206,-3.8362,-3.9056,-3.9089,-3.9486,-4.018,-4.018,-4.018,-4.018,-4.018,-4.018,-4.018,-4.018,-3.9757,-3.9022,-3.8244,-3.7922,-3.7905,-3.7905,-3.7905,-3.7905,0.0,0.0,0.0,0.0,0.0,0.0,0.0,0.0,0.0,0.0,0.0,0.0,0.0,0.0,0.0,0.0,0.0,-3.0503,-3.1247,0.0,0.0,0.0,0.0,0.0,0.0,0.0,0.0,0.0,0.0,0.0,0.0,0.0,0.0,0.0,0.0,0.0,0.0,0.0,0.0,0.0,0.0,0.0,-3.2616,0.0,0.0,0.0,0.0,0.0,0.0,0.0,0.0,0.0,0.0,0.0,0.0,0.0,0.0,0.0,0.0,0.0,0.0,0.0,0.0,0.0,0.0,0.0,0.0,0.0,0.0,0.0,0.0,0.0,0.0,0.0,0.0,-3.4246,-3.4142,-3.4639,-3.5162,-3.5578,-3.584,-3.6183,-3.6593,-3.738,-3.8005,-3.8347,-3.8625,-3.8943,-3.9295,-3.881,-3.862,-3.885,-3.8877,-3.8874,-3.8874,-3.9824,-4.0392,-4.0612,-4.1136,-4.1491,-4.1704,-4.1704,-4.1704,-4.1704,-4.1704,-4.1704,-4.1704,-4.1704,-4.1576,-4.1204,-3.9394,-3.8379,-3.7905,-3.7905,-3.7905,-3.7905,0.0,0.0,0.0,0.0,0.0,0.0,0.0,0.0,0.0,0.0,0.0,0.0,0.0,0.0,0.0,0.0,0.0,0.0,0.0,0.0,0.0,0.0,0.0,0.0,0.0,0.0,0.0,0.0,0.0,0.0,0.0,0.0,0.0,0.0,0.0,0.0,0.0,0.0,0.0,0.0,0.0,0.0,-3.3551,-3.2714,-3.2158,-3.1654,-3.0593,-3.0126,-2.9937,-2.9404,0.0,0.0,0.0,0.0,0.0,0.0,0.0,0.0,0.0,0.0,0.0,0.0,0.0,0.0,0.0,0.0,0.0,0.0,0.0,0.0,0.0,0.0,0.0,0.0,-3.4165,-3.5488,-3.5773,-3.573,-3.5986,-3.6808,-3.6913,-3.706,-3.7404,-3.8041,-3.8541,-3.8805,-3.8776,-3.9089,-3.9867,-3.9197,-3.9015,-3.9564,-3.9798,-3.9918,-3.9918,-4.1068,-4.166,-4.166,-4.21,-4.2286,-4.2286,-4.2286,-4.2286,-4.2286,-4.2286,-4.2286,-4.2286,-4.2286,-4.2286,-4.2168,0.0,0.0,0.0,0.0,-3.8819,-3.8819,0.0,0.0,0.0,0.0,0.0,0.0,0.0,0.0,0.0,0.0,0.0,0.0,0.0,0.0,0.0,0.0,0.0,0.0,0.0,0.0,0.0,0.0,0.0,0.0,0.0,0.0,0.0,0.0,0.0,0.0,0.0,0.0,0.0,0.0,0.0,0.0,0.0,0.0,0.0,0.0,0.0,0.0,-3.4039,-3.3146,-3.2965,-3.2977,-3.1497,-3.0853,-3.0574,-2.9989,0.0,0.0,0.0,0.0,0.0,0.0,0.0,0.0,0.0,0.0,0.0,0.0,0.0,0.0,0.0,0.0,0.0,0.0,0.0,0.0,0.0,0.0,0.0,0.0,-3.603,-3.7257,-3.7314,-3.6634,-3.6399,-3.7148,-3.7829,-3.7934,-3.7081,-3.8014,-3.8679,-3.8728,-3.8372,-3.8853,-4.0471,0.0,0.0,0.0,0.0,-4.1322,-4.1322,-4.2049,-4.2422,-4.2422,-4.2506,-4.2557,-4.2557,-4.2557,-4.2557,-4.2557,-4.2557,-4.2557,-4.2557,-4.2557,-4.2557,-4.2523,-4.2354,-4.1897,-4.1238,-4.0603,-4.0299,-4.0231,0.0,0.0,0.0,0.0,0.0,0.0,0.0,0.0,0.0,0.0,0.0,0.0,0.0,0.0,0.0,0.0,0.0,0.0,0.0,0.0,0.0,0.0,0.0,0.0,0.0,0.0,0.0,0.0,0.0,0.0,0.0,0.0,0.0,0.0,0.0,0.0,0.0,0.0,0.0,0.0,0.0,0.0,-3.4402,-3.4202,-3.3447,-3.2443,-3.2134,-3.1618,-3.1025,-3.0502,-3.028,-3.0176,-2.9899,0.0,0.0,0.0,0.0,0.0,0.0,0.0,0.0,0.0,0.0,0.0,0.0,0.0,0.0,0.0,0.0,0.0,0.0,0.0,0.0,-3.4459,-3.6158,-3.7592,-3.8031,-3.775,-3.7511,-3.7453,-3.776,-3.806,-3.8239,-3.8664,-3.9078,-3.9473,-3.96,-3.9823,-4.0188,-4.0552,-4.0883,-4.1129,-4.1773,-4.2083,-4.2083,-4.2828,-4.32,-4.3217,-4.3842,0.0,-4.4175,-4.4175,-4.4175,-4.4175,-4.4175,-4.4175,-4.4175,-4.4175,-4.4175,-4.4039,-4.2804,-4.2202,-4.2066,-4.1914,-4.1491,-4.0984,0.0,0.0,0.0,0.0,0.0,0.0,0.0,0.0,0.0,0.0,0.0,0.0,0.0,0.0,0.0,0.0,0.0,0.0,0.0,0.0,0.0,0.0,0.0,0.0,0.0,0.0,0.0,0.0,0.0,0.0,0.0,0.0,0.0,0.0,0.0,0.0,0.0,0.0,0.0,0.0,0.0,0.0,-3.5013,-3.4641,-3.4032,-3.3309,-3.2564,-3.2056,-3.1653,-3.1064,-3.1066,-3.1361,-3.1354,-3.1654,-3.1812,0.0,0.0,0.0,0.0,0.0,0.0,0.0,0.0,0.0,0.0,0.0,0.0,0.0,0.0,-3.2494,0.0,0.0,-3.4512,-3.549,-3.6491,-3.7367,-3.8009,-3.8316,-3.834,-3.8074,-3.8276,-3.855,-3.879,-3.9268,-3.9636,-3.9877,-4.0008,-4.0265,-4.0629,-4.1001,-4.1373,-4.1728,-4.2472,-4.2861,-4.2861,-4.3623,-4.3995,-4.4012,-4.4429,-4.4615,-4.4615,-4.4615,-4.4615,-4.4615,-4.4615,-4.4615,-4.4615,-4.4615,-4.4615,-4.453,-4.3768,-4.32,-4.2811,-4.2439,-4.2066,-4.1745,0.0,0.0,0.0,0.0,0.0,0.0,0.0,0.0,0.0,0.0,0.0,0.0,0.0,0.0,0.0,0.0,0.0,0.0,0.0,0.0,0.0,0.0,0.0,0.0,0.0,0.0,0.0,0.0,0.0,0.0,0.0,0.0,0.0,0.0,0.0,0.0,0.0,0.0,0.0,0.0,0.0,0.0,-3.5515,-3.4776,-3.4404,-3.4117,-3.2953,-3.2327,-3.2022,-3.1582,-3.1819,-3.2391,-3.2906,-3.3315,-3.3349,-3.1962,-3.2297,0.0,0.0,0.0,0.0,0.0,0.0,0.0,0.0,0.0,-3.2055,-3.2717,-3.2909,-3.3251,-3.426,-3.4456,-3.5019,-3.674,-3.7134,-3.7438,-3.8024,-3.8751,-3.9132,-3.8917,-3.9075,-3.9208,-3.9208,-3.9757,-4.0096,-4.0096,-4.0231,-4.0561,-4.117,-4.1474,-4.1897,-4.2489,-4.325,-4.3639,-4.3639,-4.4265,-4.4615,-4.4615,-4.4615,-4.4615,-4.4615,-4.4615,-4.4615,-4.4615,-4.4615,-4.4615,-4.4615,-4.4615,-4.4615,-4.4615,-4.4615,-4.4198,-4.3572,-4.2963,-4.2642,-4.2506,0.0,0.0,0.0,0.0,0.0,0.0,0.0,0.0,0.0,0.0,0.0,0.0,0.0,0.0,0.0,0.0,0.0,0.0,0.0,0.0,0.0,0.0,0.0,0.0,0.0,0.0,0.0,0.0,0.0,0.0,0.0,0.0,0.0,0.0,0.0,0.0,0.0,0.0,0.0,0.0,0.0,0.0,-3.5515,-3.4776,-3.4083,-3.3508,-3.3339,-3.2442,-3.1413,-3.1989,-3.2226,-3.2412,-3.313,-3.3837,-3.4027,-3.2287,0.0,-3.1705,-2.9719,-2.9888,-3.1028,-3.2652,-3.2564,-3.2721,0.0,0.0,-3.4546,-3.5662,-3.5913,-3.6046,-3.6412,-3.6469,-3.6774,-3.7635,-3.8328,-3.8768,-3.887,-3.952,-3.9968,-3.9934,-3.9952,-3.9977,-3.9977,-4.0045,-4.0096,-4.0096,-4.0696,-4.1119,-4.1204,-4.2455,-4.3189,-4.3257,-4.4045,-4.4479,-4.4479,-4.4564,-4.4615,-4.4615,-4.4615,-4.4615,-4.4615,-4.4615,-4.4615,-4.4615,-4.4615,-4.4615,-4.4615,-4.4615,-4.4615,-4.4615,-4.4615,-4.4564,-4.4479,-4.4378,-4.3893,-4.3274,0.0,0.0,0.0,0.0,0.0,0.0,0.0,0.0,0.0,0.0,0.0,0.0,0.0,0.0,0.0,0.0,0.0,0.0,0.0,0.0,0.0,0.0,0.0,0.0,0.0,0.0,0.0,0.0,0.0,0.0,0.0,0.0,0.0,0.0,0.0,0.0,0.0,0.0,0.0,0.0,0.0,0.0,-3.4928,-3.4607,-3.3778,-3.2788,-3.2934,-3.2662,0.0,0.0,-3.2884,-3.3379,-3.388,-3.4554,-3.4803,-3.3012,-3.323,0.0,-3.3492,-3.2957,0.0,0.0,-3.4361,-3.4371,-3.5273,-3.507,-3.5076,-3.6366,-3.6625,-3.6797,-3.7343,-3.7432,-3.7686,0.0,-3.8802,-3.914,-3.9588,-3.991,-4.0096,-4.0096,-4.0096,-4.0096,-4.0096,-4.0096,-4.0282,-4.0696,-4.1035,-4.1576,-4.2412,-4.3054,-4.3595,-4.4079,-4.4429,-4.4615,-4.4615,-4.4615,-4.4615,-4.4615,-4.4615,-4.4615,-4.4615,-4.4615,-4.4615,-4.4615,-4.4615,-4.4615,-4.4615,-4.4615,-4.4615,-4.4615,-4.4615,-4.4615,-4.4615,-4.4615,-4.4395,-4.4096,0.0,0.0,0.0,0.0,0.0,0.0,0.0,0.0,0.0,0.0,0.0,0.0,0.0,0.0,0.0,0.0,0.0,0.0,0.0,0.0,0.0,0.0,0.0,0.0,0.0,0.0,0.0,0.0,0.0,0.0,0.0,0.0,0.0,0.0,0.0,0.0,0.0,0.0,0.0,0.0,0.0,0.0,-3.4167,-3.3964,-3.3287,-3.2494,-3.2637,-3.2634,0.0,0.0,-3.3285,-3.3869,-3.4326,-3.4835,-3.495,-3.3565,-3.3776,-3.4596,-3.5114,0.0,0.0,-3.5201,-3.5717,-3.5825,-3.5459,-3.5521,-3.5936,-3.6903,-3.7117,-3.7313,-3.8075,-3.821,-3.8447,-3.9174,-3.9292,-3.9503,-4.0028,-4.0096,-4.0096,-4.0096,-4.0096,-4.018,-4.0383,-4.0417,-4.0612,-4.117,-4.1593,-4.2286,-4.3341,-4.3595,-4.3995,-4.4581,-4.4615,-4.4615,-4.4615,-4.4615,-4.4615,-4.4615,-4.4615,-4.4615,-4.4615,-4.4615,-4.4615,-4.4615,-4.4615,-4.4615,-4.4615,-4.4615,-4.4615,-4.4615,-4.4615,-4.4615,-4.4615,-4.4615,-4.4615,-4.4615,0.0,0.0,0.0,0.0,0.0,0.0,0.0,0.0,0.0,0.0,0.0,0.0,0.0,0.0,0.0,0.0,0.0,0.0,0.0,0.0,0.0,0.0,0.0,0.0,0.0,0.0,0.0,0.0,0.0,0.0,0.0,0.0,0.0,0.0,0.0,0.0,0.0,0.0,0.0,0.0,0.0,0.0,-3.3372,-3.2649,-3.2568,-3.2865,-3.2752,0.0,0.0,0.0,-3.3258,-3.3358,-3.4147,-3.4371,0.0,-3.365,-3.2746,0.0,0.0,0.0,-3.361,-3.4806,-3.5958,-3.6751,-3.6728,-3.7303,-3.7821,-3.7872,-3.7872,-3.8091,-3.8819,-3.8954,-3.9191,-3.996,-4.0079,-4.0079,-4.0096,-4.0096,-4.0096,-4.0096,-4.0096,-4.0383,0.0,-4.117,-4.1187,-4.1204,-4.2513,-4.3341,-4.3392,-4.413,-4.4581,-4.4615,-4.4615,-4.4615,-4.4615,-4.4615,-4.4615,-4.4615,-4.4615,-4.4615,-4.4615,-4.4615,-4.4615,-4.4615,-4.4615,-4.4615,-4.4615,-4.4615,-4.4615,-4.4615,-4.4615,-4.4615,-4.4615,-4.4615,-4.4615,-4.4615,0.0,0.0,0.0,0.0,0.0,0.0,0.0,0.0,0.0,0.0,0.0,0.0,0.0,0.0,0.0,0.0,0.0,0.0,0.0,0.0,0.0,0.0,0.0,0.0,0.0,0.0,0.0,0.0,0.0,0.0,0.0,0.0,0.0,0.0,0.0,0.0,0.0,0.0,0.0,0.0,0.0,0.0,-3.2669,-3.2599,-3.2346,-3.2089,0.0,0.0,0.0,0.0,0.0,0.0,-3.4167,0.0,0.0,-3.3072,-3.2945,-3.3087,0.0,0.0,-3.4769,-3.5932,-3.6514,-3.6931,-3.7415,-3.733,-3.7297,-3.7804,-3.7187,-3.6985,-3.8338,-3.8138,-3.8159,-3.9488,-3.9515,-3.9529,-4.0028,-4.0096,-4.0096,-4.0096,-4.0536,0.0,0.0,0.0,0.0,-4.2608,-4.3105,-4.3639,-4.4164,-4.4462,-4.4615,-4.4615,-4.4615,-4.4615,-4.4615,-4.4615,-4.4615,-4.4615,-4.4615,-4.4615,-4.4615,-4.4615,-4.4615,-4.4615,-4.4615,-4.4615,-4.4615,-4.4615,-4.4615,-4.4615,-4.4615,-4.4615,-4.4615,-4.4615,-4.4615,-4.4615,0.0,0.0,0.0,0.0,0.0,0.0,0.0,0.0,0.0,0.0,0.0,0.0,0.0,0.0,0.0,0.0,0.0,0.0,0.0,0.0,0.0,0.0,0.0,0.0,0.0,0.0,0.0,0.0,0.0,0.0,0.0,0.0,0.0,0.0,0.0,0.0,0.0,0.0,0.0,0.0,0.0,0.0,-3.2205,-3.238,-3.2218,0.0,0.0,0.0,0.0,0.0,0.0,0.0,0.0,-3.3565,-3.3246,-3.3,-3.3247,-3.3758,0.0,-3.4949,-3.5702,-3.6565,-3.7202,-3.7635,-3.7855,-3.7736,-3.7635,-3.7872,-3.7319,-3.7136,-3.8197,-3.7946,-3.7929,-3.9083,-3.9194,-3.9329,-3.9836,-4.0101,-4.0196,-4.0096,-4.0747,-4.1305,0.0,0.0,0.0,-4.3325,-4.3673,-4.4045,-4.4581,-4.4615,-4.4615,-4.4615,-4.4615,-4.4615,-4.4615,-4.4615,-4.4615,-4.4615,-4.4615,-4.4615,-4.4615,-4.4615,-4.4615,-4.4615,-4.4615,-4.4615,-4.4615,-4.4615,-4.4615,-4.4615,-4.4615,-4.4615,-4.4615,-4.4615,-4.4615,-4.4615,0.0,0.0,0.0,0.0,0.0,0.0,0.0,0.0,0.0,0.0,0.0,0.0,0.0,0.0,0.0,0.0,0.0,0.0,0.0,0.0,0.0,0.0,0.0,0.0,0.0,0.0,0.0,0.0,0.0,0.0,0.0,0.0,0.0,0.0,0.0,0.0,0.0,0.0,0.0,0.0,0.0,0.0,-3.2003,-3.2021,0.0,0.0,0.0,0.0,0.0,0.0,0.0,0.0,0.0,0.0,-3.3054,-3.3459,-3.3671,-3.3969,-3.4815,-3.5637,-3.6333,-3.6803,-3.7946,-3.8768,-3.8108,-3.8447,-3.8667,-3.7939,-3.8024,-3.8242,0.0,0.0,-3.8355,-3.8682,-3.9043,-3.9313,-3.9442,-4.0028,-4.0336,0.0,0.0,0.0,0.0,0.0,0.0,-4.3443,0.0,-4.4615,-4.4615,-4.4615,-4.4615,-4.4615,-4.4615,-4.4615,-4.4615,-4.4615,-4.4615,-4.4615,-4.4615,-4.4615,-4.4615,-4.4615,-4.4615,-4.4615,-4.4615,-4.4615,-4.4615,-4.4615,-4.4615,-4.4615,-4.4615,-4.4615,-4.4615,-4.4615,-4.4615,-4.4615,0.0,0.0,0.0,0.0,0.0,0.0,0.0,0.0,0.0,0.0,0.0,0.0,0.0,0.0,0.0,0.0,0.0,0.0,0.0,0.0,0.0,0.0,0.0,0.0,0.0,0.0,0.0,0.0,0.0,0.0,0.0,0.0,0.0,0.0,0.0,0.0,0.0,0.0,0.0,0.0,0.0,0.0,-3.1948,0.0,0.0,0.0,0.0,0.0,0.0,0.0,0.0,0.0,0.0,0.0,-3.4036,-3.4482,0.0,-3.4841,-3.5599,-3.6227,-3.695,-3.8156,-3.8311,-3.8278,-3.8633,-3.8007,-3.7197,-3.6537,-3.623,-3.617,0.0,0.0,0.0,-3.777,-3.7688,0.0,-3.8965,-3.9263,0.0,0.0,0.0,-4.2083,-4.2269,-4.3504,0.0,0.0,-4.4496,-4.4615,-4.4615,-4.4615,-4.4615,-4.4615,-4.4615,-4.4615,-4.4615,-4.4615,-4.4615,-4.4615,-4.4615,-4.4615,-4.4615,-4.4615,-4.4615,-4.4615,-4.4615,-4.4615,-4.4615,-4.4615,-4.4615,-4.4615,-4.4615,-4.4615,-4.4615,-4.4615,-4.4615,-4.4615,0.0,0.0,0.0,0.0,0.0,0.0,0.0,0.0,0.0,0.0,0.0,0.0,0.0,0.0,0.0,0.0,0.0,0.0,0.0,0.0,0.0,0.0,0.0,0.0,0.0,0.0,0.0,0.0,0.0,0.0,0.0,0.0,0.0,0.0,0.0,0.0,0.0,0.0,0.0,0.0,0.0,0.0,0.0,0.0,0.0,0.0,0.0,0.0,0.0,0.0,0.0,-3.3003,-3.3615,-3.3952,-3.4231,-3.4749,0.0,-3.5486,-3.6202,-3.6848,-3.7466,-3.8311,-3.8447,-3.836,-3.8231,-3.758,-3.6814,-3.6264,-3.6104,0.0,0.0,0.0,0.0,0.0,0.0,0.0,-3.8567,-3.9003,-3.9406,0.0,-4.1416,0.0,-4.2286,-4.3701,-4.4615,0.0,-4.4615,-4.4615,-4.4615,-4.4615,-4.4615,-4.4615,-4.4615,-4.4615,-4.4615,-4.4615,-4.4615,-4.4615,-4.4615,-4.4615,-4.4615,-4.4615,-4.4615,-4.4615,-4.4615,-4.4615,-4.4615,-4.4615,-4.4615,-4.4615,-4.4615,-4.4615,-4.4615,-4.4615,-4.4615,-4.4615,0.0,0.0,0.0,0.0,0.0,0.0,0.0,0.0,0.0,0.0,0.0,0.0,0.0,0.0,0.0,0.0,0.0,0.0,0.0,0.0,0.0,0.0,0.0,0.0,0.0,0.0,0.0,0.0,0.0,0.0,0.0,0.0,0.0,0.0,0.0,0.0,0.0,0.0,0.0,0.0,0.0,0.0,0.0,0.0,0.0,0.0,0.0,0.0,0.0,0.0,-3.2232,-3.2371,-3.3424,-3.3951,-3.427,-3.4849,-3.5385,-3.5941,-3.6616,-3.7263,-3.7787,-3.7889,-3.8311,-3.8441,-3.7421,-3.7095,-3.6908,-3.6461,0.0,-3.7034,-3.6906,0.0,-3.6736,-3.6993,0.0,-3.7256,-3.8066,-3.8766,-3.9391,-3.9884,-4.1322,-4.2286,-4.2286,-4.3701,-4.4615,-4.4615,-4.4615,-4.4615,-4.4615,-4.4615,-4.4615,-4.4615,-4.4615,-4.4615,-4.4615,-4.4615,-4.4615,-4.4615,-4.4615,-4.4615,-4.4615,-4.4615,-4.4615,-4.4615,-4.4615,-4.4615,-4.4615,-4.4615,-4.4615,-4.4615,-4.4615,-4.4615,-4.4615,-4.4615,-4.4615,-4.4615,0.0,0.0,0.0,0.0,0.0,0.0,0.0,0.0,0.0,0.0,-2.7375,-2.8171,0.0,0.0,0.0,0.0,0.0,0.0,0.0,0.0,0.0,0.0,0.0,0.0,0.0,0.0,0.0,0.0,0.0,0.0,0.0,0.0,0.0,0.0,0.0,0.0,0.0,0.0,0.0,0.0,0.0,0.0,0.0,0.0,0.0,0.0,0.0,0.0,0.0,0.0,-3.286,-3.3264,-3.3921,-3.4792,-3.5628,-3.6009,-3.6205,-3.6333,-3.6701,-3.6897,-3.7151,-3.7753,-3.7533,-3.7187,-3.7126,-3.6647,0.0,0.0,0.0,-3.6855,-3.6337,-3.6667,0.0,-3.6716,0.0,0.0,0.0,0.0,-3.841,0.0,0.0,0.0,0.0,0.0,0.0,0.0,-4.4615,-4.4615,-4.4615,-4.4615,-4.4615,-4.4615,-4.4615,-4.4615,-4.4615,-4.4615,-4.4615,-4.4615,-4.4615,-4.4615,-4.4615,-4.4615,-4.4615,-4.4615,-4.4615,-4.4615,-4.4615,-4.4615,-4.4615,-4.4615,-4.4615,-4.4615,-4.4615,-4.4615,-4.4615,-4.4615,0.0,0.0,0.0,0.0,0.0,0.0,0.0,0.0,-2.7291,-2.7386,-2.8016,-2.8185,-2.7532,-2.7792,0.0,0.0,0.0,0.0,0.0,0.0,0.0,0.0,0.0,0.0,0.0,0.0,0.0,0.0,0.0,0.0,0.0,0.0,0.0,0.0,0.0,0.0,0.0,0.0,0.0,0.0,0.0,0.0,0.0,0.0,0.0,0.0,0.0,0.0,0.0,0.0,-3.2933,-3.3398,-3.4233,-3.4886,-3.5507,-3.6513,-3.662,-3.6506,-3.7041,-3.699,-3.688,-3.7229,-3.7043,-3.6808,-3.6831,0.0,0.0,0.0,0.0,-3.6974,-3.6235,0.0,0.0,0.0,0.0,0.0,0.0,0.0,0.0,0.0,0.0,0.0,0.0,0.0,0.0,0.0,-4.4615,-4.4615,-4.4615,-4.4615,-4.4615,-4.4615,-4.4615,-4.4615,-4.4615,-4.4615,-4.4615,-4.4615,-4.4615,-4.4615,-4.4615,-4.4615,-4.4615,-4.4615,-4.4615,-4.4615,-4.4615,-4.4615,-4.4615,-4.4615,-4.4615,-4.4615,-4.4615,-4.4615,-4.4615,-4.4615,0.0,0.0,0.0,0.0,0.0,0.0,0.0,-2.7495,-2.7996,-2.8141,-2.8298,-2.8016,-2.6986,-2.7392,-2.7707,0.0,0.0,0.0,0.0,0.0,0.0,0.0,0.0,0.0,0.0,0.0,0.0,0.0,0.0,0.0,0.0,0.0,0.0,0.0,0.0,0.0,0.0,0.0,0.0,0.0,0.0,0.0,0.0,0.0,0.0,0.0,0.0,0.0,0.0,0.0,-3.2894,-3.3317,-3.4368,-3.4727,-3.5081,-3.6465,-3.6578,-3.6391,-3.707,-3.6918,-3.6535,-3.6535,-3.6535,-3.6548,-3.6565,-3.6591,0.0,0.0,-3.6892,-3.7159,-3.6483,0.0,0.0,0.0,0.0,0.0,0.0,0.0,0.0,0.0,0.0,0.0,0.0,0.0,0.0,0.0,-4.4615,-4.4615,-4.4615,-4.4615,-4.4615,-4.4615,-4.4615,-4.4615,-4.4615,-4.4615,-4.4615,-4.4615,-4.4615,-4.4615,-4.4615,-4.4615,-4.4615,-4.4615,-4.4615,-4.4615,-4.4615,-4.4615,-4.4615,-4.4615,-4.4615,-4.4615,-4.4615,-4.4615,-4.4615,-4.4615,0.0,0.0,0.0,0.0,0.0,0.0,0.0,-2.6731,-2.7246,-2.7385,-2.7982,-2.8391,-2.8401,-2.8467,-2.8491,0.0,0.0,0.0,0.0,0.0,0.0,0.0,0.0,0.0,0.0,0.0,0.0,0.0,0.0,0.0,0.0,0.0,0.0,0.0,0.0,0.0,0.0,0.0,0.0,0.0,0.0,0.0,0.0,0.0,0.0,0.0,0.0,0.0,0.0,0.0,0.0,-3.3406,-3.4123,-3.4563,-3.4948,-3.5632,0.0,0.0,-3.6374,-3.6109,-3.5701,-3.5701,-3.5701,-3.5863,-3.6377,0.0,0.0,0.0,-3.7243,-3.7279,-3.7208,-3.7282,0.0,0.0,0.0,0.0,0.0,0.0,0.0,0.0,0.0,0.0,0.0,0.0,0.0,0.0,-4.4615,-4.4615,-4.4615,-4.4615,-4.4615,-4.4615,-4.4615,-4.4615,-4.4615,-4.4615,-4.4615,-4.4615,-4.4615,-4.4615,-4.4615,-4.4615,-4.4615,-4.4615,-4.4615,-4.4615,-4.4615,-4.4615,-4.4615,-4.4615,-4.4615,-4.4615,-4.4615,-4.4615,-4.4615,-4.4615,0.0,0.0,0.0,0.0,0.0,0.0,-2.5337,-2.6009,-2.6537,-2.6627,-2.6929,-2.717,-2.7265,-2.7276,-2.7628,0.0,0.0,0.0,0.0,0.0,0.0,0.0,0.0,0.0,0.0,0.0,0.0,-2.8675,-2.8625,0.0,0.0,0.0,0.0,0.0,0.0,0.0,0.0,0.0,0.0,0.0,0.0,0.0,0.0,0.0,0.0,0.0,0.0,0.0,0.0,0.0,0.0,0.0,-3.309,-3.3477,0.0,0.0,-3.6077,-3.5902,-3.6293,-3.6228,-3.5989,-3.5672,-3.5416,-3.5455,-3.6364,0.0,0.0,-3.6626,-3.7016,-3.7155,-3.6659,-3.6998,-3.7279,0.0,0.0,0.0,0.0,0.0,0.0,0.0,0.0,0.0,0.0,0.0,0.0,0.0,-4.4615,-4.4615,-4.4615,-4.4615,-4.4615,-4.4615,-4.4615,-4.4615,-4.4615,-4.4615,-4.4615,-4.4615,-4.4615,-4.4615,-4.4615,-4.4615,-4.4615,-4.4615,-4.4615,-4.4615,-4.4615,-4.4615,-4.4615,-4.4615,-4.4615,-4.4615,-4.4615,-4.4615,-4.4615,-4.4547,0.0,0.0,0.0,0.0,0.0,-2.4577,-2.4565,-2.5251,-2.5791,-2.5871,-2.6116,-2.6343,-2.6399,-2.6399,-2.6809,-2.7785,0.0,0.0,0.0,0.0,0.0,0.0,0.0,0.0,0.0,0.0,-2.8585,-2.8712,-2.8439,-2.8432,0.0,0.0,0.0,0.0,0.0,0.0,0.0,0.0,0.0,0.0,0.0,0.0,0.0,0.0,0.0,0.0,0.0,0.0,0.0,0.0,0.0,0.0,0.0,0.0,0.0,0.0,-3.5912,-3.5827,-3.6301,-3.6426,-3.6291,-3.5941,-3.5395,-3.528,0.0,0.0,0.0,-3.6503,-3.6981,-3.7101,-3.6498,-3.6888,-3.7259,0.0,0.0,0.0,0.0,0.0,0.0,0.0,0.0,0.0,0.0,0.0,0.0,-4.4513,-4.4615,-4.4615,-4.4615,-4.4615,-4.4615,-4.4615,-4.4615,-4.4615,-4.4615,-4.4615,-4.4615,-4.4615,-4.4615,-4.4615,-4.4615,-4.4615,-4.4615,-4.4615,-4.4615,-4.4615,-4.4615,-4.4615,-4.4615,-4.4615,-4.4615,-4.4462,-4.4231,-4.4231,-4.4124,-4.3853,0.0,0.0,0.0,0.0,0.0,0.0,0.0,-2.4494,-2.5034,-2.5103,-2.5812,-2.6343,-2.6399,-2.6399,-2.6417,-2.6417,0.0,0.0,0.0,0.0,0.0,0.0,0.0,0.0,0.0,0.0,-2.8272,-2.8994,-2.8079,-2.7985,-2.8694,-2.8637,-2.8637,0.0,0.0,0.0,0.0,0.0,0.0,0.0,0.0,0.0,0.0,0.0,0.0,0.0,0.0,0.0,0.0,0.0,0.0,0.0,0.0,0.0,0.0,0.0,-3.4959,-3.5483,-3.627,-3.6456,-3.6395,-3.6395,-3.569,-3.5259,0.0,0.0,0.0,-3.7101,-3.7297,-3.7259,-3.711,-3.7203,-3.7259,-3.7127,0.0,0.0,0.0,0.0,0.0,0.0,0.0,0.0,0.0,0.0,0.0,-4.4547,-4.4615,0.0,-4.4615,-4.4615,-4.4615,-4.4615,-4.4615,-4.4615,-4.4615,-4.4615,-4.4615,-4.4615,-4.4615,-4.4615,-4.4615,-4.4615,-4.4615,-4.4615,-4.4615,-4.4615,-4.4615,-4.4615,-4.4615,-4.4615,-4.4615,-4.4113,-4.3409,-4.3409,-4.2963,-4.2303,0.0,0.0,0.0,0.0,0.0,0.0,0.0,-2.4067,-2.4268,-2.4348,-2.4657,-2.4862,-2.4882,-2.4901,-2.4912,-2.4953,0.0,0.0,0.0,0.0,0.0,0.0,0.0,0.0,0.0,0.0,-2.7995,-2.818,-2.8432,-2.8632,-2.8773,-2.8749,-2.87,-2.8637,-2.8587,0.0,0.0,0.0,0.0,0.0,0.0,0.0,0.0,0.0,0.0,0.0,0.0,0.0,0.0,0.0,0.0,0.0,0.0,0.0,0.0,0.0,0.0,0.0,-3.5119,-3.5348,-3.5468,-3.5068,-3.4511,-3.4398,-3.5787,0.0,-3.5722,-3.7031,-3.7297,-3.7239,-3.7068,-3.7222,-3.7298,-3.7068,-3.7182,0.0,0.0,0.0,0.0,0.0,0.0,0.0,0.0,0.0,0.0,-4.4547,-4.4615,-4.4615,-4.4615,-4.4615,-4.4615,-4.4615,-4.4615,-4.4615,-4.4615,-4.4615,-4.4298,-4.3726,-4.4327,-4.396,-4.2831,-4.3456,-4.3396,-4.2831,-4.2831,-4.3152,-4.3676,-4.3178,-4.3294,-4.3741,-4.3217,-4.2861,-4.2642,-4.2642,-4.2489,-4.2219,0.0,0.0,0.0,0.0,0.0,0.0,0.0,-2.3842,-2.3917,-2.3996,-2.4132,-2.419,-2.419,-2.4209,-2.4219,-2.4257,0.0,0.0,0.0,0.0,0.0,0.0,0.0,0.0,0.0,-2.8034,-2.8122,-2.8376,-2.8511,-2.8698,-2.8905,-2.8589,-2.8506,-2.8657,-2.8329,0.0,0.0,0.0,0.0,0.0,0.0,0.0,-2.8367,0.0,0.0,0.0,0.0,0.0,0.0,0.0,0.0,0.0,0.0,0.0,0.0,0.0,-3.4018,0.0,0.0,-3.4868,-3.51,-3.4673,-3.4092,0.0,0.0,0.0,-3.5439,-3.6569,-3.7027,-3.7164,-3.7027,-3.7184,-3.726,-3.697,0.0,0.0,0.0,0.0,0.0,0.0,0.0,0.0,0.0,0.0,-4.3318,-4.4079,-4.4445,-4.4615,-4.4615,-4.4615,-4.4615,-4.4615,-4.4615,-4.4615,-4.4615,-4.4615,-4.4327,-4.3814,-4.4355,-4.3873,-4.252,-4.3047,-4.2853,-4.2085,-4.2085,-4.2397,0.0,-4.2437,-4.2535,-4.2946,-4.2472,-4.2117,-4.188,-4.188,-4.1694,-4.1416,0.0,0.0,0.0,0.0,0.0,0.0,0.0,0.0,-2.3917,-2.3996,-2.4132,-2.419,-2.419,-2.4191,-2.4201,-2.421,0.0,0.0,0.0,0.0,0.0,0.0,0.0,0.0,0.0,-2.8034,-2.8368,-2.9054,-2.8236,-2.8207,-2.8905,-2.8103,-2.8038,-2.8597,-2.7834,-2.7882,-2.8479,-2.838,-2.8313,-2.8286,-2.8237,-2.825,0.0,0.0,0.0,0.0,0.0,0.0,0.0,0.0,0.0,0.0,0.0,0.0,0.0,0.0,0.0,0.0,0.0,0.0,0.0,0.0,0.0,0.0,0.0,0.0,0.0,-3.5806,-3.6562,-3.7071,-3.6939,-3.7147,-3.722,-3.6869,0.0,0.0,0.0,0.0,0.0,0.0,0.0,0.0,0.0,-4.1468,-4.2523,-4.3257,-4.4012,-4.4445,-4.4445,-4.4445,-4.4445,-4.4445,-4.4445,-4.4496,-4.4615,-4.4615,-4.457,-4.4514,-4.457,-4.4076,-4.3133,-4.3194,-4.2799,-4.2032,-4.2032,-4.2102,-4.2189,-4.2139,-4.2175,-4.2202,-4.2151,-4.1711,-4.1119,-4.1119,-4.0679,-4.0096,0.0,0.0,0.0,0.0,0.0,0.0,0.0,0.0,0.0,0.0,-2.4132,-2.419,-2.419,-2.4191,-2.422,0.0,0.0,0.0,0.0,0.0,0.0,0.0,0.0,0.0,-2.6418,-2.6392,-2.6458,-2.6617,-2.7028,-2.722,-2.7255,-2.705,-2.6985,-2.7057,-2.7412,-2.7919,-2.851,-2.8466,-2.8375,-2.83,-2.8286,-2.8264,0.0,0.0,0.0,0.0,-2.8393,-2.9076,0.0,0.0,0.0,0.0,0.0,0.0,0.0,0.0,-3.3712,-3.3613,-3.3728,0.0,-3.3564,0.0,0.0,0.0,0.0,0.0,0.0,0.0,0.0,0.0,0.0,0.0,0.0,0.0,0.0,0.0,0.0,0.0,0.0,0.0,0.0,0.0,0.0,-4.0993,-4.1762,-4.2489,-4.2726,-4.2828,-4.2828,-4.2828,-4.2828,-4.2828,-4.2828,-4.343,-4.4598,-4.4615,-4.427,-4.3621,-4.4281,-4.3485,-4.1511,-4.2152,-4.17,-4.0371,-4.0371,-4.0723,-4.1248,-4.0685,-4.0842,-4.1407,-4.0832,-4.0519,-4.0367,-4.0367,-4.0248,-4.0096,0.0,0.0,0.0,0.0,0.0,0.0,0.0,0.0,0.0,0.0,0.0,0.0,0.0,0.0,0.0,0.0,0.0,0.0,0.0,0.0,0.0,0.0,0.0,-2.5261,-2.576,-2.6088,-2.6302,-2.6356,-2.673,-2.6887,-2.6849,-2.6733,-2.6835,-2.712,-2.7772,-2.8239,-2.8531,-2.8505,-2.8445,-2.834,-2.8313,0.0,0.0,0.0,0.0,0.0,-2.8793,-2.926,0.0,-2.9638,-3.059,-3.1728,0.0,0.0,0.0,0.0,-3.3424,-3.3591,-3.3524,-3.3345,-3.315,-3.2979,-3.2948,-3.3057,0.0,0.0,0.0,0.0,0.0,0.0,0.0,0.0,0.0,0.0,0.0,0.0,0.0,0.0,0.0,0.0,0.0,0.0,0.0,-4.0497,-4.0856,-4.1257,-4.1255,-4.141,-4.1765,-4.1793,-4.1793,-4.1793,-4.1793,-4.2377,-4.3548,-4.3548,-4.3311,-4.2839,-4.3311,-4.2639,-4.0966,-4.1413,-4.0991,-3.9852,-3.9852,-4.0136,-4.0561,-4.0161,-4.0266,-4.0646,-4.0265,-4.0096,-4.0096,-4.0096,-4.0096,-4.0045,0.0,0.0,0.0,0.0,0.0,0.0,0.0,0.0,0.0,0.0,0.0,0.0,0.0,0.0,0.0,0.0,0.0,0.0,0.0,0.0,0.0,0.0,0.0,-2.5476,-2.5421,-2.6089,-2.6507,-2.6618,-2.6507,-2.6553,-2.6786,-2.6606,-2.6982,-2.7827,-2.8276,-2.8529,-2.8625,-2.8562,-2.8497,-2.8419,-2.8353,0.0,0.0,0.0,0.0,0.0,0.0,0.0,0.0,-3.0568,-3.0984,-3.123,-3.1391,0.0,0.0,0.0,0.0,0.0,-3.3549,-3.3378,-3.3183,-3.3044,-3.2995,-3.2979,0.0,0.0,0.0,0.0,0.0,0.0,0.0,0.0,0.0,0.0,0.0,0.0,0.0,0.0,0.0,0.0,0.0,0.0,-3.948,-3.9804,-3.9863,-3.9752,-3.9703,-3.9954,-4.0643,-4.0672,-4.0672,-4.0672,-4.0672,-4.1,-4.1594,-4.1839,-4.1957,-4.1957,-4.1957,-4.1499,-4.0689,-4.0689,-4.0279,-3.9563,-3.9563,-3.9638,-3.9731,-3.9731,-3.9731,-3.9731,-3.9731,-3.9731,-3.9731,-3.9731,-3.9731,-3.9653,0.0,0.0,0.0,0.0,0.0,0.0,0.0,0.0,0.0,0.0,0.0,0.0,0.0,0.0,0.0,0.0,0.0,0.0,0.0,0.0,0.0,0.0,-2.4523,-2.4624,-2.4677,-2.4788,-2.4861,-2.4876,-2.4861,-2.5189,-2.581,-2.5735,-2.6448,-2.779,-2.7885,-2.8237,-2.8761,-2.8712,-2.8619,-2.8562,-2.851,0.0,0.0,0.0,0.0,0.0,0.0,0.0,0.0,-2.9937,-3.0563,-3.1424,-3.2212,0.0,0.0,0.0,0.0,0.0,-3.3671,-3.3276,-3.2894,-3.2979,-3.2995,-3.2979,0.0,0.0,0.0,0.0,0.0,0.0,0.0,0.0,0.0,0.0,0.0,0.0,0.0,0.0,0.0,0.0,0.0,-3.7072,-3.7291,-3.8384,-3.8843,-3.8196,-3.8149,-3.8184,-3.8316,-3.8316,-3.8316,-3.8316,-3.8316,-3.8373,-3.8472,-3.9722,-4.0335,-4.0335,-4.0335,-3.9954,-3.9226,-3.9226,-3.8827,-3.811,-3.811,-3.8132,-3.8149,-3.8149,-3.8149,-3.8149,-3.8149,-3.8149,-3.8149,-3.8149,-3.8149,-3.8121,0.0,0.0,0.0,0.0,0.0,0.0,0.0,0.0,0.0,0.0,0.0,0.0,0.0,0.0,0.0,0.0,0.0,0.0,0.0,0.0,0.0,-2.4403,-2.4403,-2.4403,-2.4393,-2.4393,-2.466,-2.5193,-2.5132,-2.5551,-2.6414,-2.6678,-2.7393,-2.8443,-2.8375,-2.8541,-2.8846,-2.8785,-2.8737,-2.87,0.0,0.0,0.0,0.0,0.0,0.0,0.0,0.0,0.0,0.0,-3.0267,-3.0056,-3.1035,0.0,0.0,0.0,0.0,0.0,-3.3022,-3.3031,-3.3039,-3.2882,-3.299,-3.314,0.0,0.0,0.0,0.0,0.0,0.0,0.0,0.0,0.0,0.0,0.0,0.0,0.0,0.0,0.0,0.0,0.0,-3.6583,-3.7267,-3.7537,-3.7512,-3.7189,-3.6768,-3.6738,-3.713,-3.7144,-3.7144,-3.7144,-3.7144,-3.6965,-3.6554,-3.7235,-3.798,-3.8809,-3.8809,-3.8649,-3.8315,-3.8315,-3.811,-3.7793,-3.7793,-3.7793,-3.7793,-3.7793,-3.7793,-3.7793,-3.7793,-3.7793,-3.7793,-3.7793,-3.7306,-3.6681,0.0,0.0,0.0,0.0,0.0,0.0,0.0,0.0,0.0,0.0,0.0,0.0,0.0,0.0,0.0,0.0,0.0,0.0,0.0,0.0,-2.4465,-2.443,-2.4411,-2.4393,-2.433,-2.4524,-2.5004,-2.5771,-2.5857,-2.6386,-2.7326,-2.7906,-2.8496,-2.9051,-2.8917,-2.8905,-2.8975,-2.8893,-2.887,-2.8858,0.0,0.0,0.0,0.0,0.0,0.0,0.0,0.0,0.0,0.0,0.0,0.0,0.0,0.0,0.0,-3.0861,-3.1679,-3.2482,-3.2461,-3.2792,-3.3057,-3.2782,0.0,-3.323,0.0,0.0,0.0,0.0,0.0,0.0,0.0,0.0,0.0,0.0,0.0,0.0,0.0,0.0,-3.5029,-3.599,-3.568,-3.582,-3.69,-3.6625,-3.6353,-3.6353,-3.5814,-3.5765,-3.6306,-3.6337,-3.6337,-3.6337,-3.6337,-3.6054,-3.5504,-3.5504,-3.6085,-3.7265,-3.7265,-3.7265,-3.7265,-3.7265,-3.7265,-3.7265,-3.7265,-3.7265,-3.7265,-3.7265,-3.7265,-3.7265,-3.7265,-3.717,-3.6997,-3.6868,-3.6077,-3.5197,0.0,0.0,0.0,0.0,0.0,0.0,0.0,0.0,0.0,0.0,0.0,0.0,0.0,0.0,0.0,0.0,0.0,0.0,0.0,0.0,-2.443,-2.4491,-2.4488,-2.4462,-2.4394,-2.5198,-2.5624,-2.5708,-2.6442,-2.7192,-2.7954,-2.8691,-2.9086,-2.9178,-2.91,-2.913,-2.9167,-2.91,-2.9085,-2.9067,-2.9017,0.0,0.0,0.0,0.0,0.0,0.0,0.0,0.0,0.0,0.0,0.0,0.0,0.0,-3.1815,-3.2588,-3.2656,-3.2509,-3.2575,-3.2621,-3.267,-3.2765,0.0,0.0,0.0,0.0,0.0,0.0,0.0,0.0,0.0,0.0,0.0,0.0,0.0,0.0,0.0,0.0,-3.3698,-3.3739,-3.3793,-3.4083,-3.4679,-3.5309,-3.5661,-3.5559,-3.5537,-3.5537,-3.5587,-3.5587,-3.5587,-3.5587,-3.5587,-3.5554,-3.5504,-3.5504,-3.5569,-3.5683,-3.5683,-3.5683,-3.5683,-3.5683,-3.5683,-3.5683,-3.5683,-3.5683,-3.5683,-3.5683,-3.5683,-3.5683,-3.5683,-3.5292,-3.4645,-3.4029,-3.3742,-3.3651,0.0,0.0,0.0,0.0,0.0,0.0,0.0,0.0,0.0,0.0,0.0,0.0,0.0,0.0,0.0,0.0,0.0,0.0,0.0,0.0,-2.4464,-2.4497,-2.4507,-2.4498,-2.4462,-2.4786,-2.5482,-2.6561,-2.7886,-2.8639,-2.8874,-2.9114,-2.9272,-2.931,-2.9211,-2.9207,-2.9251,-2.9248,-2.9218,-2.9218,-2.9197,-2.9186,0.0,0.0,0.0,0.0,0.0,0.0,0.0,0.0,-3.0227,-3.0411,0.0,0.0,-3.0987,-3.1302,-3.1207,-3.1093,-3.154,-3.1768,-3.2002,-3.2593,0.0,0.0,0.0,0.0,0.0,0.0,0.0,0.0,0.0,0.0,0.0,0.0,0.0,0.0,0.0,-3.3391,-3.3103,-3.347,-3.3167,-3.3199,-3.3815,-3.4151,-3.4273,-3.4264,-3.4262,-3.4262,-3.4262,-3.4262,-3.4262,-3.4262,-3.4651,-3.4861,-3.4861,-3.4861,-3.4861,-3.4861,-3.5295,-3.5504,-3.5504,-3.5504,-3.5504,-3.5504,-3.5504,-3.5504,-3.5474,-3.504,-3.4861,-3.4831,-3.4412,-3.4098,-3.3844,-3.3589,-3.3245,-3.2931,0.0,0.0,0.0,0.0,0.0,0.0,0.0,0.0,0.0,0.0,0.0,0.0,0.0,0.0,0.0,0.0,0.0,0.0,-2.45,-2.449,-2.4507,-2.4505,-2.4532,-2.4541,-2.4503,-2.4547,-2.5246,-2.6637,-2.8249,-2.9031,-2.8979,-2.9227,-2.9359,-2.9402,-2.9299,-2.9296,-2.9368,-2.9368,-2.9368,-2.9368,-2.9347,-2.9188,0.0,0.0,0.0,0.0,0.0,0.0,0.0,0.0,0.0,0.0,0.0,0.0,0.0,0.0,-3.0368,-3.0353,-3.0831,-3.1348,-3.1867,0.0,0.0,0.0,0.0,0.0,0.0,0.0,0.0,0.0,0.0,0.0,0.0,0.0,0.0,0.0,-3.3391,-3.2895,-3.2674,-3.2841,-3.246,-3.2437,-3.3125,-3.3185,-3.3275,-3.3484,-3.3499,-3.3499,-3.3499,-3.3499,-3.3499,-3.3499,-3.3933,-3.4158,-3.4158,-3.4158,-3.4158,-3.4204,-3.4651,-3.4876,-3.4876,-3.4876,-3.4876,-3.4876,-3.4876,-3.4876,-3.4831,-3.4367,-3.4158,-3.4129,-3.344,-3.3185,-3.3155,-3.2961,-3.2587,-3.2257,0.0,0.0,0.0,0.0,0.0,0.0,0.0,0.0,0.0,0.0,0.0,0.0,0.0,0.0,0.0,0.0,0.0,0.0,-2.45,-2.4497,-2.4505,-2.45,-2.4617,-2.465,-2.4503,-2.4642,-2.5003,-2.5606,-2.7286,-2.8103,-2.8126,-2.9008,-2.9402,-2.9402,-2.9402,-2.9443,-2.9502,-2.9502,-2.9502,-2.9474,-2.9414,-2.89,-2.8266,0.0,0.0,0.0,0.0,0.0,0.0,0.0,0.0,0.0,0.0,0.0,0.0,0.0,-3.0594,-3.0596,-3.0682,-3.1553,0.0,0.0,0.0,0.0,0.0,0.0,0.0,0.0,0.0,0.0,0.0,0.0,0.0,0.0,-3.3684,-3.3365,-3.2695,-3.2586,-3.2327,-3.1582,-3.1511,-3.1765,-3.2437,-3.2497,-3.2781,-3.3425,-3.3469,-3.3469,-3.3469,-3.3469,-3.3469,-3.3469,-3.3484,-3.3484,-3.3484,-3.3484,-3.3484,-3.3484,-3.3484,-3.3484,-3.3499,-3.3499,-3.3499,-3.3499,-3.3499,-3.3499,-3.3499,-3.3484,-3.3484,-3.341,-3.2766,-3.2497,-3.2392,-3.175,-3.1511,-3.1511,0.0,0.0,0.0,0.0,0.0,0.0,0.0,0.0,0.0,0.0,0.0,0.0,0.0,0.0,0.0,0.0,0.0,0.0,-2.45,-2.449,-2.4507,-2.4505,-2.4532,-2.4541,-2.4503,-2.5091,-2.5799,-2.6665,-2.7708,-2.8548,-2.9155,-2.9379,-2.9501,-2.9531,-2.9482,-2.9482,-2.9502,-2.9502,-2.9155,-2.8604,-2.8613,-2.8119,-2.7428,0.0,0.0,0.0,0.0,0.0,0.0,0.0,0.0,0.0,0.0,0.0,0.0,-3.042,-2.985,-2.9383,-2.9917,0.0,0.0,0.0,0.0,0.0,0.0,0.0,0.0,0.0,0.0,0.0,0.0,0.0,0.0,-3.2306,-3.2604,-3.2668,-3.1923,-3.1824,-3.1754,-3.1524,-3.1511,-3.1585,-3.178,-3.1795,-3.1869,-3.2064,-3.2079,-3.2079,-3.2079,-3.2079,-3.2079,-3.2079,-3.2557,-3.2811,-3.2811,-3.2811,-3.2811,-3.2796,-3.2303,-3.2602,-3.3499,-3.3499,-3.3499,-3.3499,-3.3499,-3.3499,-3.3455,-3.2991,-3.2527,-3.2064,-3.1869,-3.1795,-3.1765,-3.157,-3.1511,-3.1511,0.0,0.0,0.0,0.0,0.0,0.0,0.0,0.0,0.0,0.0,0.0,0.0,0.0,0.0,0.0,0.0,0.0,0.0,0.0,-2.4515,-2.4532,-2.4503,-2.4547,-2.4731,-2.5057,-2.5518,-2.6366,-2.7615,-2.8073,-2.854,-2.9016,-2.94,-2.9598,-2.9598,-2.9598,-2.956,-2.9522,-2.9204,-2.8755,-2.825,-2.7951,-2.7475,-2.7046,0.0,0.0,0.0,0.0,0.0,0.0,0.0,0.0,0.0,0.0,0.0,0.0,-3.0039,-2.9519,-2.9107,-2.9908,0.0,0.0,0.0,0.0,0.0,0.0,0.0,0.0,0.0,0.0,0.0,0.0,0.0,0.0,-3.1637,-3.19,-3.2007,-3.1553,-3.1511,-3.1511,-3.1511,-3.1511,-3.1511,-3.1511,-3.1511,-3.1511,-3.1511,-3.1511,-3.1511,-3.1511,-3.1511,-3.1511,-3.1511,-3.1884,-3.2093,-3.2093,-3.2093,-3.2093,-3.2093,-3.169,-3.1914,-3.2721,-3.2721,-3.2721,-3.2721,-3.2721,-3.2721,-3.2677,-3.2258,-3.1854,-3.1511,-3.1511,-3.1511,-3.1511,-3.1511,-3.1511,-3.1511,0.0,0.0,0.0,0.0,0.0,0.0,0.0,0.0,0.0,0.0,0.0,0.0,0.0,0.0,0.0,0.0,0.0,0.0,0.0,0.0,-2.4555,-2.4503,-2.4618,-2.507,-2.5864,-2.5913,-2.6717,-2.8381,-2.8325,-2.8287,-2.8274,-2.9251,-2.9655,-2.9598,-2.9655,-2.9645,-2.9541,-2.8736,-2.8371,-2.8297,-2.7418,-2.6991,-2.6951,-2.7699,0.0,0.0,0.0,0.0,0.0,0.0,0.0,0.0,0.0,0.0,0.0,-2.9513,-2.9463,-2.9475,0.0,0.0,0.0,0.0,0.0,0.0,0.0,0.0,0.0,0.0,0.0,0.0,0.0,0.0,-3.1511,-3.1511,-3.1511,-3.1511,-3.1511,-3.1511,-3.1511,-3.1511,-3.1511,-3.1511,-3.1511,-3.1511,-3.1511,-3.1511,-3.1511,-3.1511,-3.1511,-3.1511,-3.1511,-3.1511,-3.1511,-3.1511,-3.1511,-3.1511,-3.1511,-3.1511,-3.1511,-3.1511,-3.1511,-3.1511,-3.1511,-3.1511,-3.1511,-3.1511,-3.1511,-3.1511,-3.1511,-3.1511,-3.1511,-3.1511,-3.1511,-3.1511,-3.1511,-3.1511,0.0,0.0,0.0,0.0,0.0,0.0,0.0,0.0,0.0,0.0,0.0,0.0,0.0,0.0,0.0,0.0,0.0,0.0,0.0,0.0,-2.4515,-2.4503,-2.4618,-2.5046,-2.5815,-2.6534,-2.734,-2.8231,-2.8269,-2.8652,-2.9364,-2.9589,-2.9655,-2.9598,-2.9617,-2.9569,-2.9474,-2.8652,-2.825,-2.8089,-2.727,-2.6859,-2.6823,-2.7503,-2.775,0.0,0.0,0.0,0.0,0.0,0.0,0.0,-2.9248,-2.9134,-2.9092,-2.9088,-2.9176,0.0,0.0,0.0,0.0,0.0,0.0,0.0,0.0,0.0,0.0,0.0,0.0,0.0,0.0,-3.1511,-3.1511,-3.1511,-3.1511,-3.1511,-3.1511,-3.1511,-3.1511,-3.1511,-3.1511,-3.1511,-3.1511,-3.1511,-3.1511,-3.1511,-3.1511,-3.1511,-3.1511,-3.1511,-3.1511,-3.1511,-3.1511,-3.1511,-3.1511,-3.1511,-3.1511,-3.1511,-3.1511,-3.1511,-3.1511,-3.1511,-3.1511,-3.1511,-3.1511,-3.1511,-3.1511,-3.1511,-3.1511,-3.1511,-3.1511,-3.1511,-3.1511,-3.1511,-3.1511,-3.1511,0.0,0.0,0.0,0.0,0.0,0.0,0.0,0.0,0.0,0.0,0.0,0.0,0.0,0.0,0.0,0.0,0.0,0.0,0.0,0.0,-2.4582,-2.4642,-2.4707,-2.5281,-2.6461,-2.6952,-2.7751,-2.8866,-2.8493,-2.8755,0.0,0.0,-2.9673,-2.9645,-2.9645,-2.9383,-2.8904,-2.8474,-2.7978,-2.7434,-2.7025,-2.6962,-2.7174,-2.7545,-2.7955,-2.8425,-2.928,0.0,0.0,0.0,0.0,0.0,0.0,0.0,-2.9025,-2.911,-2.9038,-2.9001,0.0,0.0,0.0,0.0,0.0,0.0,0.0,0.0,0.0,0.0,0.0,0.0,0.0,-3.1511,-3.1511,-3.1511,-3.1511,-3.1511,-3.1511,-3.1511,-3.1511,-3.1511,-3.1511,-3.1511,-3.1511,-3.1511,-3.1511,-3.1511,-3.1511,-3.1511,-3.1511,-3.1511,-3.1511,-3.1511,-3.1511,-3.1511,-3.1511,-3.1511,-3.1511,-3.1511,-3.1511,-3.1511,-3.1511,-3.1511,-3.1511,-3.1511,-3.1511,-3.1511,-3.1511,-3.1511,-3.1511,-3.1511,-3.1511,-3.1511,-3.1511,-3.1511,-3.1511,-3.1511,0.0,0.0,0.0,0.0,0.0,0.0,0.0,0.0,0.0,0.0,0.0,0.0,0.0,0.0,0.0,0.0,0.0,0.0,0.0,0.0,0.0,-2.4791,-2.4809,-2.5566,-2.7171,-2.7069,-2.7796,-2.9382,-2.8662,0.0,0.0,0.0,0.0,-2.9673,-2.9373,-2.8961,-2.8446,-2.8175,-2.7715,-2.7167,-2.6999,-2.7269,-2.7787,-2.7839,-2.8393,-2.924,-2.9917,-2.9929,-2.9717,-3.0212,0.0,0.0,0.0,0.0,-2.8943,-2.9215,-2.8968,-2.8727,0.0,0.0,0.0,0.0,0.0,0.0,0.0,0.0,0.0,0.0,0.0,0.0,-3.1182,-3.1331,-3.1376,-3.1481,-3.1511,-3.1511,-3.1511,-3.1511,-3.1511,-3.1511,-3.1511,-3.1511,-3.1511,-3.1511,-3.1511,-3.1511,-3.1511,-3.1511,-3.1511,-3.1511,-3.1511,-3.1511,-3.1511,-3.1511,-3.1511,-3.1511,-3.1511,-3.1511,-3.1511,-3.1511,-3.1511,-3.1511,-3.1511,-3.1511,-3.1511,-3.1511,-3.1511,-3.1511,-3.1511,-3.1511,-3.1511,-3.1511,-3.1511,-3.1511,-3.1511,-3.1511,0.0,0.0,0.0,0.0,0.0,0.0,0.0,0.0,0.0,0.0,0.0,0.0,0.0,0.0,0.0,0.0,0.0,0.0,-2.45,0.0,0.0,-2.4715,-2.482,-2.562,-2.7175,-2.6577,-2.6989,-2.8465,0.0,0.0,0.0,0.0,0.0,-2.9551,0.0,0.0,0.0,0.0,-2.7705,-2.8643,-2.7816,-2.7915,-2.8543,-2.8512,-2.8989,-2.9735,-3.0002,-3.046,-3.0881,-3.0453,-3.0189,0.0,0.0,0.0,-2.89,-2.8889,-2.8954,0.0,0.0,0.0,0.0,0.0,0.0,0.0,0.0,0.0,0.0,0.0,0.0,0.0,-3.0417,-3.0642,-3.0808,-3.1406,-3.1511,-3.1511,-3.1511,-3.1511,-3.1511,-3.1511,-3.1511,-3.1511,-3.1511,-3.1511,-3.1511,-3.1511,-3.1511,-3.1511,-3.1511,-3.1511,-3.1511,-3.1511,-3.1511,-3.1511,-3.1511,-3.1511,-3.1511,-3.1511,-3.1511,-3.1511,-3.1511,-3.1511,-3.1511,-3.1511,-3.1511,-3.1511,-3.1511,-3.1511,-3.1511,-3.1511,-3.1511,-3.1511,-3.1511,-3.1511,-3.1511,-3.1511,0.0,0.0,0.0,0.0,0.0,0.0,0.0,0.0,0.0,0.0,0.0,0.0,0.0,0.0,0.0,-2.4462,-2.4114,-2.4089,-2.4578,-2.4671,-2.473,-2.4816,-2.4877,-2.5456,-2.6601,-2.6253,-2.6559,-2.7642,0.0,0.0,0.0,-2.6145,-2.6602,0.0,0.0,0.0,0.0,0.0,0.0,-2.823,-2.825,-2.8379,-2.8539,-2.8585,-2.9071,-2.9812,-3.0387,-3.0894,-3.1287,-3.143,-3.0888,-3.0082,-2.968,0.0,0.0,0.0,-2.8661,0.0,0.0,0.0,0.0,0.0,0.0,0.0,0.0,0.0,0.0,0.0,0.0,-2.8453,-2.9744,-2.9983,-3.0088,-3.0387,-3.0731,-3.0928,-3.0928,-3.1256,-3.1511,-3.1511,-3.1511,-3.1511,-3.1511,-3.1511,-3.1511,-3.1511,-3.1511,-3.1511,-3.1511,-3.1511,-3.1511,-3.1511,-3.1511,-3.1511,-3.1511,-3.1511,-3.1511,-3.1511,-3.1511,-3.1511,-3.1511,-3.1511,-3.1511,-3.1511,-3.1511,-3.1511,-3.1511,-3.1511,-3.1511,-3.1511,-3.1511,-3.1511,-3.1511,-3.1511,-3.1511,-3.1511,0.0,0.0,0.0,0.0,0.0,0.0,0.0,0.0,0.0,0.0,0.0,0.0,0.0,0.0,0.0,0.0,-2.339,-2.345,-2.4339,-2.4445,-2.4605,-2.4888,-2.4905,-2.5289,-2.6132,-2.585,-2.6057,0.0,0.0,0.0,-2.6453,-2.5597,-2.5782,0.0,-2.7419,0.0,0.0,0.0,0.0,0.0,0.0,-2.8589,-2.8415,-2.8444,-2.8941,-2.9721,-3.0639,-3.1174,-3.1536,-3.2192,-3.1618,-3.0567,-3.0166,-2.9643,0.0,0.0,0.0,0.0,0.0,0.0,0.0,0.0,0.0,0.0,0.0,0.0,0.0,0.0,0.0,-2.7899,-2.8918,-2.9232,-2.9412,-2.9577,-2.9968,-3.0268,-3.0268,-3.0717,-3.1017,-3.1017,-3.1017,-3.1017,-3.1017,-3.1017,-3.1017,-3.1017,-3.1017,-3.1017,-3.1017,-3.1152,-3.1241,-3.1241,-3.1406,-3.1511,-3.1511,-3.1511,-3.1511,-3.1511,-3.1511,-3.1511,-3.1511,-3.1511,-3.1511,-3.1511,-3.1511,-3.1511,-3.1511,-3.1511,-3.1511,-3.1511,-3.1511,-3.1511,-3.1511,-3.1511,-3.1511,-3.1511,0.0,0.0,0.0,0.0,0.0,0.0,0.0,0.0,0.0,0.0,0.0,0.0,-2.3454,-2.3324,-2.3005,-2.2298,-2.2193,-2.2551,-2.35,-2.3564,-2.3964,-2.4854,-2.4898,0.0,-2.5988,-2.5258,0.0,0.0,0.0,0.0,-2.4756,-2.6198,-2.6525,-2.5861,-2.5917,-2.7102,-2.9034,0.0,0.0,0.0,0.0,0.0,0.0,0.0,-2.8622,-2.9465,-3.0524,-3.1317,-3.1928,-3.2285,-3.2297,-3.1942,-3.0544,-3.0027,-2.9776,0.0,0.0,0.0,0.0,0.0,0.0,0.0,0.0,0.0,0.0,0.0,0.0,0.0,0.0,-2.7615,-2.769,-2.8203,-2.8861,-2.9517,-2.9636,-2.9651,-2.9651,-2.9696,-2.9711,-2.9711,-2.9711,-2.9711,-2.9711,-2.9711,-2.9711,-2.9711,-2.9711,-2.9711,-2.9711,-3.0238,-3.0552,-3.0552,-3.1167,-3.1511,-3.1511,-3.1511,-3.1511,-3.1511,-3.1511,-3.1511,-3.1511,-3.1511,-3.1511,-3.1511,-3.1511,-3.1511,-3.1511,-3.1511,-3.1511,-3.1511,-3.1511,-3.1511,-3.1511,-3.1511,-3.1511,-3.1511,0.0,0.0,0.0,0.0,0.0,0.0,0.0,0.0,0.0,0.0,0.0,0.0,0.0,-2.2066,-2.2017,-2.2672,-2.324,-2.3744,-2.4118,-2.4215,-2.4418,-2.4757,-2.4776,-2.4892,-2.5163,-2.4845,0.0,0.0,0.0,-2.5159,-2.5323,-2.5902,-2.6516,-2.7153,-2.7153,-2.7584,-2.8319,-2.8459,0.0,0.0,0.0,0.0,0.0,0.0,0.0,0.0,0.0,0.0,-3.1916,-3.2039,-3.2145,-3.2045,-3.0912,-3.0224,-2.9592,-2.8438,-2.7876,0.0,0.0,0.0,0.0,0.0,0.0,0.0,0.0,0.0,0.0,0.0,-2.76,-2.76,-2.76,-2.7809,-2.8049,-2.8289,-2.8693,-2.8951,-2.8951,-2.9337,-2.9606,-2.9606,-2.9606,-2.9606,-2.9606,-2.9606,-2.9606,-2.9606,-2.9606,-2.9606,-2.9606,-2.9789,-2.9909,-2.9909,-3.0163,-3.0477,-3.0838,-3.1286,-3.1511,-3.1511,-3.1511,-3.1511,-3.1511,-3.1511,-3.1511,-3.1511,-3.1511,-3.1511,-3.1511,-3.1511,-3.1511,-3.1511,-3.1511,-3.1511,-3.1511,-3.1511,-3.1511,-3.1511,0.0,0.0,0.0,0.0,0.0,0.0,0.0,0.0,0.0,-2.2821,0.0,0.0,0.0,0.0,-2.1919,-2.2679,-2.3262,-2.3756,-2.4132,-2.4245,-2.4422,-2.4689,-2.47,-2.4773,-2.4954,-2.4957,0.0,0.0,0.0,0.0,0.0,-2.6292,-2.6888,-2.7805,-2.8066,-2.8165,0.0,0.0,0.0,-2.8499,0.0,0.0,-2.841,0.0,0.0,0.0,0.0,0.0,0.0,-3.1419,-3.1516,-3.1473,-3.0574,-2.9773,-2.8945,-2.8031,-2.7659,0.0,0.0,0.0,0.0,0.0,0.0,0.0,0.0,0.0,0.0,0.0,-2.76,-2.76,-2.76,-2.76,-2.76,-2.76,-2.7974,-2.8248,-2.8248,-2.8663,-2.8933,-2.8933,-2.8933,-2.8933,-2.8933,-2.8933,-2.8933,-2.8933,-2.8933,-2.8933,-2.8933,-2.9157,-2.9382,-2.9592,-2.9606,-2.9774,-3.0193,-3.0657,-3.0957,-3.1152,-3.1152,-3.1271,-3.1511,-3.1511,-3.1511,-3.1511,-3.1511,-3.1511,-3.1511,-3.1511,-3.1511,-3.1511,-3.1511,-3.1511,-3.1511,-3.1511,-3.1511,-3.1511,0.0,0.0,0.0,0.0,0.0,0.0,0.0,0.0,-2.3429,-2.4137,0.0,0.0,0.0,0.0,0.0,-2.2092,-2.2046,-2.2495,-2.3491,-2.3547,-2.3904,-2.4703,-2.4759,-2.5001,-2.5522,-2.5588,0.0,0.0,0.0,0.0,0.0,0.0,-2.772,-2.7652,-2.8367,-2.8755,-2.8881,0.0,-2.8562,-2.847,0.0,-2.8453,-2.9143,0.0,0.0,0.0,-3.0294,-3.0372,0.0,-3.0443,0.0,0.0,0.0,-2.8679,-2.7943,-2.776,-2.7644,0.0,0.0,0.0,0.0,0.0,0.0,0.0,0.0,0.0,0.0,0.0,-2.761,-2.76,-2.76,-2.76,-2.76,-2.76,-2.76,-2.76,-2.76,-2.76,-2.76,-2.76,-2.76,-2.76,-2.76,-2.76,-2.76,-2.76,-2.76,-2.76,-2.76,-2.8203,-2.8861,-2.9532,-2.9577,-2.9577,-2.9577,-2.9592,-2.9879,-3.0477,-3.0477,-3.0821,-3.1451,-3.1466,-3.1466,-3.1466,-3.1496,-3.1511,-3.1511,-3.1511,-3.1511,-3.1511,-3.1511,-3.1511,-3.1511,-3.1511,-3.1511,-3.1511,0.0,0.0,0.0,0.0,0.0,0.0,0.0,0.0,-2.2253,0.0,0.0,0.0,-2.2325,-2.2785,-2.2993,-2.2763,-2.3261,-2.3916,-2.4679,-2.4726,-2.5076,-2.5823,-2.586,-2.597,-2.6219,-2.619,0.0,0.0,0.0,0.0,0.0,0.0,0.0,0.0,-2.8415,-2.8484,-2.8466,-2.8505,0.0,0.0,-2.806,-2.8056,0.0,0.0,0.0,0.0,0.0,-2.9819,-3.0294,0.0,-3.025,-3.1023,0.0,0.0,0.0,0.0,0.0,0.0,-2.958,0.0,0.0,0.0,0.0,0.0,0.0,0.0,0.0,0.0,-2.7537,-2.76,-2.76,-2.76,-2.76,-2.76,-2.76,-2.76,-2.76,-2.76,-2.76,-2.76,-2.76,-2.76,-2.76,-2.76,-2.76,-2.76,-2.76,-2.76,-2.76,-2.7779,-2.7959,-2.8154,-2.8607,-2.8876,-2.8876,-2.934,-2.9696,-2.9834,-2.9834,-2.9939,-3.0133,-3.0582,-3.0791,-3.0806,-3.1286,-3.1511,-3.1511,-3.1511,-3.1511,-3.1511,-3.1511,-3.1511,-3.1511,-3.1511,-3.1511,-3.1511,0.0,0.0,0.0,0.0,0.0,0.0,0.0,-2.257,-2.2415,0.0,0.0,0.0,-2.2873,-2.3511,-2.3922,-2.3913,-2.4604,-2.521,-2.5623,-2.5663,-2.5852,-2.6281,-2.6311,-2.6486,-2.6872,-2.6895,0.0,0.0,0.0,0.0,0.0,0.0,0.0,0.0,0.0,0.0,0.0,0.0,0.0,0.0,-2.7862,0.0,0.0,-2.8795,-2.8839,0.0,0.0,0.0,-2.9654,-2.8716,-2.9056,0.0,0.0,0.0,0.0,0.0,0.0,0.0,0.0,0.0,0.0,0.0,0.0,0.0,-2.8017,-2.7635,-2.7391,0.0,-2.7563,-2.76,-2.76,-2.76,-2.76,-2.76,-2.76,-2.76,-2.76,-2.76,-2.76,-2.76,-2.76,-2.76,-2.76,-2.76,-2.76,-2.76,-2.76,-2.76,-2.76,-2.76,-2.76,-2.76,-2.7989,-2.8173,-2.8173,-2.8573,-2.8918,-2.9175,-2.9175,-2.9337,-2.9621,-2.9953,-3.0118,-3.0148,-3.0552,-3.0717,-3.0717,-3.0717,-3.1017,-3.1511,-3.1511,-3.1511,-3.1511,-3.1511,-3.1511,-3.1511,0.0,0.0,0.0,0.0,0.0,0.0,0.0,-2.3612,-2.3391,0.0,-2.4303,-2.4328,-2.4328,-2.4847,-2.5241,-2.5313,-2.5855,-2.6245,-2.637,-2.6359,-2.6401,-2.6492,-2.6509,-2.6819,-2.7501,-2.7628,0.0,0.0,0.0,0.0,0.0,0.0,0.0,0.0,0.0,0.0,0.0,0.0,0.0,-2.8188,-2.79,-2.8298,0.0,0.0,-2.9319,-2.9809,-2.9021,-2.8824,-2.8785,-2.7987,-2.7588,0.0,0.0,0.0,0.0,0.0,-2.7851,0.0,0.0,0.0,0.0,0.0,0.0,0.0,-2.7375,-2.7222,-2.728,-2.7448,-2.7514,-2.7525,-2.7485,-2.751,-2.7525,-2.7485,-2.752,-2.756,-2.761,-2.76,-2.76,-2.76,-2.76,-2.76,-2.76,-2.76,-2.76,-2.76,-2.76,-2.76,-2.76,-2.76,-2.76,-2.76,-2.76,-2.76,-2.76,-2.76,-2.7899,-2.8487,-2.8487,-2.8786,-2.9382,-2.9472,-2.9502,-2.9502,-2.9577,-2.9606,-2.9606,-2.9606,-3.0268,-3.1286,-3.1286,-3.1286,-3.1301,-3.1361,-3.1391,-3.1406,-2.4082,0.0,0.0,0.0,0.0,0.0,0.0,0.0,-2.3982,-2.4744,-2.536,-2.5705,-2.5705,-2.5825,-2.5927,-2.6005,-2.6073,-2.6351,-2.69,-2.6846,-2.7054,-2.7638,-2.7768,-2.795,-2.8203,-2.819,0.0,0.0,0.0,0.0,0.0,0.0,0.0,0.0,0.0,0.0,0.0,0.0,0.0,-2.8955,-2.9407,0.0,-2.8986,-2.8863,-2.8513,-2.8079,-2.7898,-2.8299,-2.8867,-2.8644,-2.8069,-2.7447,0.0,0.0,0.0,-2.7097,0.0,0.0,0.0,0.0,0.0,0.0,-2.7623,0.0,-2.6766,-2.6792,-2.6839,0.0,-2.6961,-2.6996,-2.6891,-2.6974,-2.6996,-2.6891,-2.7111,-2.7354,-2.756,-2.76,-2.76,-2.76,-2.76,-2.76,-2.76,-2.76,-2.76,-2.76,-2.76,-2.76,-2.76,-2.76,-2.76,-2.76,-2.76,-2.76,-2.76,-2.76,-2.766,-2.7809,-2.7809,-2.7869,-2.8004,-2.8532,-2.8801,-2.8831,-2.9382,-2.9606,-2.9606,-2.9606,-2.9756,-2.9968,-2.9968,-2.9968,-3.0028,-3.0522,-3.0717,-3.0763,-2.3959,0.0,0.0,0.0,0.0,0.0,0.0,0.0,-2.4657,-2.5408,-2.5823,-2.6057,-2.6093,-2.6375,-2.6571,-2.6644,-2.6885,-2.7192,-2.7535,-2.7457,-2.7579,-2.7979,-2.7996,-2.8067,-2.8191,-2.8128,-2.8174,0.0,0.0,0.0,0.0,0.0,0.0,0.0,0.0,0.0,0.0,0.0,-3.0066,-3.011,-2.9646,0.0,-2.8329,-2.8241,-2.7938,-2.76,-2.76,-2.7889,-2.8252,-2.8225,-2.7843,0.0,-2.7353,-2.7332,-2.7347,0.0,-2.8084,-2.8489,0.0,0.0,0.0,-2.7639,-2.708,0.0,0.0,-2.6705,-2.674,-2.6824,-2.6878,-2.6891,-2.6816,-2.6853,-2.6848,-2.6679,-2.6956,-2.7195,-2.7155,-2.7412,-2.76,-2.76,-2.76,-2.76,-2.76,-2.76,-2.76,-2.76,-2.76,-2.76,-2.76,-2.76,-2.76,-2.76,-2.76,-2.76,-2.76,-2.76,-2.76,-2.76,-2.76,-2.76,-2.76,-2.7959,-2.8109,-2.8113,-2.8468,-2.8603,-2.8603,-2.8603,-2.8603,-2.8678,-2.9352,-2.9606,-2.9651,-2.9924,-3.0043,-3.0133,-2.392,0.0,0.0,0.0,0.0,0.0,0.0,0.0,-2.5321,-2.6079,-2.6137,-2.6169,-2.6285,-2.648,-2.6619,-2.669,-2.7013,-2.7357,-2.7767,-2.7694,-2.7781,-2.8107,-2.8014,-2.7941,-2.7941,-2.7871,-2.7904,0.0,0.0,0.0,0.0,0.0,0.0,0.0,0.0,0.0,0.0,0.0,0.0,-3.0607,0.0,-2.8597,-2.8303,-2.8114,-2.7929,-2.777,-2.7635,-2.76,-2.7625,-2.7735,-2.7674,-2.7545,-2.7567,-2.7518,0.0,0.0,0.0,0.0,0.0,0.0,0.0,0.0,0.0,-2.669,0.0,0.0,0.0,-2.6828,-2.6828,0.0,0.0,0.0,0.0,0.0,0.0,0.0,0.0,-2.7072,0.0,-2.7433,-2.7535,-2.7565,-2.752,-2.7505,-2.754,-2.7585,-2.7555,-2.748,-2.7405,-2.7405,-2.7345,-2.7225,-2.721,-2.7285,-2.7405,-2.7405,-2.7465,-2.76,-2.76,-2.76,-2.76,-2.76,-2.76,-2.76,-2.76,-2.76,-2.76,-2.76,-2.76,-2.7705,-2.8798,-2.9217,-2.9232,-2.9367,-2.9427,-2.9517,-2.3914,-2.3721,0.0,0.0,0.0,0.0,0.0,0.0,-2.5835,-2.6677,-2.668,-2.6708,-2.6974,-2.5881,0.0,0.0,-2.4689,-2.5107,-2.6916,-2.6857,-2.7297,-2.8572,-2.8557,-2.8276,-2.776,-2.7665,-2.7674,-2.7745,0.0,0.0,0.0,0.0,0.0,0.0,-2.6424,0.0,0.0,0.0,-2.8939,0.0,-2.8771,-2.9485,0.0,-2.982,-2.9107,-2.8401,-2.782,-2.76,-2.7685,0.0,-2.8379,-2.8295,0.0,-2.8078,-2.828,-2.7895,0.0,0.0,0.0,0.0,0.0,0.0,-2.6742,-2.6606,-2.6621,0.0,-2.6496,-2.6405,0.0,0.0,0.0,0.0,0.0,0.0,0.0,0.0,-2.6256,-2.6516,-2.6751,-2.6803,-2.7263,-2.7485,-2.7202,-2.7165,-2.7288,-2.758,-2.7331,-2.7046,-2.6731,-2.6692,-2.6437,-2.5854,-2.5839,-2.6108,-2.6692,-2.6692,-2.7016,-2.76,-2.76,-2.76,-2.76,-2.76,-2.76,-2.76,-2.76,-2.76,-2.76,-2.76,-2.76,-2.7615,-2.7764,-2.7824,-2.7899,-2.8487,-2.8712,-2.8801,-2.4882,-2.4764,0.0,0.0,0.0,0.0,0.0,0.0,-2.6819,-2.7307,-2.725,-2.7381,0.0,0.0,0.0,0.0,0.0,-2.6399,0.0,0.0,-2.7491,-2.8319,-2.8254,-2.7827,-2.7029,-2.6944,-2.6939,-2.6985,-2.6856,0.0,0.0,0.0,0.0,0.0,-2.6699,0.0,-2.8367,0.0,-2.9,0.0,0.0,0.0,0.0,-2.797,-2.7037,-2.6724,-2.6426,-2.6322,-2.6361,-2.6622,-2.7121,-2.7486,0.0,0.0,0.0,-2.802,0.0,0.0,0.0,0.0,0.0,0.0,-2.6735,-2.6703,-2.6621,-2.6486,-2.6382,-2.6416,0.0,0.0,0.0,0.0,0.0,0.0,-2.5979,-2.6126,0.0,0.0,-2.6658,-2.6636,0.0,-2.7024,-2.7076,-2.6925,-2.6877,-2.7001,-2.6537,-2.6161,-2.6019,-2.6019,-2.5899,-2.5615,-2.5615,-2.5569,-2.5492,-2.5492,-2.5602,-2.5802,-2.5802,-2.5976,-2.6322,-2.6322,-2.6322,-2.6322,-2.6322,-2.6322,-2.6322,-2.6322,-2.6322,-2.6322,-2.6322,-2.6837,-2.763,-2.7929,-2.8034,-2.8124,-2.5967,0.0,0.0,0.0,0.0,0.0,0.0,0.0,0.0,-2.7816,0.0,0.0,-2.8591,-2.8047,0.0,0.0,-2.6254,-2.6144,0.0,0.0,-2.704,-2.7604,0.0,0.0,0.0,-2.634,-2.6418,-2.6471,0.0,0.0,0.0,0.0,0.0,0.0,0.0,-2.7512,-2.7705,0.0,0.0,-2.8495,-2.791,-2.771,-2.7583,-2.6189,-2.5577,-2.5398,-2.5398,-2.5398,-2.5425,-2.5577,-2.6165,-2.6662,-2.5797,-2.6293,-2.7221,0.0,0.0,0.0,-2.784,-2.7391,-2.6515,-2.6549,-2.6641,-2.6691,-2.662,-2.6469,-2.6382,-2.6485,-2.6363,0.0,0.0,0.0,-2.5917,-2.5698,0.0,-2.5983,0.0,-2.623,0.0,0.0,0.0,-2.6707,-2.7049,-2.6688,-2.6471,-2.6559,-2.5876,-2.5423,-2.533,-2.5167,-2.5008,-2.4807,-2.4637,-2.4498,-2.4418,-2.4234,-2.4301,-2.4537,-2.4368,-2.4595,-2.5135,-2.5135,-2.5232,-2.5398,-2.5398,-2.5398,-2.5398,-2.5398,-2.5398,-2.5398,-2.5398,-2.6054,-2.6993,-2.6993,-2.6993,-2.7067,-2.6955,-2.6021,0.0,0.0,0.0,0.0,0.0,0.0,0.0,0.0,0.0,0.0,0.0,0.0,0.0,0.0,0.0,-2.252,-2.4467,0.0,-2.5427,0.0,0.0,-2.6843,0.0,0.0,-2.6348,0.0,0.0,0.0,0.0,0.0,0.0,0.0,0.0,-2.7878,-2.7848,-2.7442,-2.6517,-2.5341,-2.5328,-2.4505,-2.3522,0.0,-2.5978,-2.5398,-2.5398,-2.5398,-2.5494,-2.6073,-2.628,-2.6281,-2.5966,-2.6075,-2.6289,-2.6036,-2.5637,-2.5491,-2.6576,-2.6313,-2.5859,-2.6373,-2.6502,-2.6536,-2.6589,-2.6537,-2.6485,-2.6502,-2.6382,-2.6207,-2.5954,-2.5915,-2.5842,-2.5635,-2.5675,0.0,0.0,0.0,0.0,0.0,0.0,0.0,-2.6973,-2.6414,-2.6157,-2.6485,-2.5643,-2.4962,-2.4657,-2.4086,-2.3455,-2.2803,-2.2156,-2.2437,-2.3721,-2.3094,-2.3403,-2.4683,-2.4047,-2.3996,-2.454,-2.454,-2.4845,-2.5398,-2.5398,-2.5398,-2.5398,-2.5398,-2.5398,-2.5398,-2.5398,-2.5425,-2.5481,-2.5481,-2.5481,-2.5481,0.0,0.0,0.0,0.0,0.0,0.0,0.0,-2.7572,0.0,0.0,-2.7432,0.0,0.0,-2.6329,-2.559,0.0,0.0,-2.4273,-2.4927,-2.5726,0.0,0.0,0.0,-2.6932,0.0,0.0,0.0,0.0,0.0,0.0,0.0,0.0,0.0,0.0,0.0,-2.7573,0.0,0.0,0.0,0.0,0.0,-2.4844,-2.4346,-2.4246,-2.4069,-2.3872,-2.3872,-2.3872,-2.3917,-2.4097,-2.4744,-2.5287,-2.4348,-2.4844,-2.5718,-2.5394,-2.5015,-2.4891,-2.5875,-2.5699,-2.5344,-2.579,-2.599,-2.6178,-2.6476,-2.6451,-2.6365,-2.6365,-2.6311,-2.6187,-2.6008,-2.5917,-2.5844,-2.568,-2.5682,-2.5663,0.0,-2.5754,-2.5721,0.0,0.0,0.0,0.0,-2.6072,-2.5642,-2.5768,-2.4737,-2.407,-2.3939,-2.3368,-2.2925,-2.2709,-2.2053,-2.1725,-2.1789,-2.1545,-2.1654,-2.2048,-2.1826,-2.2007,-2.254,-2.289,-2.3147,-2.3355,-2.3732,-2.3872,-2.3872,-2.3872,-2.3872,-2.3872,-2.3872,-2.3872,-2.4018,-2.5035,-2.5398,-2.5481,-2.6348,0.0,0.0,0.0,0.0,0.0,0.0,0.0,0.0,0.0,-2.7536,0.0,-2.6687,0.0,-2.5817,0.0,-2.4775,-2.4677,-2.5025,-2.5482,0.0,-2.544,-2.6213,-2.5997,0.0,0.0,0.0,0.0,0.0,-2.6163,0.0,0.0,0.0,0.0,0.0,0.0,-2.7101,0.0,-2.5655,0.0,0.0,-2.4405,0.0,-2.3416,-2.3369,-2.3715,-2.3263,-2.3108,-2.3108,-2.3108,-2.364,-2.4187,-2.3369,-2.3806,-2.4586,-2.4396,-2.4121,-2.4113,-2.4918,-2.4871,-2.4734,-2.5161,-2.5379,-2.5603,-2.6069,-2.6069,-2.5996,-2.6034,-2.6104,-2.5993,-2.554,-2.5693,-2.5798,-2.5502,-2.5624,-2.5735,0.0,-2.5756,-2.5793,-2.5472,0.0,0.0,0.0,-2.5946,-2.5489,-2.5098,-2.4134,-2.3478,-2.3275,-2.2475,-2.2011,-2.2011,-2.1366,-2.0953,-2.0795,-2.0547,-2.054,-2.0719,-2.0483,-2.0679,-2.1232,-2.1556,-2.1945,-2.2334,-2.2656,-2.292,-2.3108,-2.3108,-2.3108,-2.3108,-2.3108,-2.3108,-2.3215,-2.4208,-2.4582,-2.4696,0.0,0.0,0.0,0.0,-2.6963,0.0,0.0,0.0,-2.8679,0.0,-2.7963,-2.7769,-2.7061,-2.5865,-2.5094,-2.5094,-2.3852,-2.3551,-2.4646,-2.4175,0.0,0.0,-2.4542,-2.4242,-2.3797,0.0,0.0,0.0,0.0,0.0,0.0,0.0,0.0,0.0,-3.0419,0.0,-2.699,-2.7005,-2.5477,-2.3108,-2.3108,-2.3125,-2.3185,-2.3125,-2.3907,-2.4843,-2.3551,-2.3108,-2.3108,-2.3108,-2.3108,-2.3108,-2.3108,-2.3108,-2.3108,-2.3108,-2.3108,-2.3196,-2.371,-2.3865,-2.3999,-2.4521,-2.4655,-2.4814,-2.5428,-2.5472,-2.5409,-2.5519,-2.5773,-2.565,-2.4699,-2.5258,-2.5683,-2.5122,-2.5516,-2.5846,-2.5746,-2.6033,-2.619,-2.5964,-2.6262,0.0,0.0,-2.5979,-2.5619,-2.4621,-2.3914,-2.3303,0.0,-2.1561,-2.087,-2.0795,-2.0156,-2.0105,-2.0746,-2.0131,-2.0131,-2.0746,-2.0105,-2.0087,-2.0654,-2.0679,-2.127,-2.2234,-2.2284,-2.2581,-2.3058,-2.3095,-2.3108,-2.3108,-2.3108,-2.3108,-2.3108,-2.3108,-2.3108,-2.3215,-2.5846,-2.5661,-2.5492,0.0,-2.6781,-2.7888,0.0,0.0,0.0,0.0,-2.6486,-2.5508,-2.4292,-2.3865,-2.3657,-2.3657,-2.331,0.0,0.0,0.0,0.0,-2.3581,-2.4515,-2.4681,-2.3811,-2.4307,-2.4934,-2.5688,0.0,0.0,-2.849,0.0,0.0,0.0,0.0,0.0,-2.6864,-2.6806,-2.5342,-2.3108,-2.3108,-2.3657,-2.4403,-2.3446,-2.3907,-2.4843,-2.3551,-2.3108,-2.3108,-2.3108,-2.3108,-2.3108,-2.3108,-2.3108,-2.3108,-2.3108,-2.3108,-2.3118,-2.3267,-2.3317,-2.3428,-2.3972,-2.4126,-2.4257,-2.479,-2.4915,-2.4891,-2.4923,-2.5002,-2.5017,-2.497,-2.5215,-2.5447,-2.5452,-2.549,-2.5371,-2.4891,0.0,0.0,-2.5041,0.0,0.0,-2.6191,-2.5762,-2.5335,-2.5031,-2.448,-2.3749,-2.2762,-2.2298,-2.1679,-2.082,-2.0156,-1.9875,-2.0055,-1.9901,-1.9901,-2.0055,-1.9875,-1.9874,-2.0037,-2.049,-2.0842,-2.1169,-2.1958,-2.2397,-2.2531,-2.2932,-2.3108,-2.3108,-2.3108,-2.3108,-2.3108,-2.3108,-2.3108,-2.3215,-2.5747,0.0,0.0,-2.55,0.0,0.0,-2.7316,-2.7854,0.0,-2.691,-2.6187,0.0,-2.3907,-2.3369,-2.3108,-2.3108,-2.3108,0.0,-2.382,0.0,0.0,-2.3836,-2.4153,-2.4063,-2.3511,-2.3889,0.0,-2.5705,0.0,0.0,-2.8963,0.0,0.0,0.0,0.0,-2.8036,0.0,-2.5643,-2.4449,-2.3205,-2.3144,-2.3535,0.0,-2.3369,-2.3564,-2.4084,-2.3369,-2.3108,-2.3108,-2.3108,-2.3108,-2.3108,-2.3108,-2.3108,-2.3108,-2.3108,-2.3108,-2.3108,-2.3108,-2.3108,-2.3157,-2.3462,-2.3542,-2.3694,-2.4233,-2.436,-2.436,-2.436,-2.4482,-2.4534,-2.4266,-2.4735,-2.5264,-2.5545,-2.5543,-2.5306,-2.4788,0.0,0.0,0.0,-2.4965,-2.5382,-2.6101,-2.5067,-2.4538,-2.4906,-2.4225,-2.3603,-2.3143,-2.2406,-2.1675,-2.1037,-2.0232,-1.9798,-1.9798,-1.9798,-1.9798,-1.9798,-1.9798,-1.9798,-1.9811,-2.0137,-2.0453,-2.0729,-2.1358,-2.187,-2.2305,-2.2619,-2.2895,-2.3108,-2.3108,-2.3108,-2.3108,-2.3108,-2.3108,-2.3155,-2.5825,0.0,0.0,0.0,0.0,0.0,0.0,-2.7384,-2.7958,-2.6483,0.0,-2.5628,-2.453,-2.361,-2.3108,-2.3108,-2.3108,-2.3522,-2.4518,-2.3657,-2.3522,-2.4518,-2.3627,-2.3108,-2.3108,-2.3404,-2.4176,0.0,0.0,0.0,0.0,0.0,0.0,0.0,0.0,0.0,0.0,-2.4176,-2.3324,-2.3345,-2.3179,-2.3108,-2.3108,-2.3108,-2.3108,-2.3108,-2.3108,-2.3108,-2.3108,-2.3108,-2.3108,-2.3108,-2.3108,-2.3108,-2.3108,-2.3108,-2.3108,-2.3108,-2.3108,-2.3108,-2.3108,-2.3108,-2.3108,-2.3213,-2.3708,-2.3795,-2.3795,-2.3795,-2.4069,-2.4076,-2.3238,-2.3969,-2.4847,-2.5323,-2.5288,-2.5098,-2.4699,0.0,0.0,0.0,0.0,0.0,-2.5824,-2.4456,-2.3891,-2.4639,-2.3827,-2.3379,-2.349,-2.2232,-2.1404,-2.1105,-2.027,-1.9798,-1.9798,-1.9798,-1.9798,-1.9798,-1.9798,-1.9798,-1.9798,-1.9798,-2.0075,-2.0578,-2.0666,-2.1232,-2.2108,-2.2246,-2.2606,-2.3108,-2.3108,-2.3108,-2.3108,-2.3108,-2.3108,-2.3108,0.0,0.0,0.0,0.0,0.0,-2.5723,-2.5189,-2.5436,-2.5609,-2.5301,-2.4346,-2.361,-2.3399,-2.3215,-2.3108,-2.3108,-2.3108,0.0,0.0,0.0,0.0,-2.3399,-2.3215,-2.3108,-2.3108,-2.3319,-2.4314,0.0,0.0,0.0,0.0,0.0,0.0,0.0,0.0,0.0,-2.5132,-2.3906,0.0,-2.3153,-2.3118,-2.3108,-2.3108,-2.3108,-2.3108,-2.3108,-2.3108,-2.3108,-2.3108,-2.3108,-2.3108,-2.3108,-2.3108,-2.3108,-2.3108,-2.3108,-2.3108,-2.3108,-2.3108,-2.3108,-2.3108,-2.3108,-2.3108,-2.313,-2.3213,-2.3246,-2.3246,-2.3246,-2.3304,-2.3259,-2.2989,-2.3031,-2.3391,-2.4241,-2.3722,-2.3142,-2.2892,0.0,0.0,0.0,0.0,-2.3842,-2.5489,-2.5291,-2.5089,-2.5234,-2.5086,-2.4235,-2.2556,-2.2597,-2.1876,-2.0131,-1.9888,-1.9798,-1.9798,-1.9798,-1.9798,-1.9798,-1.9798,-1.9798,-1.9798,-1.9798,-1.9861,-1.9987,-2.0478,-2.0805,-2.1056,-2.1933,-2.2606,-2.3108,-2.3108,-2.3108,-2.3108,-2.3108,-2.3108,-2.3108,0.0,0.0,0.0,0.0,0.0,0.0,-2.4845,-2.4314,-2.4187,-2.473,-2.4257,-2.3891,-2.3891,-2.3399,-2.3108,-2.3108,-2.3108,-2.3108,-2.3108,-2.3108,-2.3108,-2.3108,-2.3108,-2.3108,-2.3108,-2.3178,-2.4264,-2.6294,-2.6382,-2.7513,-2.957,0.0,0.0,0.0,0.0,-2.5316,0.0,0.0,-2.3302,-2.3257,-2.3149,-2.3108,-2.3108,-2.3108,-2.3108,-2.3108,-2.3108,-2.3108,-2.3108,-2.3108,-2.3108,-2.3108,-2.3108,-2.3108,-2.3108,-2.3108,-2.3108,-2.3108,-2.3108,-2.3108,-2.3108,-2.3108,-2.3108,-2.3108,-2.3108,-2.3108,-2.3108,-2.3108,-2.3108,-2.2926,-2.2373,-2.2773,-2.3123,-2.2805,-2.3105,-2.3003,-2.1969,-2.2163,-2.2429,0.0,0.0,0.0,0.0,-2.5266,-2.5288,-2.4812,0.0,-2.4086,-2.2542,-2.2701,-2.2158,-2.0631,-2.008,-1.9798,-1.9798,-1.9798,-1.9798,-1.9798,-1.9798,-1.9798,-1.9798,-1.9798,-1.9798,-1.9823,-2.01,-2.0415,-2.0779,-2.1857,-2.2606,-2.3108,-2.3108,-2.3108,-2.3108,-2.3108,-2.3108,-2.3108,0.0,-2.6589,0.0,0.0,-2.533,-2.4942,-2.4149,-2.3217,-2.2985,-2.4113,-2.4286,-2.4286,-2.4286,-2.3564,-2.3035,-2.2854,-2.3005,-2.3035,-2.2854,-2.3017,-2.3108,-2.3108,-2.3108,-2.3005,-2.2854,-2.2854,-2.3781,-2.568,-2.5748,-2.692,-2.9028,0.0,0.0,0.0,0.0,0.0,-2.3487,-2.3191,-2.2959,-2.2802,-2.263,-2.2567,-2.2567,-2.2567,-2.2567,-2.2567,-2.2567,-2.2567,-2.2567,-2.2567,-2.2823,-2.3108,-2.3108,-2.3108,-2.3108,-2.3108,-2.3108,-2.3108,-2.3108,-2.3108,-2.3108,-2.3108,-2.3108,-2.3108,-2.3108,-2.3108,-2.3047,-2.2884,-2.2547,-2.2088,-2.1608,-2.1998,-2.2128,-2.1308,-2.1999,-2.2201,-2.0922,-2.1099,-2.1233,0.0,0.0,0.0,-2.3622,-2.4465,-2.4672,-2.3951,-2.4076,-2.3767,-2.2752,-2.273,-2.2301,-2.1322,-2.0556,-2.0143,-2.0131,-1.9927,-1.9798,-1.9798,-1.9798,-1.9798,-1.9798,-1.9798,-1.9798,-1.9798,-1.9798,-2.02,-2.093,-2.1782,-2.2506,-2.3108,-2.3108,-2.3108,-2.3108,-2.3108,-2.3108,-2.3108,0.0,0.0,0.0,0.0,-2.2668,-2.2268,-2.2171,-2.1417,-2.1404,-2.3022,-2.3233,-2.3233,-2.3233,-2.3155,-2.2823,-2.2075,-2.2671,-2.2793,-2.2063,-2.2702,-2.3108,-2.3108,-2.3108,-2.2763,-2.2032,-2.2002,-2.2542,-2.3677,-2.4441,-2.5772,-2.761,-2.7626,-2.6749,-2.5143,-2.4205,-2.3193,-2.2182,-2.2255,-2.1769,-2.0862,-2.0855,-2.0846,-2.0846,-2.0846,-2.0846,-2.0846,-2.0846,-2.0846,-2.0846,-2.0846,-2.1822,-2.3108,-2.3108,-2.3108,-2.3108,-2.3108,-2.3108,-2.3108,-2.3108,-2.3108,-2.3108,-2.3108,-2.3108,-2.3108,-2.3108,-2.3108,-2.2884,-2.2156,-2.0652,-1.9767,-2.0721,-1.94,-1.8587,-1.9927,-1.9056,-1.8362,-1.8864,-1.8982,-1.9091,-1.928,0.0,0.0,-2.1828,-2.2531,-2.293,-2.2841,-2.3688,-2.3767,-2.2752,-2.2826,-2.2409,-2.1332,-2.1271,-2.1223,-2.1153,-2.027,-1.9798,-1.9798,-1.9798,-1.9798,-1.9798,-1.9798,-1.9798,-1.9798,-1.9798,-2.0413,-2.1418,-2.1518,-2.2184,-2.3108,-2.3108,-2.3108,-2.3108,-2.3108,-2.3108,-2.3108,-2.3715,-2.3731,-2.3515,-2.2436,-2.2056,-2.1725,-2.1186,-2.0801,-2.0846,-2.151,-2.1604,-2.1604,-2.1604,-2.1604,-2.1479,-2.1144,-2.1416,-2.1447,-2.1132,-2.1908,-2.2156,-2.1604,-2.2567,-2.2463,-2.1144,-2.1628,-2.2145,-2.2623,-2.3872,-2.5067,-2.6246,-2.5861,-2.4552,-2.2537,-2.2096,-2.1685,-2.1352,-2.1288,-2.0996,-2.059,-2.059,-2.059,-2.059,-2.059,-2.059,-2.059,-2.059,-2.059,-2.059,-2.059,-2.1037,-2.1604,-2.1604,-2.1604,-2.1604,-2.1604,-2.1604,-2.1604,-2.1604,-2.1604,-2.1604,-2.1604,-2.1604,-2.1604,-2.1604,-2.1604,-2.1428,-2.0834,-1.9659,-1.8741,-1.877,-1.8561,-1.8265,-1.7939,-1.817,-1.8155,-1.7484,-1.7759,-1.7938,-1.7571,0.0,-2.0013,-2.0097,-2.127,-2.2045,-2.2045,-2.2805,-2.3149,-2.2849,-2.1848,-2.1285,-2.1366,-2.0342,-1.9762,-1.9749,-1.9334,-1.8927,-1.8474,-1.8474,-1.8474,-1.8474,-1.8474,-1.8715,-1.9176,-1.9618,-2.025,-2.1043,-2.1383,-2.1945,-2.2644,-2.297,-2.3108,-2.3108,-2.3108,-2.3108,-2.3108,-2.2237,-2.2231,-2.2044,-2.1277,-2.1151,-2.0925,-2.0312,-2.0234,-2.0234,-2.0234,-2.0115,-2.0162,-2.057,-2.059,-2.0494,-2.0236,-2.0462,-2.0494,-2.0236,-2.1037,-2.1227,-2.0623,-2.1729,-2.1698,-2.0236,-2.0814,-2.1169,-2.1272,-2.2586,-2.3634,-2.4432,-2.3947,-2.2689,-2.0925,-2.0771,-2.0607,-2.0427,-2.0273,-2.0074,-1.9857,-1.9857,-1.9857,-1.9857,-1.9857,-1.9857,-1.9857,-1.9857,-1.9857,-1.9857,-1.9857,-1.9857,-1.9911,-2.043,-2.059,-2.059,-2.059,-2.059,-2.059,-2.059,-2.059,-2.059,-2.059,-2.059,-2.059,-2.059,-2.059,-2.04,-1.9792,-1.8669,-1.7647,-1.7217,-1.7556,-1.7553,-1.6659,-1.7269,-1.7564,-1.6641,-1.695,-1.7163,-1.6834,-1.814,-1.9042,-1.897,-2.009,-2.0843,-2.086,-2.1087,-2.1474,-2.2078,-2.0909,-2.0361,-2.0707,-1.9495,-1.8843,-1.8828,-1.8531,-1.8124,-1.7605,-1.7605,-1.7605,-1.7605,-1.7605,-1.7868,-1.8421,-1.8927,-1.9492,-2.008,-2.0588,-2.1112,-2.166,-2.2165,-2.2372,-2.2372,-2.2372,-2.2372,-2.2372,-2.105,-2.0919,-2.066,-1.9521,-1.934,-1.934,-1.9304,-1.9304,-1.9304,-1.9304,-1.8896,-1.913,-2.0453,-2.059,-2.0236,-1.9398,-2.0107,-2.0236,-1.9365,-2.0139,-2.0623,-2.059,-2.0623,-2.0236,-1.9332,-1.9332,-1.9332,-1.9332,-2.021,-2.1078,-2.1922,-2.1989,-2.1539,-2.0682,-2.0694,-2.0175,-1.9321,-1.9332,-1.8821,-1.8042,-1.8042,-1.8042,-1.8042,-1.8042,-1.8042,-1.8042,-1.8042,-1.8042,-1.8042,-1.8042,-1.8042,-1.8337,-2.0042,-2.059,-2.059,-2.059,-2.059,-2.059,-2.059,-2.059,-2.059,-2.059,-2.059,-2.059,-2.059,-2.059,-2.031,-1.9325,-1.7516,-1.6198,-1.6472,-1.5921,-1.5661,-1.6368,-1.5921,-1.569,-1.6397,-1.651,-1.6761,-1.7412,-1.8377,-1.8896,-1.863,-1.8858,-1.9045,-1.9128,-1.8208,-1.8419,-2.0126,-2.0274,-1.995,-1.9152,-1.9179,-1.9153,-1.9113,-1.8113,-1.7605,-1.7605,-1.7605,-1.7605,-1.7605,-1.7605,-1.7605,-1.7605,-1.7633,-1.798,-1.8554,-1.8969,-1.9463,-1.9989,-2.0464,-2.0623,-2.0623,-2.0623,-2.0623,-2.0623,-1.9864,-1.9824,-1.9743,-1.9357,-1.9287,-1.9287,-1.9287,-1.9287,-1.9287,-1.9287,-1.917,-1.9229,-1.9671,-1.9179,-1.8721,-1.8428,-1.8654,-1.8721,-1.8428,-1.9243,-1.9464,-1.8854,-1.9977,-1.9911,-1.8462,-1.9011,-1.9011,-1.8395,-1.9792,-2.0602,-2.0874,-2.0725,-2.0,-1.8873,-1.8873,-1.868,-1.8395,-1.8395,-1.8269,-1.8008,-1.8008,-1.8008,-1.8008,-1.8008,-1.8008,-1.8008,-1.8008,-1.8008,-1.8008,-1.8008,-1.8008,-1.811,-1.8654,-1.8821,-1.8821,-1.8821,-1.8821,-1.8821,-1.8821,-1.8821,-1.8821,-1.8821,-1.8821,-1.8821,-1.8821,-1.8383,-1.7758,-1.7185,-1.6297,-1.5664,-1.572,-1.5555,-1.5468,-1.5719,-1.5555,-1.5468,-1.5729,-1.5748,-1.5825,-1.6042,-1.6339,-1.6503,-1.6437,-1.695,-1.7634,-1.8423,-1.866,-1.9268,-2.047,-1.875,-1.815,-1.9141,-1.799,-1.7352,-1.7346,-1.7002,-1.6595,-1.6102,-1.6102,-1.6102,-1.6102,-1.6613,-1.6849,-1.6877,-1.7385,-1.7723,-1.7941,-1.8474,-1.894,-1.9392,-1.9916,-2.032,-2.059,-2.059,-2.059,-2.059,-1.9492,-1.9521,-1.957,-1.9774,-1.9803,-1.9803,-1.9803,-1.9803,-1.9803,-1.9803,-1.9629,-1.9521,-1.9521,-1.876,-1.8242,-1.8242,-1.8105,-1.8008,-1.8008,-1.8496,-1.8563,-1.8008,-1.9044,-1.911,-1.8008,-1.8529,-1.8563,-1.8008,-1.9015,-1.9499,-1.9499,-1.9324,-1.8813,-1.8008,-1.8008,-1.8008,-1.8008,-1.8008,-1.8008,-1.8008,-1.8008,-1.8008,-1.8008,-1.8008,-1.8008,-1.8008,-1.8008,-1.8008,-1.8008,-1.8008,-1.8008,-1.8008,-1.8008,-1.8008,-1.8008,-1.8008,-1.8008,-1.8008,-1.8008,-1.8008,-1.8008,-1.8008,-1.8008,-1.7969,-1.7812,-1.7109,-1.6406,-1.6153,-1.5743,-1.541,-1.541,-1.541,-1.541,-1.541,-1.541,-1.541,-1.541,-1.541,-1.5594,-1.6118,-1.6038,-1.5997,-1.6182,-1.6458,-1.6776,-1.713,-1.7589,-1.8096,-1.8683,-1.7706,-1.7324,-1.7771,-1.669,-1.6093,-1.6093,-1.6093,-1.5864,-1.541,-1.541,-1.541,-1.541,-1.5864,-1.6093,-1.6112,-1.6585,-1.6771,-1.6814,-1.738,-1.7745,-1.8046,-1.8699,-1.9137,-1.9426,-1.9564,-1.9628,-1.9628,-1.9883,-1.9961,-2.0088,-2.0537,-2.0605,-2.0605,-2.0605,-2.0605,-2.0605,-2.0605,-2.0215,-1.9961,-1.9961,-1.9192,-1.8676,-1.8646,-1.8237,-1.8008,-1.8008,-1.8008,-1.8008,-1.8008,-1.8008,-1.8008,-1.8008,-1.8008,-1.8008,-1.8008,-1.8008,-1.8008,-1.8008,-1.8008,-1.8008,-1.8008,-1.8008,-1.8008,-1.8008,-1.8008,-1.8008,-1.8008,-1.8008,-1.8008,-1.8008,-1.8008,-1.8008,-1.8008,-1.8008,-1.8008,-1.8008,-1.8008,-1.8008,-1.8008,-1.8008,-1.8008,-1.8008,-1.8008,-1.8008,-1.8008,-1.8008,-1.8008,-1.8008,-1.8008,-1.7988,-1.7852,-1.7393,-1.6682,-1.6085,-1.6056,-1.5693,-1.541,-1.541,-1.541,-1.541,-1.541,-1.541,-1.541,-1.541,-1.541,-1.5891,-1.7192,-1.6966,-1.6866,-1.7301,-1.6955,-1.638,-1.5591,-1.5515,-1.5515,-1.5515,-1.7179,-1.7275,-1.5449,-1.541,-1.541,-1.541,-1.541,-1.541,-1.541,-1.541,-1.541,-1.541,-1.541,-1.541,-1.541,-1.541,-1.541,-1.5439,-1.588,-1.6065,-1.6173,-1.7005,-1.7347,-1.7393,-1.7812,-1.7969,-1.7969,-2.0429,-2.0449,-2.0478,-2.0586,-2.0605,-2.0605,-2.0605,-2.0605,-2.0605,-2.0605,-2.0517,-2.0449,-2.0449,-1.9932,-1.9482,-1.916,-1.8447,-1.8008,-1.8008,-1.8008,-1.8008,-1.8008,-1.8008,-1.8008,-1.8008,-1.8008,-1.8008,-1.8008,-1.8008,-1.8008,-1.8008,-1.8008,-1.8008,-1.8008,-1.8008,-1.8008,-1.8008,-1.8008,-1.8008,-1.8008,-1.8008,-1.8008,-1.8008,-1.8008,-1.8008,-1.8008,-1.8008,-1.8008,-1.8008,-1.8008,-1.8008,-1.8008,-1.8008,-1.8008,-1.8008,-1.8008,-1.8008,-1.8008,-1.8008,-1.8008,-1.8008,-1.8008,-1.7773,-1.7334,-1.6584,-1.6242,-1.5997,-1.5635,-1.5488,-1.541,-1.541,-1.541,-1.541,-1.541,-1.541,-1.541,-1.541,-1.541,-1.5517,-1.5862,-1.5808,-1.5788,-1.5899,-1.5808,-1.5995,-1.6638,-1.671,-1.671,-1.671,-1.7122,-1.6762,-1.5449,-1.541,-1.541,-1.541,-1.541,-1.541,-1.541,-1.541,-1.541,-1.541,-1.541,-1.541,-1.541,-1.541,-1.541,-1.542,-1.5527,-1.5791,-1.6114,-1.632,-1.6582,-1.6911,-1.7373,-1.7529,-1.7578,-2.0605,-2.0605,-2.0605,-2.0605,-2.0605,-2.0605,-2.0605,-2.0605,-2.0605,-2.0605,-2.0605,-2.0605,-2.0605,-2.0176,-1.9824,-1.959,-1.8789,-1.8213,-1.8018,-1.8008,-1.8008,-1.8008,-1.8008,-1.8008,-1.8008,-1.8008,-1.8008,-1.8008,-1.8008,-1.8008,-1.8008,-1.8008,-1.8008,-1.8008,-1.8008,-1.8008,-1.8008,-1.8008,-1.8008,-1.8008,-1.8008,-1.8008,-1.8008,-1.8008,-1.8008,-1.8008,-1.8008,-1.8008,-1.8008,-1.8008,-1.8008,-1.8008,-1.8008,-1.8008,-1.8008,-1.8008,-1.8008,-1.8008,-1.8008,-1.8008,-1.7969,-1.7773,-1.7402,-1.6904,-1.6251,-1.5938,-1.5693,-1.5459,-1.541,-1.541,-1.541,-1.541,-1.541,-1.541,-1.5709,-1.5815,-1.5458,-1.5727,-1.5797,-1.5439,-1.541,-1.541,-1.541,-1.541,-1.5656,-1.6277,-1.6326,-1.6326,-1.6326,-1.6326,-1.604,-1.5429,-1.541,-1.541,-1.541,-1.541,-1.541,-1.541,-1.541,-1.541,-1.541,-1.541,-1.541,-1.541,-1.541,-1.541,-1.541,-1.541,-1.5557,-1.5811,-1.6016,-1.6242,-1.6475,-1.6924,-1.709,-1.7148,-2.0605,-2.0605,-2.0605,-2.0605,-2.0605,-2.0605,-2.0605,-2.0605,-2.0605,-2.0605,-2.0605,-2.0605,-2.0605,-2.0234,-1.999,-1.9922,-1.9153,-1.852,-1.8135,-1.8047,-1.8008,-1.8008,-1.8008,-1.8008,-1.8008,-1.8008,-1.8008,-1.8008,-1.8008,-1.8008,-1.8008,-1.8008,-1.8008,-1.8008,-1.8008,-1.8008,-1.8008,-1.8008,-1.8008,-1.8008,-1.8008,-1.8008,-1.8008,-1.8008,-1.8008,-1.8008,-1.8008,-1.8008,-1.8008,-1.8008,-1.8008,-1.8008,-1.8008,-1.8008,-1.8008,-1.8008,-1.8008,-1.8008,-1.8008,-1.7969,-1.7812,-1.7393,-1.6953,-1.6514,-1.6095,-1.5684,-1.541,-1.541,-1.541,-1.541,-1.541,-1.541,-1.5459,-1.5671,-1.6119,-1.6234,-1.5773,-1.6136,-1.6184,-1.5467,-1.541,-1.541,-1.541,-1.541,-1.541,-1.541,-1.541,-1.541,-1.541,-1.541,-1.541,-1.541,-1.541,-1.541,-1.541,-1.541,-1.541,-1.541,-1.541,-1.541,-1.541,-1.541,-1.541,-1.541,-1.541,-1.541,-1.541,-1.541,-1.541,-1.5449,-1.585,-1.5987,-1.6046,-1.6465,-1.6599,-1.6668,-2.0605,-2.0605,-2.0605,-2.0605,-2.0605,-2.0605,-2.0605,-2.0605,-2.0605,-2.0605,-2.0605,-2.0605,-2.0605,-2.0546,-2.0312,-1.9941,-1.9473,-1.9004,-1.8539,-1.8178,-1.8008,-1.8008,-1.8008,-1.8008,-1.8008,-1.8008,-1.8008,-1.8008,-1.8008,-1.8008,-1.8008,-1.8008,-1.8008,-1.8008,-1.8008,-1.8008,-1.8008,-1.8008,-1.8008,-1.8008,-1.8008,-1.8008,-1.8008,-1.8008,-1.8008,-1.8008,-1.8008,-1.8008,-1.8008,-1.8008,-1.8008,-1.8008,-1.8008,-1.8008,-1.8008,-1.8008,-1.8008,-1.8008,-1.8008,-1.7754,-1.7373,-1.6911,-1.6494,-1.6085,-1.5615,-1.5459,-1.541,-1.541,-1.541,-1.541,-1.541,-1.541,-1.5776,-1.6982,-1.6272,-1.5961,-1.7026,-1.6272,-1.5543,-1.54,-1.541,-1.541,-1.541,-1.541,-1.541,-1.541,-1.541,-1.541,-1.541,-1.541,-1.541,-1.541,-1.541,-1.541,-1.541,-1.541,-1.541,-1.541,-1.541,-1.541,-1.541,-1.541,-1.541,-1.541,-1.541,-1.541,-1.541,-1.541,-1.541,-1.542,-1.5488,-1.5508,-1.5566,-1.6036,-1.6202,-1.6261,-2.0605,-2.0605,-2.0605,-2.0605,-2.0605,-2.0605,-2.0605,-2.0605,-2.0605,-2.0605,-2.0605,-2.0605,-2.0605,-2.0605,-2.0517,-2.0283,-1.9873,-1.9443,-1.9014,-1.8369,-1.8008,-1.8008,-1.8008,-1.8008,-1.8008,-1.8008,-1.8008,-1.8008,-1.8008,-1.8008,-1.8008,-1.8008,-1.8008,-1.8008,-1.8008,-1.8008,-1.8008,-1.8008,-1.8008,-1.8008,-1.8008,-1.8008,-1.8008,-1.8008,-1.7681,-1.7251,-1.7251,-1.6932,-1.6481,-1.6481,-1.6481,-1.6481,-1.6481,-1.6481,-1.6481,-1.6481,-1.6862,-1.7307,-1.759,-1.7135,-1.6557,-1.6408,-1.5904,-1.5322,-1.487,-1.4421,-1.4124,-1.4124,-1.4124,-1.4124,-1.4124,-1.4451,-1.4807,-1.5052,-1.5277,-1.5311,-1.5129,-1.4897,-1.4601,-1.4168,-1.4124,-1.4124,-1.4124,-1.4124,-1.4124,-1.4124,-1.4124,-1.4124,-1.4124,-1.451,-1.4569,-1.4115,-1.4962,-1.541,-1.541,-1.541,-1.541,-1.541,-1.541,-1.541,-1.541,-1.541,-1.541,-1.541,-1.541,-1.541,-1.541,-1.541,-1.541,-1.541,-1.541,-1.541,-1.5439,-1.5635,-1.5713,-1.5781,-2.0605,-2.0605,-2.0605,-2.0605,-2.0605,-2.0605,-2.0605,-2.0605,-2.0605,-2.0605,-2.0605,-2.0605,-2.0605,-2.0605,-2.0605,-2.0605,-2.0166,-1.9736,-1.9316,-1.8574,-1.8115,-1.8018,-1.8008,-1.8008,-1.8008,-1.8008,-1.8008,-1.8008,-1.8008,-1.8008,-1.8008,-1.8008,-1.8008,-1.7974,-1.7759,-1.7794,-1.7974,-1.7759,-1.7794,-1.8008,-1.8008,-1.7872,-1.7681,-1.7681,-1.707,-1.628,-1.628,-1.5825,-1.5199,-1.5199,-1.5199,-1.5199,-1.5199,-1.5199,-1.5199,-1.5199,-1.5484,-1.5981,-1.6602,-1.6087,-1.5385,-1.5492,-1.4983,-1.4377,-1.4006,-1.3425,-1.3009,-1.3009,-1.3009,-1.3009,-1.3009,-1.3485,-1.3837,-1.3515,-1.4239,-1.4515,-1.3595,-1.3742,-1.369,-1.308,-1.3009,-1.3009,-1.3009,-1.3009,-1.3009,-1.3009,-1.3009,-1.3009,-1.3009,-1.3584,-1.3636,-1.3009,-1.4213,-1.4844,-1.4844,-1.4844,-1.4844,-1.4844,-1.5021,-1.5108,-1.5147,-1.5323,-1.541,-1.541,-1.541,-1.541,-1.541,-1.541,-1.541,-1.541,-1.541,-1.541,-1.541,-1.541,-1.541,-1.5459,-2.0605,-2.0605,-2.0605,-2.0605,-2.0605,-2.0605,-2.0605,-2.0605,-2.0605,-2.0605,-2.0605,-2.0605,-2.0605,-2.0605,-2.0605,-2.0605,-2.0166,-1.9736,-1.9316,-1.8812,-1.8383,-1.8027,-1.8008,-1.8008,-1.8008,-1.8008,-1.8008,-1.8008,-1.8008,-1.8008,-1.8008,-1.8008,-1.8008,-1.7974,-1.7104,-1.7182,-1.794,-1.707,-1.7217,-1.8008,-1.8008,-1.7467,-1.6706,-1.6706,-1.6105,-1.5305,-1.5305,-1.5269,-1.5199,-1.5199,-1.5199,-1.5199,-1.5199,-1.5199,-1.5199,-1.5199,-1.4406,-1.3735,-1.4661,-1.4354,-1.3762,-1.3775,-1.3445,-1.3133,-1.3108,-1.3039,-1.3009,-1.3009,-1.3009,-1.3009,-1.3009,-1.3039,-1.3485,-1.4677,-1.3915,-1.3583,-1.4697,-1.3835,-1.3089,-1.3,-1.3009,-1.3009,-1.3009,-1.3009,-1.3009,-1.3009,-1.3009,-1.3009,-1.3009,-1.307,-1.307,-1.3009,-1.313,-1.3191,-1.3191,-1.3191,-1.3191,-1.3191,-1.3936,-1.4302,-1.4293,-1.505,-1.541,-1.541,-1.541,-1.541,-1.541,-1.541,-1.541,-1.541,-1.541,-1.541,-1.541,-1.541,-1.541,-1.5391,-2.0605,-2.0605,-2.0605,-2.0605,-2.0605,-2.0605,-2.0605,-2.0605,-2.0605,-2.0605,-2.0605,-2.0605,-2.0605,-2.0001,-1.9599,-1.9599,-1.9459,-1.9048,-1.8351,-1.8759,-1.873,-1.8037,-1.8008,-1.8008,-1.8008,-1.8008,-1.8008,-1.8008,-1.8008,-1.8008,-1.7974,-1.7398,-1.7139,-1.7104,-1.6149,-1.6254,-1.707,-1.6114,-1.6254,-1.707,-1.6507,-1.6053,-1.572,-1.572,-1.5128,-1.4279,-1.4279,-1.3918,-1.3411,-1.3411,-1.3411,-1.3411,-1.3411,-1.3411,-1.3375,-1.3214,-1.2656,-1.2164,-1.2364,-1.2583,-1.2814,-1.3132,-1.2731,-1.2266,-1.2266,-1.1872,-1.1514,-1.1514,-1.1514,-1.1514,-1.1514,-1.1934,-1.2274,-1.2256,-1.2273,-1.2274,-1.2256,-1.1827,-1.1514,-1.1514,-1.1514,-1.1514,-1.1514,-1.1514,-1.1514,-1.1514,-1.1514,-1.1514,-1.1514,-1.1514,-1.1756,-1.2235,-1.1779,-1.1996,-1.2978,-1.3009,-1.3009,-1.3009,-1.3816,-1.4213,-1.4243,-1.5021,-1.541,-1.541,-1.541,-1.541,-1.541,-1.541,-1.541,-1.541,-1.541,-1.541,-1.541,-1.541,-1.541,-1.541,-2.0605,-2.0323,-2.0079,-2.0079,-1.9795,-1.955,-1.955,-1.955,-1.955,-1.955,-1.955,-1.955,-1.955,-1.8917,-1.859,-1.8957,-1.8888,-1.8613,-1.8239,-1.8354,-1.8322,-1.8003,-1.8008,-1.8008,-1.8008,-1.8008,-1.7862,-1.7579,-1.7579,-1.7398,-1.7113,-1.6463,-1.614,-1.6105,-1.5163,-1.5261,-1.6105,-1.5128,-1.5261,-1.6105,-1.5446,-1.5021,-1.4736,-1.4736,-1.4135,-1.3273,-1.3273,-1.2842,-1.2305,-1.2305,-1.2305,-1.2305,-1.2305,-1.2238,-1.2124,-1.196,-1.1597,-1.1243,-1.1049,-1.1332,-1.1802,-1.2143,-1.1841,-1.1406,-1.1406,-1.0982,-1.0593,-1.0593,-1.0593,-1.0593,-1.0593,-1.1045,-1.1226,-1.0688,-1.1045,-1.1226,-1.0681,-1.0593,-1.0593,-1.0593,-1.0593,-1.0593,-1.0593,-1.0593,-1.0593,-1.0593,-1.0593,-1.0593,-1.0593,-1.0593,-1.0863,-1.1413,-1.0895,-1.1115,-1.2243,-1.2251,-1.2251,-1.2243,-1.3053,-1.3446,-1.3476,-1.4264,-1.4658,-1.4658,-1.4658,-1.4658,-1.4658,-1.4658,-1.4658,-1.4658,-1.4658,-1.4658,-1.4658,-1.4658,-1.4658,-1.4658,-2.0566,-1.9717,-1.9006,-1.9006,-1.8069,-1.7302,-1.7302,-1.7302,-1.7302,-1.7302,-1.7302,-1.7302,-1.7302,-1.7293,-1.7738,-1.8868,-1.8548,-1.8542,-1.9234,-1.7595,-1.7001,-1.794,-1.7974,-1.7974,-1.7974,-1.7974,-1.7501,-1.6602,-1.6602,-1.6105,-1.5199,-1.5199,-1.5199,-1.5128,-1.4135,-1.4243,-1.5128,-1.4135,-1.4279,-1.5199,-1.5163,-1.4593,-1.3709,-1.3709,-1.3091,-1.2305,-1.2305,-1.2305,-1.2305,-1.2305,-1.2305,-1.2305,-1.2305,-1.2104,-1.1906,-1.1899,-1.1484,-1.0995,-1.0989,-1.0814,-1.0593,-1.0593,-1.0593,-1.0593,-1.0593,-1.0593,-1.0593,-1.0593,-1.0593,-1.0593,-1.0593,-1.0593,-1.0593,-1.0593,-1.0593,-1.0593,-1.0593,-1.0593,-1.0593,-1.0593,-1.0593,-1.0593,-1.0593,-1.0593,-1.0593,-1.0593,-1.0593,-1.0593,-1.0593,-1.0593,-1.0593,-1.0593,-1.0593,-1.0593,-1.0593,-1.0593,-1.0593,-1.0624,-1.1406,-1.1803,-1.1834,-1.2634,-1.3009,-1.3009,-1.3009,-1.3009,-1.3009,-1.3009,-1.3009,-1.3009,-1.3009,-1.3009,-1.3009,-1.3009,-1.3009,-1.3009,-1.8261,-1.802,-1.7827,-1.7827,-1.7536,-1.7302,-1.7302,-1.7302,-1.7302,-1.7302,-1.7302,-1.7302,-1.7302,-1.6642,-1.6261,-1.6381,-1.6261,-1.637,-1.683,-1.6065,-1.5728,-1.6018,-1.6053,-1.6053,-1.6053,-1.6053,-1.5904,-1.5623,-1.5623,-1.5473,-1.5163,-1.4494,-1.4135,-1.4099,-1.3164,-1.3237,-1.4099,-1.3127,-1.3273,-1.4099,-1.3411,-1.2989,-1.2732,-1.2732,-1.2556,-1.2305,-1.2305,-1.2305,-1.2305,-1.2305,-1.2305,-1.2305,-1.2305,-1.2104,-1.1866,-1.1617,-1.1289,-1.0949,-1.0774,-1.066,-1.0593,-1.0593,-1.0593,-1.0593,-1.0593,-1.0593,-1.0593,-1.0593,-1.0593,-1.0593,-1.0593,-1.0593,-1.0593,-1.0593,-1.0593,-1.0593,-1.0593,-1.0593,-1.0593,-1.0593,-1.0593,-1.0593,-1.0593,-1.0593,-1.0593,-1.0593,-1.0593,-1.0593,-1.0593,-1.0593,-1.0593,-1.0593,-1.0593,-1.0593,-1.0593,-1.0593,-1.0593,-1.0624,-1.1406,-1.1803,-1.1834,-1.2634,-1.3009,-1.3009,-1.3009,-1.3009,-1.3009,-1.3009,-1.3009,-1.3009,-1.3009,-1.3009,-1.3009,-1.3009,-1.3009,-1.3009,-1.7302,-1.6968,-1.6683,-1.6683,-1.6322,-1.6041,-1.6041,-1.6041,-1.6041,-1.6041,-1.6041,-1.6041,-1.6041,-1.5352,-1.4993,-1.5273,-1.5404,-1.5507,-1.5563,-1.4956,-1.4593,-1.4593,-1.4235,-1.4414,-1.5163,-1.5199,-1.5021,-1.4593,-1.4593,-1.4414,-1.4055,-1.3411,-1.3135,-1.3135,-1.2556,-1.2629,-1.3091,-1.2556,-1.2629,-1.3098,-1.2519,-1.2305,-1.2305,-1.2305,-1.2305,-1.2305,-1.2305,-1.2305,-1.2305,-1.2305,-1.2305,-1.2278,-1.2171,-1.1931,-1.1637,-1.1343,-1.1049,-1.0814,-1.064,-1.0593,-1.0593,-1.0593,-1.0593,-1.0593,-1.0593,-1.0593,-1.0593,-1.0593,-1.0593,-1.0593,-1.0593,-1.0593,-1.0593,-1.0593,-1.0593,-1.0593,-1.0593,-1.0593,-1.0593,-1.0593,-1.0593,-1.0593,-1.0593,-1.0593,-1.0593,-1.0593,-1.0593,-1.0593,-1.0593,-1.0593,-1.0593,-1.0593,-1.0593,-1.0593,-1.0593,-1.0593,-1.0593,-1.0624,-1.1076,-1.132,-1.1351,-1.1818,-1.2066,-1.2066,-1.2066,-1.2066,-1.2066,-1.2066,-1.2066,-1.2066,-1.2066,-1.2066,-1.2066,-1.2066,-1.2066,-1.2066,-1.7009,-1.6239,-1.5579,-1.5579,-1.4734,-1.4088,-1.4088,-1.4088,-1.4088,-1.4088,-1.4088,-1.4088,-1.4088,-1.378,-1.4028,-1.502,-1.5353,-1.532,-1.4966,-1.4099,-1.3564,-1.3564,-1.2769,-1.3127,-1.4914,-1.495,-1.4486,-1.3564,-1.3564,-1.3135,-1.2305,-1.2305,-1.2305,-1.2305,-1.2305,-1.2305,-1.2305,-1.2305,-1.2305,-1.2305,-1.2305,-1.2305,-1.2305,-1.2305,-1.2305,-1.2305,-1.2305,-1.2305,-1.2305,-1.2305,-1.2305,-1.2251,-1.1993,-1.1663,-1.1335,-1.1082,-1.0821,-1.0593,-1.0593,-1.0593,-1.0593,-1.0593,-1.0593,-1.0593,-1.0593,-1.0593,-1.0593,-1.0593,-1.0593,-1.0593,-1.0593,-1.0593,-1.0593,-1.0593,-1.0593,-1.0593,-1.0593,-1.0593,-1.0593,-1.0593,-1.0593,-1.0593,-1.0593,-1.0593,-1.0593,-1.0593,-1.0593,-1.0593,-1.0593,-1.0593,-1.0593,-1.0593,-1.0593,-1.0593,-1.0593,-1.0593,-1.0593,-1.0593,-1.0593,-1.0593,-1.0593,-1.0593,-1.0593,-1.0593,-1.0593,-1.0593,-1.0593,-1.0593,-1.0593,-1.0593,-1.0593,-1.0593,-1.0593,-1.0593,-1.0593,-1.0593,-1.4776,-1.4615,-1.4454,-1.4454,-1.425,-1.4088,-1.4088,-1.4088,-1.4088,-1.4088,-1.4088,-1.4088,-1.4088,-1.378,-1.3628,-1.3632,-1.3303,-1.3015,-1.2915,-1.2732,-1.2592,-1.2592,-1.2409,-1.2519,-1.2908,-1.2908,-1.2806,-1.2592,-1.2592,-1.2519,-1.2305,-1.2305,-1.2305,-1.2305,-1.2305,-1.2305,-1.2305,-1.2305,-1.2305,-1.2305,-1.2305,-1.2305,-1.2305,-1.2305,-1.2305,-1.2305,-1.2305,-1.2305,-1.2305,-1.2305,-1.2305,-1.2251,-1.1993,-1.1663,-1.1335,-1.1082,-1.0821,-1.0593,-1.0593,-1.0593,-1.0593,-1.0593,-1.0593,-1.0593,-1.0593,-1.0593,-1.0593,-1.0593,-1.0593,-1.0593,-1.0593,-1.0593,-1.0593,-1.0593,-1.0593,-1.0593,-1.0593,-1.0593,-1.0593,-1.0593,-1.0593,-1.0593,-1.0593,-1.0593,-1.0593,-1.0593,-1.0593,-1.0593,-1.0593,-1.0593,-1.0593,-1.0593,-1.0593,-1.0593,-1.0593,-1.0593,-1.0593,-1.0593,-1.0593,-1.0593,-1.0593,-1.0593,-1.0593,-1.0593,-1.0593,-1.0593,-1.0593,-1.0593,-1.0593,-1.0593,-1.0593,-1.0593,-1.0593,-1.0593,-1.0593,-1.0593,-1.4088,-1.4088,-1.4088,-1.4088,-1.4088,-1.4088,-1.4088,-1.4088,-1.4088,-1.4088,-1.4088,-1.4035,-1.3895,-1.3573,-1.322,-1.2812,-1.2485,-1.2305,-1.2305,-1.2305,-1.2305,-1.2305,-1.2305,-1.2305,-1.2305,-1.2305,-1.2305,-1.2305,-1.2305,-1.2305,-1.2305,-1.2305,-1.2305,-1.2305,-1.2305,-1.2305,-1.2305,-1.2305,-1.2305,-1.2305,-1.2305,-1.2305,-1.2305,-1.2305,-1.2305,-1.2305,-1.2305,-1.2305,-1.2224,-1.1731,-1.1583,-1.1433,-1.0599,-1.0207,-0.9984,-0.9667,-0.9459,-0.9352,-0.9352,-0.9352,-0.9352,-0.9352,-0.9352,-0.9582,-1.0396,-1.0269,-1.011,-1.0498,-0.9939,-0.9486,-0.9913,-0.9977,-0.9977,-0.9977,-1.0333,-1.0593,-1.0593,-1.0593,-1.0593,-1.0593,-1.0593,-1.0593,-1.0593,-1.0593,-1.0593,-1.0593,-1.0593,-1.0593,-1.0593,-1.0593,-1.0593,-1.0593,-1.0206,-1.0174,-1.0593,-1.0174,-1.0174,-1.0593,-1.0593,-1.0593,-1.0593,-1.0593,-1.0593,-1.0593,-1.0593,-1.0593,-1.0593,-1.0593,-1.0593,-1.0593,-1.0593,-1.0593,-1.0593,-1.0593,-1.0593,-1.0593,-1.4088,-1.4088,-1.4088,-1.4088,-1.4088,-1.4088,-1.4088,-1.4088,-1.4088,-1.4088,-1.4041,-1.3915,-1.3626,-1.334,-1.2906,-1.2351,-1.2305,-1.2305,-1.2305,-1.2305,-1.2305,-1.2305,-1.2305,-1.2305,-1.2305,-1.2305,-1.2305,-1.2305,-1.2305,-1.2305,-1.2305,-1.2305,-1.2305,-1.2305,-1.2305,-1.2305,-1.2305,-1.2305,-1.2305,-1.2305,-1.2305,-1.2305,-1.2305,-1.2305,-1.2305,-1.2268,-1.2114,-1.1929,-1.1663,-1.0826,-1.0536,-1.0305,-0.8999,-0.8599,-0.8487,-0.8116,-0.7994,-0.7994,-0.7994,-0.7994,-0.7994,-0.7994,-0.7994,-0.8382,-0.9811,-0.9588,-0.9268,-1.0009,-0.9,-0.8221,-0.8941,-0.9075,-0.9075,-0.9075,-0.9684,-1.0168,-1.0168,-1.0168,-1.0168,-1.0168,-1.0168,-1.0168,-1.0168,-1.0168,-1.0168,-1.0168,-1.0168,-1.0168,-1.0168,-1.0168,-1.0168,-1.0168,-0.946,-0.9428,-1.0136,-0.9428,-0.9428,-1.0168,-1.0168,-1.0301,-1.0593,-1.0593,-1.0593,-1.0593,-1.0593,-1.0593,-1.0593,-1.0428,-1.0364,-1.0364,-1.0364,-1.0364,-1.0396,-1.0561,-1.0593,-1.0593,-1.4088,-1.4088,-1.4088,-1.4088,-1.4088,-1.4088,-1.4088,-1.4088,-1.4088,-1.4088,-1.3861,-1.3646,-1.3606,-1.3146,-1.271,-1.2331,-1.2305,-1.2305,-1.2305,-1.2305,-1.2305,-1.2305,-1.2305,-1.2305,-1.2305,-1.2305,-1.2305,-1.2305,-1.2305,-1.2305,-1.2305,-1.2305,-1.2305,-1.2305,-1.2305,-1.2305,-1.2305,-1.2305,-1.2305,-1.2305,-1.2305,-1.2305,-1.2305,-1.2305,-1.2305,-1.2187,-1.1316,-1.0453,-0.9674,-0.9561,-0.9426,-0.9249,-0.874,-0.8527,-0.8386,-0.8098,-0.7994,-0.7994,-0.7994,-0.7994,-0.7994,-0.7994,-0.7994,-0.8059,-0.8285,-0.8253,-0.8221,-0.8318,-0.8156,-0.8027,-0.8156,-0.8188,-0.8188,-0.8188,-0.8285,-0.835,-0.835,-0.835,-0.835,-0.835,-0.835,-0.835,-0.835,-0.835,-0.835,-0.835,-0.835,-0.835,-0.835,-0.835,-0.835,-0.835,-0.8221,-0.8221,-0.835,-0.8221,-0.8221,-0.835,-0.835,-0.9128,-1.0593,-1.0593,-1.0593,-1.0593,-1.0593,-1.0593,-1.053,-0.9786,-0.9466,-0.9466,-0.9466,-0.9466,-0.9562,-1.0333,-1.0593,-1.0593,-1.4088,-1.4088,-1.4088,-1.4088,-1.4088,-1.4088,-1.4088,-1.4088,-1.4088,-1.4088,-1.3828,-1.354,-1.338,-1.2859,-1.2445,-1.2311,-1.2305,-1.2305,-1.2305,-1.2305,-1.2305,-1.2305,-1.2305,-1.2305,-1.2305,-1.2305,-1.2305,-1.2305,-1.2305,-1.2305,-1.2305,-1.2305,-1.2305,-1.2305,-1.2305,-1.2305,-1.2305,-1.2305,-1.2305,-1.2305,-1.2305,-1.1959,-1.1465,-1.1465,-1.1093,-1.0576,-1.0121,-0.9669,-0.9221,-0.8651,-0.836,-0.8079,-0.7275,-0.6954,-0.6805,-0.6589,-0.6535,-0.6535,-0.6535,-0.6535,-0.6535,-0.6535,-0.6535,-0.6535,-0.6535,-0.6535,-0.6826,-0.78,-0.7214,-0.6695,-0.7177,-0.7274,-0.7274,-0.7274,-0.7697,-0.7994,-0.7994,-0.7994,-0.7994,-0.7994,-0.7994,-0.7994,-0.7994,-0.7994,-0.7994,-0.7994,-0.7994,-0.7994,-0.7994,-0.7994,-0.7994,-0.7994,-0.7535,-0.7502,-0.7994,-0.7502,-0.7502,-0.7994,-0.7994,-0.8415,-0.916,-0.916,-0.916,-0.916,-0.916,-0.916,-0.9128,-0.8742,-0.8581,-0.8619,-0.9107,-0.9594,-1.0079,-1.046,-1.0593,-1.0593]}]]